AXGD100 Flymaster F1, V1.21, S/N 1200
HFDTE140213
HOPLTPILOT: Alain Marco Curion Cirerol
HOGTYGLIDERTYPE: Wintech Fenix
HOGIDGLIDERID: None
HODTM100GPSDATUM: WGS-84
HOCIDCOMPETITIONID: 
HOCCLCOMPETITION CLASS: Sport
HOSITSite: None
B1120093653792N00255080WA0111801263
B1120103653790N00255078WA0111701266
B1120113653788N00255075WA0111201269
B1120123653786N00255071WA0111201270
B1120133653784N00255068WA0111301271
B1120143653783N00255064WA0111301271
B1120153653783N00255060WA0111201271
B1120163653782N00255054WA0111001269
B1120173653781N00255049WA0110601269
B1120183653781N00255043WA0110401269
B1120193653781N00255038WA0110301268
B1120203653783N00255032WA0110301268
B1120213653785N00255025WA0110001267
B1120223653787N00255019WA0109801267
B1120233653789N00255013WA0109801267
B1120243653791N00255008WA0109801266
B1120253653791N00255003WA0109701265
B1120263653790N00254999WA0109501264
B1120273653788N00254995WA0109401264
B1120283653785N00254993WA0109101265
B1120293653782N00254993WA0109101263
B1120303653779N00254995WA0109201261
B1120313653776N00254998WA0109201257
B1120323653774N00255002WA0109301257
B1120333653774N00255005WA0109301257
B1120343653773N00255009WA0109201256
B1120353653773N00255014WA0109001254
B1120363653774N00255020WA0108701252
B1120373653776N00255026WA0108701250
B1120383653779N00255032WA0108701248
B1120393653782N00255037WA0108701246
B1120403653787N00255042WA0108901245
B1120413653791N00255047WA0109101245
B1120423653796N00255051WA0109301245
B1120433653799N00255056WA0109301246
B1120443653800N00255061WA0109201246
B1120453653801N00255066WA0109301246
B1120463653801N00255070WA0109501247
B1120473653799N00255072WA0109701248
B1120483653798N00255073WA0109801249
B1120493653796N00255072WA0109901249
B1120503653795N00255071WA0110001248
B1120513653792N00255069WA0110001248
B1120523653791N00255066WA0110201248
B1120533653790N00255063WA0110301247
B1120543653789N00255060WA0110301247
B1120553653789N00255057WA0110201247
B1120563653789N00255053WA0110001247
B1120573653789N00255048WA0109801247
B1120583653791N00255042WA0109801247
B1120593653791N00255036WA0109801247
B1121003653790N00255033WA0109901247
B1121013653788N00255030WA0109801247
B1121023653786N00255029WA0109701247
B1121033653783N00255028WA0109701247
B1121043653781N00255028WA0109501247
B1121053653778N00255029WA0109301247
B1121063653776N00255031WA0109001247
B1121073653774N00255036WA0108901247
B1121083653774N00255042WA0109501247
B1121093653776N00255048WA0109901247
B1121103653780N00255052WA0110001247
B1121113653786N00255055WA0109301245
B1121123653793N00255052WA0109101243
B1121133653801N00255046WA0109501241
B1121143653806N00255039WA0109601241
B1121153653807N00255031WA0109901241
B1121163653806N00255026WA0109801241
B1121173653804N00255024WA0109801242
B1121183653803N00255023WA0109701241
B1121193653801N00255022WA0109501241
B1121203653798N00255023WA0109301241
B1121213653794N00255026WA0108901241
B1121223653790N00255030WA0108901241
B1121233653787N00255034WA0109501245
B1121243653786N00255036WA0110101250
B1121253653785N00255038WA0110501258
B1121263653786N00255041WA0110701262
B1121273653788N00255046WA0110701263
B1121283653792N00255050WA0110301263
B1121293653798N00255053WA0110201264
B1121303653805N00255053WA0110101263
B1121313653812N00255050WA0110101263
B1121323653818N00255044WA0110201263
B1121333653822N00255038WA0110301263
B1121343653823N00255031WA0110501264
B1121353653824N00255025WA0110801265
B1121363653823N00255022WA0111101266
B1121373653822N00255019WA0111201266
B1121383653821N00255017WA0111001267
B1121393653819N00255015WA0110701266
B1121403653816N00255013WA0110301264
B1121413653812N00255013WA0110301264
B1121423653809N00255013WA0110901265
B1121433653807N00255014WA0111201266
B1121443653806N00255014WA0111501270
B1121453653805N00255015WA0111601271
B1121463653803N00255016WA0111501273
B1121473653800N00255018WA0111201274
B1121483653797N00255019WA0111001275
B1121493653794N00255020WA0110901274
B1121503653791N00255020WA0110801273
B1121513653788N00255021WA0110801273
B1121523653786N00255022WA0110601271
B1121533653783N00255025WA0110401270
B1121543653781N00255028WA0110301270
B1121553653780N00255032WA0110201269
B1121563653779N00255037WA0110001267
B1121573653780N00255043WA0110001265
B1121583653782N00255049WA0110001262
B1121593653784N00255054WA0110001259
B1122003653786N00255059WA0109901257
B1122013653788N00255064WA0109701255
B1122023653789N00255069WA0109501253
B1122033653790N00255075WA0109401251
B1122043653792N00255080WA0109601249
B1122053653794N00255085WA0109301248
B1122063653796N00255090WA0109001247
B1122073653798N00255096WA0109001245
B1122083653799N00255101WA0109001244
B1122093653800N00255106WA0108901243
B1122103653799N00255110WA0108701242
B1122113653797N00255114WA0108401241
B1122123653793N00255115WA0108301240
B1122133653790N00255114WA0108101239
B1122143653786N00255111WA0107901238
B1122153653784N00255106WA0107701236
B1122163653783N00255101WA0107501235
B1122173653783N00255095WA0107501233
B1122183653782N00255089WA0107401231
B1122193653782N00255082WA0107401229
B1122203653781N00255074WA0107401228
B1122213653781N00255067WA0107001234
B1122223653781N00255061WA0106901234
B1122233653782N00255054WA0107001233
B1122243653782N00255049WA0107101232
B1122253653782N00255043WA0106901232
B1122263653782N00255037WA0106701231
B1122273653781N00255031WA0106401230
B1122283653780N00255025WA0106301226
B1122273653777N00255020WA0106101223
B1122283653773N00255016WA0106001220
B1122313653761N00255013WA0105801215
B1122343653752N00255022WA0105001213
B1122353653750N00255028WA0105001212
B1122363653750N00255034WA0105001211
B1122373653750N00255039WA0105001209
B1122383653750N00255045WA0105001208
B1122393653750N00255050WA0104901206
B1122403653749N00255056WA0104701204
B1122413653748N00255063WA0104601202
B1122423653746N00255069WA0104501201
B1122433653745N00255075WA0104601201
B1122443653745N00255081WA0104801203
B1122453653745N00255086WA0105101204
B1122463653747N00255091WA0105101204
B1122473653748N00255096WA0105001204
B1122483653748N00255102WA0104801203
B1122493653748N00255109WA0104601202
B1122503653749N00255116WA0104701201
B1122513653750N00255122WA0104801201
B1122523653753N00255127WA0105101201
B1122533653754N00255133WA0105501202
B1122543653754N00255138WA0105901205
B1122553653753N00255141WA0106101207
B1122563653750N00255143WA0106101208
B1122573653746N00255144WA0105901210
B1122583653743N00255142WA0106101212
B1122593653740N00255138WA0106201213
B1123003653738N00255133WA0106201215
B1123013653736N00255127WA0106301214
B1123023653733N00255121WA0106601215
B1123033653731N00255116WA0107101216
B1123043653730N00255111WA0107501217
B1123053653731N00255105WA0107301219
B1123073653738N00255093WA0107301221
B1123083653743N00255090WA0107601223
B1123093653748N00255089WA0107801224
B1123103653752N00255091WA0107801224
B1123113653756N00255095WA0107701225
B1123123653758N00255101WA0107801224
B1123133653758N00255106WA0108001226
B1123143653756N00255111WA0108401229
B1123153653753N00255114WA0108701230
B1123163653749N00255114WA0109001226
B1123173653745N00255111WA0109301228
B1123183653742N00255107WA0109601230
B1123193653740N00255103WA0109801233
B1123203653738N00255097WA0110001234
B1123213653738N00255091WA0110201236
B1123223653739N00255085WA0110501238
B1123233653741N00255079WA0110601239
B1123243653745N00255074WA0110701242
B1123253653750N00255070WA0110801238
B1123263653757N00255068WA0111201239
B1123273653764N00255067WA0111501240
B1123283653768N00255069WA0112001241
B1123293653770N00255072WA0112401244
B1123303653772N00255077WA0112501247
B1123313653771N00255083WA0112701250
B1123323653768N00255086WA0112901253
B1123333653764N00255087WA0113201255
B1123343653760N00255085WA0113501257
B1123353653757N00255080WA0113601260
B1123363653755N00255074WA0113801262
B1123373653756N00255067WA0114101265
B1123383653757N00255060WA0114701268
B1123393653760N00255054WA0115101276
B1123403653764N00255050WA0115301281
B1123413653770N00255047WA0115501285
B1123423653775N00255046WA0115501287
B1123433653780N00255048WA0115701290
B1123443653784N00255052WA0115901293
B1123453653787N00255057WA0116201296
B1123463653789N00255062WA0116701299
B1123473653790N00255066WA0117201303
B1123483653788N00255069WA0117501308
B1123493653785N00255071WA0117601311
B1123503653781N00255071WA0117701314
B1123513653776N00255069WA0117901317
B1123523653773N00255064WA0118301321
B1123533653773N00255058WA0118701325
B1123543653775N00255053WA0119001320
B1123553653779N00255048WA0119301320
B1123563653783N00255042WA0119601321
B1123573653787N00255037WA0119701323
B1123583653792N00255033WA0119901326
B1123593653797N00255031WA0120201329
B1124003653803N00255029WA0120401331
B1124013653808N00255029WA0120701333
B1124023653813N00255031WA0120701335
B1124033653817N00255036WA0120401337
B1124043653820N00255044WA0120601339
B1124053653822N00255051WA0121201341
B1124063653824N00255056WA0121901343
B1124073653823N00255059WA0122201339
B1124083653820N00255061WA0122401340
B1124093653816N00255061WA0122501341
B1124103653812N00255060WA0122801342
B1124113653808N00255056WA0123201343
B1124123653806N00255052WA0123601344
B1124133653806N00255046WA0123801345
B1124143653808N00255038WA0124201345
B1124153653810N00255032WA0124501346
B1124163653813N00255026WA0124701348
B1124173653817N00255022WA0124601350
B1124183653823N00255019WA0124701352
B1124193653829N00255018WA0124801353
B1124203653834N00255020WA0125201356
B1124213653839N00255024WA0125501360
B1124223653842N00255029WA0126001363
B1124233653844N00255036WA0126401367
B1124243653844N00255041WA0126701373
B1124253653842N00255046WA0127001377
B1124263653839N00255049WA0127101381
B1124273653834N00255049WA0127401386
B1124283653830N00255048WA0127701391
B1124293653827N00255046WA0128001396
B1124303653823N00255042WA0128301401
B1124313653820N00255039WA0128501409
B1124323653818N00255035WA0128901414
B1124333653816N00255030WA0129101419
B1124343653814N00255025WA0129401424
B1124353653813N00255019WA0129501429
B1124363653813N00255012WA0129701430
B1124373653815N00255005WA0129801433
B1124383653818N00254999WA0130101436
B1124393653822N00254995WA0130301439
B1124403653826N00254992WA0130501442
B1124413653830N00254991WA0130801446
B1124423653835N00254992WA0130801449
B1124433653840N00254996WA0130701451
B1124443653844N00255002WA0130901453
B1124453653845N00255008WA0131501455
B1124463653845N00255013WA0132001459
B1124473653844N00255018WA0132301462
B1124483653843N00255022WA0132601466
B1124493653840N00255025WA0132901469
B1124503653836N00255028WA0133001472
B1124513653831N00255027WA0133001474
B1124523653826N00255024WA0133201477
B1124533653822N00255019WA0133601479
B1124543653819N00255015WA0133901483
B1124553653818N00255011WA0134201487
B1124563653817N00255005WA0134401491
B1124573653818N00254998WA0134401493
B1124583653820N00254991WA0134501487
B1124593653823N00254984WA0134801488
B1125003653826N00254979WA0135101490
B1125013653829N00254974WA0135501492
B1125023653833N00254971WA0135601495
B1125033653838N00254969WA0135801498
B1125043653844N00254969WA0135901499
B1125053653851N00254970WA0136101500
B1125063653856N00254972WA0136501503
B1125073653861N00254975WA0136901505
B1125083653863N00254979WA0137301509
B1125093653865N00254985WA0137501513
B1125103653865N00254991WA0137701515
B1125113653865N00254997WA0137901518
B1125123653864N00255004WA0138201521
B1125133653862N00255008WA0138501525
B1125143653859N00255011WA0138801529
B1125153653855N00255013WA0139101525
B1125163653850N00255012WA0139401524
B1125173653847N00255012WA0139601526
B1125183653844N00255010WA0139901528
B1125193653841N00255006WA0140101531
B1125203653838N00255002WA0140401533
B1125213653836N00254998WA0140601535
B1125223653833N00254993WA0140801538
B1125233653832N00254988WA0141001540
B1125243653831N00254982WA0141101542
B1125253653833N00254975WA0141001544
B1125263653837N00254968WA0141101545
B1125273653841N00254962WA0141301546
B1125283653846N00254959WA0141601549
B1125293653851N00254958WA0141901552
B1125303653855N00254958WA0141901555
B1125313653859N00254960WA0141801557
B1125323653864N00254964WA0141801558
B1125333653868N00254970WA0142001559
B1125343653871N00254976WA0142201561
B1125353653873N00254982WA0142601563
B1125363653874N00254986WA0142801567
B1125373653874N00254990WA0143201570
B1125383653874N00254993WA0143401573
B1125393653873N00254997WA0143501576
B1125403653871N00255000WA0143601577
B1125413653868N00255003WA0143701579
B1125423653865N00255003WA0143801581
B1125433653862N00255002WA0143901583
B1125443653859N00254999WA0144101585
B1125453653857N00254995WA0144401588
B1125463653857N00254990WA0144501591
B1125473653857N00254985WA0144601593
B1125483653857N00254979WA0144701595
B1125493653859N00254972WA0144901597
B1125503653863N00254966WA0145001598
B1125513653867N00254961WA0145201600
B1125523653872N00254957WA0145401602
B1125533653878N00254954WA0145601603
B1125543653885N00254951WA0145701602
B1125553653891N00254948WA0145901603
B1125563653896N00254946WA0146001605
B1125573653902N00254945WA0146101606
B1125583653907N00254945WA0145701607
B1125593653913N00254949WA0146001608
B1126003653918N00254953WA0146101607
B1126013653922N00254959WA0146201608
B1126023653924N00254965WA0146501610
B1126033653926N00254970WA0146701612
B1126043653927N00254974WA0146901614
B1126053653927N00254978WA0147001616
B1126063653925N00254981WA0147101618
B1126073653923N00254982WA0147201619
B1126083653920N00254982WA0147301620
B1126093653917N00254981WA0147501620
B1126103653915N00254980WA0147501620
B1126113653913N00254976WA0147401620
B1126123653913N00254972WA0147301620
B1126133653913N00254966WA0147301620
B1126143653914N00254960WA0147901621
B1126153653916N00254955WA0148101623
B1126163653918N00254950WA0148201625
B1126173653921N00254945WA0148301625
B1126183653925N00254940WA0148201624
B1126193653930N00254935WA0147701622
B1126203653936N00254930WA0147301620
B1126213653943N00254926WA0147701621
B1126223653948N00254923WA0148201623
B1126233653953N00254922WA0148501625
B1126243653958N00254921WA0148601627
B1126253653964N00254921WA0148201627
B1126263653970N00254923WA0148001626
B1126273653977N00254927WA0148101626
B1126283653982N00254931WA0148601627
B1126293653985N00254936WA0148901628
B1126303653987N00254941WA0149201629
B1126313653988N00254946WA0149401632
B1126323653988N00254951WA0149701634
B1126333653987N00254955WA0150001637
B1126343653985N00254957WA0150301639
B1126353653982N00254955WA0150301641
B1126363653979N00254951WA0150301642
B1126373653977N00254946WA0150401641
B1126383653977N00254939WA0150701641
B1126393653979N00254933WA0151001641
B1126403653980N00254928WA0151201643
B1126413653982N00254922WA0151301645
B1126423653985N00254915WA0151401647
B1126433653989N00254908WA0151601649
B1126443653994N00254901WA0151801651
B1126453653999N00254895WA0152101653
B1126463654005N00254891WA0152401655
B1126473654011N00254889WA0152701659
B1126483654017N00254891WA0152701661
B1126493654023N00254896WA0152401663
B1126503654026N00254903WA0152901664
B1126513654027N00254909WA0153301667
B1126523654027N00254914WA0153601671
B1126533654026N00254917WA0153901674
B1126543654025N00254919WA0154101676
B1126553654023N00254921WA0154201670
B1126563654021N00254922WA0154601670
B1126573654020N00254922WA0155001672
B1126583654018N00254919WA0155201675
B1126593654016N00254915WA0155401677
B1127003654013N00254911WA0155601679
B1127013654011N00254908WA0155901682
B1127023654009N00254903WA0156401684
B1127033654009N00254898WA0156601688
B1127043654009N00254891WA0156901691
B1127053654011N00254884WA0157101694
B1127063654014N00254877WA0157301700
B1127073654017N00254872WA0157801706
B1127083654020N00254868WA0158101711
B1127093654025N00254865WA0158301715
B1127103654031N00254863WA0158101717
B1127113654038N00254862WA0158201720
B1127123654044N00254863WA0158501723
B1127133654050N00254866WA0159001726
B1127143654054N00254870WA0159201728
B1127153654056N00254874WA0159501731
B1127163654058N00254879WA0159601734
B1127173654058N00254884WA0159701736
B1127183654057N00254889WA0159801737
B1127193654054N00254894WA0159801739
B1127203654050N00254897WA0160101741
B1127213654045N00254899WA0160401743
B1127223654041N00254899WA0160801748
B1127233654038N00254897WA0161201752
B1127243654036N00254894WA0161501756
B1127253654033N00254890WA0161801759
B1127263654031N00254886WA0162101762
B1127273654029N00254881WA0162201765
B1127283654028N00254874WA0162401767
B1127293654028N00254866WA0162601769
B1127303654029N00254859WA0162801770
B1127313654032N00254852WA0162901772
B1127323654036N00254845WA0162801774
B1127333654041N00254840WA0163101775
B1127343654046N00254835WA0163701778
B1127353654050N00254830WA0164001781
B1127363654055N00254826WA0164401785
B1127373654060N00254824WA0164601788
B1127383654065N00254825WA0164701789
B1127393654071N00254826WA0164701790
B1127403654077N00254829WA0164901791
B1127413654081N00254832WA0165101793
B1127423654083N00254837WA0165401791
B1127433654084N00254842WA0165501792
B1127443654084N00254848WA0165501792
B1127453654083N00254853WA0165701793
B1127463654081N00254858WA0165901795
B1127473654079N00254863WA0166201798
B1127483654076N00254867WA0166501801
B1127493654073N00254871WA0166901804
B1127503654069N00254873WA0167201807
B1127513654067N00254874WA0167501811
B1127523654065N00254872WA0167701815
B1127533654062N00254870WA0167801818
B1127543654059N00254866WA0167501820
B1127553654054N00254862WA0167301820
B1127563654051N00254858WA0167401821
B1127573654048N00254855WA0168001824
B1127583654046N00254851WA0168201825
B1127593654043N00254847WA0168301827
B1128003654040N00254841WA0168101827
B1128013654037N00254835WA0168001827
B1128023654035N00254828WA0168101827
B1128033654033N00254822WA0168301828
B1128043654031N00254816WA0168701830
B1128053654031N00254811WA0168901832
B1128063654031N00254806WA0169001833
B1128073654033N00254800WA0169001834
B1128083654036N00254794WA0168801831
B1128093654040N00254788WA0168501831
B1128103654045N00254781WA0168501830
B1128113654049N00254775WA0168701829
B1128123654055N00254770WA0169001830
B1128133654060N00254766WA0169301831
B1128143654065N00254763WA0169501832
B1128153654071N00254760WA0169801834
B1128163654076N00254758WA0170101837
B1128173654081N00254757WA0170301839
B1128183654085N00254758WA0170401841
B1128193654090N00254762WA0170401841
B1128203654093N00254767WA0170401841
B1128213654094N00254774WA0170601843
B1128223654093N00254780WA0170901845
B1128233654091N00254784WA0171301850
B1128243654088N00254786WA0171601855
B1128253654085N00254786WA0172001859
B1128263654082N00254786WA0172301862
B1128273654078N00254784WA0172401864
B1128283654073N00254782WA0172301865
B1128293654068N00254779WA0172401867
B1128303654064N00254775WA0172601868
B1128313654062N00254770WA0172901870
B1128323654060N00254764WA0173201873
B1128333654059N00254759WA0173301875
B1128343654057N00254753WA0173401877
B1128353654056N00254746WA0172901877
B1128363654056N00254738WA0173001878
B1128373654058N00254731WA0173101879
B1128383654060N00254725WA0173501879
B1128393654063N00254719WA0173501880
B1128403654066N00254713WA0173601880
B1128413654069N00254707WA0173601880
B1128423654074N00254703WA0173701881
B1128433654079N00254701WA0173701882
B1128443654084N00254703WA0173701882
B1128453654089N00254706WA0173801882
B1128463654092N00254710WA0174001883
B1128473654093N00254715WA0174101884
B1128483654091N00254719WA0174301884
B1128493654088N00254723WA0174401886
B1128503654084N00254724WA0174601888
B1128513654080N00254724WA0174901889
B1128523654076N00254723WA0175101891
B1128533654073N00254719WA0175301893
B1128543654070N00254714WA0175501895
B1128553654069N00254709WA0175501897
B1128563654067N00254703WA0175401898
B1128573654066N00254695WA0175301897
B1128583654063N00254687WA0175101897
B1128593654061N00254681WA0175301897
B1129003654058N00254675WA0175301898
B1129013654056N00254670WA0175101897
B1129023654054N00254664WA0175001896
B1129033654051N00254657WA0174701893
B1129043654048N00254651WA0174301891
B1129053654044N00254645WA0174001888
B1129063654040N00254639WA0173801886
B1129073654037N00254634WA0173601884
B1129083654034N00254629WA0173501882
B1129093654032N00254623WA0173301880
B1129103654030N00254616WA0173101878
B1129113654027N00254610WA0172801876
B1129123654025N00254604WA0172601874
B1129133654023N00254598WA0172501872
B1129143654021N00254591WA0172301870
B1129153654020N00254585WA0172001868
B1129163654020N00254579WA0171901866
B1129173654019N00254573WA0171801864
B1129183654019N00254567WA0171601862
B1129193654018N00254560WA0171401860
B1129203654017N00254554WA0171201858
B1129213654014N00254548WA0171001856
B1129223654011N00254543WA0170801854
B1129233654008N00254538WA0170601852
B1129243654005N00254534WA0170501851
B1129253654001N00254529WA0170401849
B1129263653998N00254526WA0170201848
B1129273653993N00254523WA0170001846
B1129283653989N00254519WA0169801844
B1129293653986N00254515WA0169701842
B1129303653982N00254510WA0169501840
B1129313653979N00254505WA0169401839
B1129323653976N00254500WA0169301837
B1129333653973N00254495WA0169201836
B1129343653970N00254490WA0169001834
B1129353653967N00254485WA0168801833
B1129363653965N00254480WA0168701832
B1129373653962N00254475WA0168301830
B1129383653960N00254469WA0168001828
B1129393653958N00254464WA0167901826
B1129403653956N00254458WA0167701825
B1129413653954N00254453WA0167601823
B1129423653952N00254447WA0167301822
B1129433653950N00254440WA0167301820
B1129443653948N00254434WA0167301818
B1129453653945N00254429WA0167101817
B1129463653943N00254424WA0167101817
B1129473653940N00254420WA0166901815
B1129483653938N00254416WA0166701814
B1129493653935N00254411WA0166501812
B1129503653932N00254405WA0166301810
B1129513653930N00254399WA0166301808
B1129523653928N00254393WA0166201807
B1129533653927N00254388WA0166101807
B1129543653925N00254383WA0166001806
B1129553653925N00254377WA0165801805
B1129563653925N00254370WA0165701803
B1129573653927N00254364WA0165501802
B1129583653930N00254358WA0165401800
B1129593653934N00254353WA0165301799
B1130003653938N00254348WA0165301798
B1130013653943N00254344WA0165201797
B1130023653947N00254339WA0165101796
B1130033653952N00254335WA0165001795
B1130043653956N00254330WA0165001795
B1130053653961N00254327WA0165001795
B1130063653965N00254324WA0164801794
B1130073653971N00254321WA0164701793
B1130083653977N00254319WA0164601791
B1130093653983N00254316WA0164601790
B1130103653988N00254314WA0164601790
B1130113653994N00254313WA0164401790
B1130123653999N00254312WA0164201789
B1130133654005N00254311WA0164001788
B1130143654010N00254311WA0163701787
B1130153654016N00254311WA0163801786
B1130163654022N00254310WA0163701785
B1130173654028N00254311WA0163701784
B1130183654034N00254312WA0163501782
B1130193654040N00254314WA0163301780
B1130203654046N00254315WA0163101779
B1130213654052N00254318WA0163001777
B1130223654057N00254322WA0162801775
B1130233654062N00254326WA0162701774
B1130243654067N00254331WA0162701773
B1130253654072N00254336WA0162601772
B1130263654076N00254341WA0162401770
B1130273654080N00254346WA0161901769
B1130283654083N00254353WA0161601766
B1130293654086N00254360WA0161401764
B1130303654088N00254366WA0161401762
B1130313654091N00254371WA0161301761
B1130323654094N00254376WA0161201760
B1130333654097N00254382WA0160901758
B1130343654099N00254389WA0160601755
B1130353654100N00254396WA0160401752
B1130363654102N00254403WA0160401750
B1130373654102N00254410WA0160301749
B1130383654103N00254416WA0160201748
B1130393654104N00254422WA0160001746
B1130403654104N00254429WA0159701744
B1130413654104N00254436WA0159101741
B1130423654104N00254443WA0158901739
B1130433654104N00254450WA0158701736
B1130443654104N00254458WA0158501734
B1130453654104N00254465WA0158501732
B1130463654104N00254471WA0158301730
B1130473654103N00254478WA0158301728
B1130483654102N00254485WA0157901727
B1130493654101N00254492WA0157501725
B1130503654101N00254498WA0157401723
B1130513654102N00254505WA0157301721
B1130523654102N00254511WA0157101719
B1130533654103N00254518WA0156801717
B1130543654103N00254526WA0156501715
B1130553654103N00254533WA0156601712
B1130563654103N00254541WA0156601711
B1130573654104N00254547WA0156501710
B1130583654104N00254554WA0156401709
B1130593654105N00254561WA0156201708
B1131003654106N00254567WA0156001706
B1131013654106N00254575WA0155801704
B1131023654107N00254582WA0155601702
B1131033654109N00254589WA0155501700
B1131043654110N00254596WA0155401698
B1131053654111N00254602WA0155201697
B1131063654113N00254609WA0154901695
B1131073654115N00254616WA0154601693
B1131083654117N00254622WA0154401691
B1131093654119N00254629WA0154201690
B1131103654121N00254636WA0154101688
B1131113654122N00254643WA0154101687
B1131123654124N00254650WA0154001685
B1131133654126N00254656WA0153801683
B1131143654129N00254663WA0153501682
B1131153654132N00254669WA0153401680
B1131163654135N00254675WA0153301678
B1131173654137N00254681WA0153101676
B1131183654139N00254687WA0152901674
B1131193654142N00254693WA0152701673
B1131203654144N00254700WA0152701671
B1131213654148N00254707WA0152601669
B1131223654151N00254714WA0152501668
B1131233654154N00254719WA0152601669
B1131243654158N00254724WA0152701670
B1131253654162N00254727WA0152701670
B1131263654166N00254731WA0152601669
B1131273654170N00254735WA0152101668
B1131283654175N00254741WA0152001667
B1131293654180N00254746WA0152001666
B1131303654185N00254749WA0152201667
B1131313654189N00254752WA0152401668
B1131323654194N00254755WA0152201668
B1131333654199N00254759WA0151901667
B1131343654204N00254764WA0151701665
B1131353654209N00254769WA0151601664
B1131363654215N00254773WA0151801664
B1131373654220N00254777WA0152101664
B1131383654225N00254779WA0152401664
B1131393654231N00254782WA0152501666
B1131403654237N00254783WA0152501666
B1131413654245N00254782WA0152501666
B1131423654252N00254779WA0152601666
B1131433654258N00254774WA0152701668
B1131443654263N00254770WA0152801669
B1131453654267N00254765WA0152901670
B1131463654269N00254761WA0152701670
B1131473654271N00254755WA0152501670
B1131483654271N00254748WA0152201669
B1131493654270N00254742WA0152101669
B1131503654268N00254736WA0152101669
B1131513654266N00254731WA0152101669
B1131523654263N00254726WA0152101669
B1131533654261N00254723WA0152101669
B1131543654258N00254719WA0152101668
B1131553654255N00254716WA0152001668
B1131563654253N00254713WA0152201668
B1131573654251N00254710WA0152201668
B1131583654248N00254707WA0152001667
B1131593654245N00254706WA0151701666
B1132003654241N00254704WA0151301663
B1132013654237N00254704WA0151201661
B1132023654233N00254705WA0151201660
B1132033654230N00254707WA0151301660
B1132043654228N00254709WA0151201659
B1132053654225N00254712WA0151101657
B1132063654223N00254715WA0150701656
B1132073654220N00254718WA0150501654
B1132083654216N00254720WA0150601652
B1132093654214N00254723WA0150901654
B1132103654211N00254725WA0151201655
B1132113654210N00254727WA0151301657
B1132123654209N00254730WA0151501658
B1132133654209N00254734WA0151801659
B1132143654210N00254739WA0151901659
B1132153654214N00254744WA0152101661
B1132163654219N00254746WA0152201662
B1132173654226N00254746WA0152301663
B1132183654232N00254743WA0152401664
B1132193654236N00254739WA0152601666
B1132203654238N00254733WA0152501666
B1132213654239N00254727WA0152001666
B1132223654238N00254721WA0151801666
B1132233654237N00254716WA0151801666
B1132243654234N00254711WA0151701666
B1132253654231N00254708WA0151601665
B1132263654227N00254706WA0151701664
B1132273654224N00254706WA0152101665
B1132283654221N00254707WA0152501666
B1132293654219N00254708WA0152701667
B1132303654217N00254709WA0152701668
B1132313654214N00254709WA0152601669
B1132323654211N00254709WA0152301669
B1132333654208N00254711WA0152401669
B1132343654207N00254713WA0152501669
B1132353654204N00254716WA0152801670
B1132363654202N00254720WA0153101672
B1132373654201N00254724WA0153501676
B1132383654201N00254728WA0153701678
B1132393654202N00254734WA0153801680
B1132403654205N00254739WA0153701681
B1132413654209N00254744WA0153301680
B1132423654215N00254746WA0153001680
B1132433654221N00254747WA0153001680
B1132443654228N00254744WA0153001679
B1132453654234N00254740WA0153001678
B1132463654240N00254735WA0153101677
B1132473654245N00254728WA0153201676
B1132483654249N00254722WA0153201676
B1132493654253N00254715WA0153301676
B1132503654255N00254707WA0153501676
B1132513654256N00254701WA0153701677
B1132523654255N00254695WA0153701678
B1132533654254N00254691WA0153601678
B1132543654250N00254687WA0153001676
B1132553654247N00254686WA0152701673
B1132563654243N00254687WA0152501672
B1132573654239N00254690WA0152301671
B1132583654235N00254694WA0152301669
B1132593654232N00254698WA0152501668
B1133003654229N00254701WA0152501668
B1133013654226N00254703WA0152301667
B1133023654223N00254706WA0152101666
B1133033654219N00254709WA0151701665
B1133043654216N00254713WA0151301663
B1133053654213N00254718WA0151301661
B1133063654210N00254722WA0151501660
B1133073654208N00254725WA0151501660
B1133083654206N00254729WA0151401659
B1133093654204N00254733WA0151201658
B1133103654203N00254738WA0150901657
B1133113654201N00254742WA0150601655
B1133123654199N00254747WA0150501653
B1133133654197N00254752WA0150401651
B1133143654195N00254757WA0150301651
B1133153654193N00254760WA0150401651
B1133163654191N00254763WA0150701651
B1133173654189N00254764WA0150801652
B1133183654187N00254767WA0150701651
B1133193654184N00254770WA0150601651
B1133203654182N00254773WA0150501650
B1133213654181N00254775WA0150701651
B1133223654179N00254777WA0150701652
B1133233654176N00254778WA0150601652
B1133243654174N00254779WA0150501652
B1133253654171N00254779WA0150401651
B1133263654168N00254779WA0150301650
B1133273654165N00254779WA0150201649
B1133283654161N00254778WA0150301648
B1133293654158N00254778WA0150001647
B1133303654155N00254780WA0150001646
B1133313654153N00254782WA0149901646
B1133323654150N00254783WA0150001645
B1133333654148N00254785WA0149901645
B1133343654145N00254786WA0150001645
B1133353654142N00254787WA0150001644
B1133363654140N00254788WA0150001644
B1133373654137N00254790WA0150001644
B1133383654134N00254794WA0149801643
B1133393654130N00254798WA0149701643
B1133403654127N00254803WA0149801642
B1133413654125N00254808WA0149901643
B1133423654123N00254813WA0150201644
B1133433654121N00254818WA0150401646
B1133443654120N00254823WA0150601647
B1133453654119N00254827WA0150801649
B1133463654119N00254832WA0151001650
B1133473654119N00254837WA0151001651
B1133483654121N00254842WA0150901650
B1133493654123N00254847WA0150901650
B1133503654126N00254852WA0150901650
B1133513654130N00254857WA0151101651
B1133523654134N00254861WA0151201652
B1133533654138N00254864WA0151201653
B1133543654142N00254867WA0151201654
B1133553654147N00254867WA0151101654
B1133563654152N00254865WA0150901653
B1133573654158N00254860WA0150301649
B1133583654164N00254854WA0150201648
B1133593654168N00254847WA0150301647
B1134003654169N00254840WA0150301646
B1134013654169N00254833WA0150401646
B1134023654167N00254827WA0150501646
B1134033654166N00254822WA0150601646
B1134043654163N00254818WA0150501646
B1134053654160N00254814WA0150401646
B1134063654156N00254812WA0150201646
B1134073654152N00254812WA0150201645
B1134083654148N00254813WA0150201645
B1134093654145N00254814WA0150401645
B1134103654141N00254816WA0150501646
B1134113654138N00254817WA0150601647
B1134123654135N00254820WA0150701648
B1134133654133N00254823WA0150701650
B1134143654131N00254826WA0150801651
B1134153654128N00254829WA0150701652
B1134163654127N00254832WA0150901652
B1134173654125N00254835WA0150901653
B1134183654124N00254839WA0150901653
B1134193654123N00254842WA0151001654
B1134203654120N00254845WA0151001654
B1134213654117N00254846WA0151001654
B1134223654113N00254847WA0150901654
B1134233654110N00254848WA0150901654
B1134243654107N00254851WA0150901654
B1134253654105N00254854WA0151001655
B1134263654104N00254859WA0151101655
B1134273654102N00254862WA0151201655
B1134283654100N00254865WA0151201656
B1134293654098N00254867WA0151201655
B1134303654096N00254870WA0151201655
B1134313654093N00254875WA0151201656
B1134323654091N00254881WA0151401656
B1134333654091N00254888WA0151701658
B1134343654092N00254894WA0152101661
B1134353654095N00254900WA0152501664
B1134363654100N00254905WA0152601667
B1134373654106N00254910WA0152801668
B1134383654113N00254912WA0152901670
B1134393654120N00254912WA0152901670
B1134403654125N00254909WA0152901671
B1134413654129N00254905WA0152901671
B1134423654132N00254899WA0152901671
B1134433654132N00254892WA0152401671
B1134443654131N00254886WA0152401671
B1134453654129N00254882WA0152501671
B1134463654126N00254880WA0152401670
B1134473654123N00254879WA0152301670
B1134483654119N00254879WA0152301669
B1134493654115N00254880WA0152601669
B1134503654111N00254881WA0152901670
B1134513654108N00254883WA0153201673
B1134523654105N00254886WA0153701677
B1134533654103N00254891WA0154101681
B1134543654103N00254897WA0154501685
B1134553654103N00254903WA0155001688
B1134563654106N00254909WA0155401692
B1134573654109N00254915WA0155801696
B1134583654114N00254919WA0156101699
B1134593654121N00254921WA0156401703
B1135003654127N00254922WA0156801706
B1135013654133N00254921WA0157201710
B1135023654138N00254917WA0157301713
B1135033654140N00254912WA0157401716
B1135043654141N00254905WA0157201717
B1135053654141N00254899WA0157301719
B1135063654140N00254895WA0157501721
B1135073654138N00254893WA0157901723
B1135083654136N00254892WA0158101724
B1135093654132N00254891WA0158201725
B1135103654129N00254891WA0158401726
B1135113654125N00254891WA0158701728
B1135123654122N00254894WA0159201731
B1135133654120N00254898WA0159601735
B1135143654119N00254903WA0160001738
B1135153654120N00254910WA0160401742
B1135163654122N00254917WA0160801745
B1135173654125N00254923WA0161301749
B1135183654129N00254927WA0161701754
B1135193654134N00254930WA0162101759
B1135203654141N00254931WA0162501762
B1135213654148N00254931WA0162701765
B1135223654154N00254928WA0163001767
B1135233654159N00254924WA0163301771
B1135243654162N00254918WA0163501774
B1135253654163N00254912WA0163601777
B1135263654164N00254906WA0163701779
B1135273654163N00254901WA0163801780
B1135283654162N00254898WA0163901782
B1135293654159N00254895WA0163801783
B1135303654157N00254892WA0163801783
B1135313654153N00254890WA0163901784
B1135323654150N00254888WA0164101785
B1135333654145N00254887WA0164401787
B1135343654141N00254887WA0164701789
B1135353654136N00254888WA0165201792
B1135363654132N00254891WA0165701797
B1135373654129N00254894WA0166301803
B1135383654128N00254898WA0166701807
B1135393654128N00254904WA0167101811
B1135403654129N00254910WA0167401814
B1135413654131N00254916WA0167801818
B1135423654135N00254920WA0168101821
B1135433654140N00254923WA0168501824
B1135443654146N00254924WA0168801827
B1135453654152N00254923WA0169101830
B1135463654157N00254921WA0169501834
B1135473654162N00254917WA0169701838
B1135483654165N00254912WA0170001841
B1135493654166N00254905WA0170201843
B1135503654166N00254899WA0170501846
B1135513654164N00254893WA0170701848
B1135523654161N00254890WA0171001851
B1135533654157N00254889WA0171201854
B1135543654153N00254890WA0171501856
B1135553654148N00254892WA0171801858
B1135563654145N00254896WA0172201862
B1135573654143N00254901WA0172701866
B1135583654143N00254906WA0173101870
B1135593654145N00254911WA0173201873
B1136003654147N00254916WA0173501875
B1136013654151N00254920WA0173701877
B1136023654156N00254924WA0174001879
B1136033654162N00254926WA0174301882
B1136043654167N00254927WA0174601885
B1136053654173N00254926WA0174901889
B1136063654177N00254923WA0175101892
B1136073654181N00254919WA0175301894
B1136083654183N00254913WA0175401894
B1136093654184N00254907WA0175601896
B1136103654182N00254900WA0175801897
B1136113654179N00254896WA0176001899
B1136123654174N00254894WA0176101901
B1136133654170N00254892WA0176401903
B1136143654166N00254892WA0176501906
B1136153654162N00254893WA0176701908
B1136163654158N00254896WA0176901910
B1136173654154N00254901WA0177001911
B1136183654152N00254908WA0177201911
B1136193654151N00254914WA0177301912
B1136203654152N00254920WA0177501914
B1136213654154N00254925WA0177501915
B1136223654159N00254928WA0177501916
B1136233654164N00254928WA0177501916
B1136243654169N00254925WA0177801917
B1136253654174N00254921WA0178301921
B1136263654177N00254916WA0178701925
B1136273654177N00254911WA0179001929
B1136283654176N00254906WA0178901932
B1136293654175N00254900WA0178901934
B1136303654173N00254893WA0179301936
B1136313654169N00254888WA0179501938
B1136323654165N00254883WA0179601940
B1136333654160N00254880WA0179701940
B1136343654154N00254879WA0179701940
B1136353654148N00254880WA0179801941
B1136363654143N00254882WA0179701942
B1136373654139N00254886WA0179401942
B1136383654136N00254891WA0179101941
B1136393654134N00254896WA0179101941
B1136403654133N00254901WA0179001941
B1136413654134N00254907WA0178701940
B1136423654136N00254913WA0178501939
B1136433654139N00254919WA0178401937
B1136443654144N00254924WA0178201933
B1136453654149N00254928WA0178001930
B1136463654155N00254930WA0177901928
B1136473654161N00254931WA0177801926
B1136483654168N00254929WA0177701924
B1136493654176N00254927WA0177701923
B1136503654182N00254923WA0178101925
B1136513654187N00254918WA0178701933
B1136523654190N00254913WA0179101938
B1136533654192N00254906WA0179501941
B1136543654193N00254898WA0179901945
B1136553654193N00254891WA0180301948
B1136563654190N00254885WA0180601952
B1136573654186N00254881WA0180701954
B1136583654182N00254877WA0180801956
B1136593654177N00254874WA0180901957
B1137003654173N00254873WA0180801957
B1137013654168N00254875WA0180601956
B1137023654164N00254880WA0180401954
B1137033654162N00254886WA0180201952
B1137043654162N00254892WA0180301951
B1137053654164N00254896WA0180301950
B1137063654167N00254899WA0180101950
B1137073654171N00254901WA0179901948
B1137083654177N00254904WA0179601946
B1137093654183N00254908WA0179601944
B1137103654188N00254910WA0179801945
B1137113654193N00254910WA0180001946
B1137123654199N00254909WA0180301948
B1137133654205N00254907WA0180501948
B1137143654211N00254905WA0180701949
B1137153654217N00254901WA0181001952
B1137163654222N00254897WA0181401955
B1137173654224N00254892WA0181801959
B1137183654225N00254886WA0182101962
B1137193654223N00254880WA0182301965
B1137203654221N00254874WA0182401967
B1137213654218N00254868WA0182501969
B1137223654214N00254864WA0182701970
B1137233654208N00254861WA0182901971
B1137243654203N00254860WA0183201972
B1137253654200N00254860WA0183501976
B1137263654197N00254862WA0183601979
B1137273654195N00254866WA0183701981
B1137283654194N00254871WA0183801981
B1137293654193N00254877WA0183701981
B1137303654195N00254883WA0183901982
B1137313654199N00254888WA0184101983
B1137323654204N00254891WA0184201985
B1137333654210N00254893WA0184501987
B1137343654216N00254893WA0184701989
B1137353654222N00254892WA0184901993
B1137363654227N00254890WA0185101995
B1137373654232N00254887WA0185301997
B1137383654237N00254883WA0185601998
B1137393654242N00254879WA0185602000
B1137403654245N00254875WA0185902002
B1137413654248N00254870WA0186002004
B1137423654249N00254865WA0186102005
B1137433654250N00254859WA0186002005
B1137443654249N00254852WA0185902004
B1137453654248N00254845WA0185402002
B1137463654247N00254838WA0185702002
B1137473654246N00254832WA0185902002
B1137483654245N00254826WA0186002003
B1137493654244N00254820WA0186002004
B1137503654242N00254814WA0186202005
B1137513654238N00254809WA0186202005
B1137523654233N00254806WA0186202005
B1137533654228N00254806WA0186202005
B1137543654223N00254807WA0186102005
B1137553654219N00254810WA0186102005
B1137563654216N00254814WA0186402006
B1137573654215N00254817WA0186402007
B1137583654215N00254822WA0186402008
B1137593654215N00254827WA0186102007
B1138003654215N00254834WA0185802007
B1138013654215N00254840WA0186202007
B1138023654217N00254845WA0187002011
B1138033654220N00254848WA0187302015
B1138043654224N00254850WA0187502018
B1138053654229N00254852WA0187702020
B1138063654234N00254852WA0187702021
B1138073654240N00254852WA0187902023
B1138083654245N00254851WA0188102025
B1138093654251N00254848WA0188102026
B1138103654257N00254845WA0188202027
B1138113654263N00254841WA0188202027
B1138123654268N00254837WA0188302027
B1138133654273N00254831WA0188202027
B1138143654277N00254826WA0188202027
B1138153654281N00254819WA0188302027
B1138163654285N00254813WA0188302027
B1138173654289N00254805WA0188402027
B1138183654293N00254797WA0188602028
B1138193654295N00254789WA0188702030
B1138203654295N00254782WA0188802031
B1138213654294N00254775WA0188802032
B1138223654292N00254769WA0188502032
B1138233654289N00254763WA0188302031
B1138243654284N00254760WA0188302031
B1138253654278N00254759WA0188202029
B1138263654271N00254760WA0188102026
B1138273654266N00254764WA0188102025
B1138283654262N00254768WA0188302026
B1138293654260N00254773WA0188502029
B1138303654259N00254776WA0188702030
B1138313654259N00254780WA0188702031
B1138323654258N00254785WA0188502032
B1138333654257N00254791WA0188302032
B1138343654256N00254797WA0188002029
B1138353654256N00254803WA0187702027
B1138363654256N00254808WA0187902028
B1138373654257N00254813WA0188202028
B1138383654258N00254817WA0188502030
B1138393654259N00254821WA0188702031
B1138403654261N00254826WA0188902033
B1138413654265N00254829WA0189102035
B1138423654270N00254832WA0189302037
B1138433654275N00254834WA0189502039
B1138443654282N00254833WA0189702041
B1138453654289N00254831WA0189702042
B1138463654296N00254826WA0190002043
B1138473654302N00254820WA0190202045
B1138483654306N00254813WA0190502046
B1138493654307N00254806WA0190602049
B1138503654307N00254799WA0190702050
B1138513654306N00254791WA0190702051
B1138523654305N00254785WA0190902052
B1138533654302N00254780WA0191002053
B1138543654299N00254777WA0191002054
B1138553654295N00254776WA0190902054
B1138563654290N00254776WA0191002055
B1138573654286N00254778WA0191102055
B1138583654284N00254781WA0191302057
B1138593654283N00254783WA0191502059
B1139003654282N00254786WA0191402061
B1139013654282N00254789WA0191202062
B1139023654283N00254793WA0191402062
B1139033654283N00254798WA0191202061
B1139043654284N00254803WA0191302059
B1139053654286N00254809WA0191502059
B1139063654288N00254814WA0191902061
B1139073654291N00254818WA0192202064
B1139083654293N00254820WA0192502068
B1139093654297N00254822WA0192702071
B1139103654301N00254823WA0192802072
B1139113654306N00254822WA0193002073
B1139123654311N00254820WA0193202075
B1139133654315N00254816WA0193402078
B1139143654318N00254811WA0193602080
B1139153654319N00254805WA0193802082
B1139163654318N00254799WA0193902084
B1139173654315N00254794WA0194002085
B1139183654310N00254791WA0194002085
B1139193654304N00254791WA0194102086
B1139203654299N00254794WA0194302087
B1139213654297N00254797WA0194602090
B1139223654296N00254800WA0194802093
B1139233654296N00254803WA0194902095
B1139243654297N00254807WA0195002096
B1139253654298N00254813WA0195102096
B1139263654301N00254818WA0195102096
B1139273654305N00254822WA0195302097
B1139283654310N00254824WA0195302098
B1139293654315N00254825WA0195402099
B1139303654320N00254824WA0195602101
B1139313654325N00254823WA0195902102
B1139323654330N00254822WA0196002104
B1139333654335N00254819WA0196302107
B1139343654339N00254814WA0196402108
B1139353654342N00254807WA0196402110
B1139363654343N00254799WA0196602110
B1139373654342N00254792WA0196702111
B1139383654339N00254785WA0196702112
B1139393654336N00254781WA0196602113
B1139403654332N00254777WA0196402113
B1139413654327N00254776WA0196502114
B1139423654322N00254776WA0196702114
B1139433654317N00254778WA0196902113
B1139443654312N00254782WA0196902114
B1139453654309N00254785WA0197102115
B1139463654307N00254789WA0197102117
B1139473654306N00254793WA0197302118
B1139483654305N00254798WA0197402119
B1139493654305N00254802WA0197602120
B1139503654306N00254806WA0197802122
B1139513654307N00254809WA0198002124
B1139523654310N00254812WA0198002125
B1139533654313N00254816WA0197602125
B1139543654317N00254819WA0197602125
B1139553654321N00254822WA0197702126
B1139563654326N00254824WA0198002126
B1139573654332N00254824WA0198002126
B1139583654338N00254822WA0198102125
B1139593654343N00254818WA0198202127
B1140003654347N00254814WA0198602131
B1140013654350N00254808WA0198802133
B1140023654352N00254803WA0198902134
B1140033654355N00254797WA0198902135
B1140043654358N00254790WA0198902136
B1140053654360N00254784WA0199102137
B1140063654361N00254778WA0199202138
B1140073654361N00254772WA0199302139
B1140083654360N00254765WA0199302139
B1140093654357N00254759WA0199102139
B1140103654354N00254754WA0199002139
B1140113654350N00254749WA0198902138
B1140123654346N00254744WA0199002137
B1140133654342N00254741WA0199002137
B1140143654337N00254738WA0198902138
B1140153654333N00254736WA0198602137
B1140163654328N00254735WA0198502137
B1140173654324N00254737WA0198502136
B1140183654321N00254741WA0198602135
B1140193654319N00254746WA0198402132
B1140203654319N00254752WA0198102130
B1140213654319N00254757WA0198002129
B1140223654321N00254762WA0198002128
B1140233654323N00254767WA0197902127
B1140243654327N00254771WA0197902126
B1140253654333N00254775WA0197802125
B1140263654339N00254777WA0197802124
B1140273654346N00254776WA0197702124
B1140283654353N00254774WA0197702124
B1140293654359N00254771WA0197802124
B1140303654363N00254766WA0197802125
B1140313654367N00254761WA0198002126
B1140323654369N00254756WA0198002127
B1140333654371N00254750WA0198002127
B1140343654372N00254744WA0197802127
B1140353654374N00254738WA0197402126
B1140363654375N00254731WA0197202125
B1140373654377N00254724WA0197002124
B1140383654379N00254717WA0196902122
B1140393654381N00254710WA0196702121
B1140403654384N00254703WA0196502118
B1140413654387N00254696WA0196402116
B1140423654389N00254689WA0196202113
B1140433654391N00254682WA0195902110
B1140443654392N00254674WA0195602107
B1140453654393N00254666WA0195302103
B1140463654393N00254658WA0194902100
B1140473654394N00254650WA0194602097
B1140483654394N00254641WA0194402094
B1140493654395N00254633WA0194302091
B1140503654395N00254625WA0194202089
B1140513654396N00254618WA0194102088
B1140523654397N00254611WA0193902086
B1140533654397N00254604WA0193702084
B1140543654398N00254596WA0193402081
B1140553654398N00254587WA0193102078
B1140563654398N00254579WA0192902076
B1140573654399N00254573WA0193002076
B1140583654400N00254567WA0192902076
B1140593654402N00254562WA0192702074
B1141003654403N00254556WA0192102073
B1141013654405N00254549WA0191902071
B1141023654408N00254542WA0191902069
B1141033654411N00254536WA0191902068
B1141043654415N00254532WA0191902067
B1141053654419N00254528WA0191802066
B1141063654424N00254523WA0191502064
B1141073654428N00254517WA0191202063
B1141083654433N00254511WA0191102061
B1141093654436N00254505WA0191002058
B1141103654439N00254500WA0190802057
B1141113654443N00254495WA0190702056
B1141123654447N00254490WA0190502054
B1141133654452N00254484WA0190302051
B1141143654456N00254478WA0190102049
B1141153654460N00254471WA0190002047
B1141163654463N00254465WA0190102047
B1141173654466N00254459WA0190102047
B1141183654469N00254454WA0190002047
B1141193654472N00254448WA0189702045
B1141203654474N00254441WA0189502042
B1141213654477N00254433WA0189202039
B1141223654480N00254426WA0188902036
B1141233654482N00254419WA0188802035
B1141243654485N00254413WA0188702033
B1141253654488N00254407WA0188402031
B1141263654491N00254401WA0187902028
B1141273654495N00254393WA0187102024
B1141283654498N00254384WA0186602020
B1141293654502N00254374WA0186602016
B1141303654505N00254365WA0186502013
B1141313654508N00254357WA0186802012
B1141323654510N00254351WA0187102014
B1141333654512N00254348WA0187302016
B1141343654514N00254343WA0187302016
B1141353654516N00254338WA0187002016
B1141363654519N00254331WA0186702013
B1141373654522N00254323WA0186602011
B1141383654525N00254317WA0186702011
B1141393654527N00254313WA0186902012
B1141403654529N00254308WA0186902012
B1141413654531N00254303WA0186802012
B1141423654532N00254298WA0186502011
B1141433654535N00254292WA0186302009
B1141443654538N00254286WA0186202008
B1141453654541N00254281WA0186302007
B1141463654543N00254276WA0186402008
B1141473654545N00254272WA0186302008
B1141483654547N00254267WA0186102007
B1141493654550N00254262WA0185902005
B1141503654553N00254256WA0185602004
B1141513654556N00254250WA0185302002
B1141523654559N00254244WA0185102001
B1141533654562N00254238WA0185101999
B1141543654565N00254231WA0185001998
B1141553654568N00254224WA0184901997
B1141563654570N00254218WA0184901996
B1141573654573N00254211WA0184701995
B1141583654575N00254204WA0184501993
B1141593654577N00254197WA0184301992
B1142003654579N00254190WA0184301990
B1142013654581N00254182WA0184101988
B1142023654583N00254175WA0183901987
B1142033654584N00254168WA0183801985
B1142043654586N00254162WA0183701984
B1142053654586N00254155WA0183501983
B1142063654587N00254148WA0183301981
B1142073654588N00254141WA0182901979
B1142083654589N00254133WA0182401976
B1142093654591N00254125WA0182401973
B1142103654592N00254117WA0182501972
B1142113654594N00254109WA0182401970
B1142123654595N00254102WA0182501969
B1142133654597N00254095WA0182201968
B1142143654600N00254089WA0181901966
B1142153654602N00254082WA0181801964
B1142163654605N00254076WA0181901963
B1142173654606N00254071WA0182101963
B1142183654607N00254068WA0182201963
B1142193654608N00254064WA0181901963
B1142203654610N00254059WA0181701961
B1142213654612N00254052WA0181401958
B1142223654614N00254045WA0181401956
B1142233654615N00254040WA0181601956
B1142243654615N00254035WA0181601957
B1142253654616N00254031WA0181301956
B1142263654617N00254024WA0180701953
B1142273654618N00254016WA0180301950
B1142283654619N00254009WA0180101948
B1142293654620N00254003WA0180301946
B1142303654621N00253998WA0180301946
B1142313654623N00253993WA0180101945
B1142323654625N00253987WA0179801943
B1142333654627N00253979WA0179501940
B1142343654629N00253972WA0179401937
B1142353654631N00253966WA0179501937
B1142363654633N00253960WA0179701937
B1142373654635N00253956WA0179701937
B1142383654636N00253951WA0179501936
B1142393654638N00253946WA0179201934
B1142403654640N00253939WA0178901932
B1142413654641N00253932WA0178801930
B1142423654642N00253926WA0178701929
B1142433654644N00253921WA0178701928
B1142443654646N00253916WA0178501928
B1142453654649N00253910WA0178301925
B1142463654653N00253904WA0178101923
B1142473654656N00253898WA0178001922
B1142483654659N00253891WA0177901921
B1142493654661N00253885WA0177701921
B1142503654664N00253880WA0177601921
B1142513654667N00253874WA0177401920
B1142523654671N00253868WA0177201919
B1142533654675N00253860WA0177001916
B1142543654678N00253852WA0177101915
B1142553654681N00253846WA0177301916
B1142563654683N00253840WA0177401917
B1142573654685N00253836WA0177201917
B1142583654688N00253831WA0177001916
B1142593654692N00253825WA0176701914
B1143003654697N00253819WA0176501912
B1143013654701N00253812WA0176401910
B1143023654704N00253806WA0176501910
B1143033654707N00253800WA0176601910
B1143043654710N00253795WA0176601910
B1143053654714N00253790WA0176401910
B1143063654717N00253784WA0176001908
B1143073654720N00253778WA0175801906
B1143083654724N00253772WA0175701905
B1143093654727N00253767WA0175701904
B1143103654732N00253762WA0175601902
B1143113654737N00253758WA0175301900
B1143123654742N00253753WA0174901897
B1143133654746N00253748WA0174901895
B1143143654750N00253742WA0174901894
B1143153654753N00253736WA0174601893
B1143163654757N00253731WA0174501892
B1143173654760N00253726WA0174301891
B1143183654762N00253720WA0174101890
B1143193654763N00253713WA0173801888
B1143203654764N00253707WA0173501885
B1143213654765N00253700WA0173401883
B1143223654766N00253694WA0173201881
B1143233654765N00253688WA0173101880
B1143243654764N00253683WA0173001879
B1143253654762N00253679WA0172901877
B1143263654760N00253676WA0172701875
B1143273654758N00253672WA0172501873
B1143283654755N00253669WA0172201871
B1143293654753N00253665WA0171901868
B1143303654750N00253661WA0171801866
B1143313654749N00253657WA0171701864
B1143323654747N00253653WA0171501862
B1143333654745N00253650WA0171401860
B1143343654743N00253647WA0171201859
B1143353654740N00253645WA0171001857
B1143363654738N00253642WA0170701855
B1143373654735N00253638WA0170401853
B1143383654732N00253635WA0170201850
B1143393654729N00253633WA0170001848
B1143403654725N00253631WA0169801846
B1143413654721N00253630WA0169701844
B1143423654717N00253628WA0169701842
B1143433654713N00253626WA0169301840
B1143443654710N00253624WA0169201839
B1143453654706N00253621WA0169101837
B1143463654702N00253620WA0169001836
B1143473654697N00253618WA0168901834
B1143483654692N00253617WA0168701833
B1143493654687N00253615WA0168701832
B1143503654683N00253612WA0168701832
B1143513654679N00253609WA0168901833
B1143523654675N00253606WA0169001833
B1143533654673N00253603WA0169001833
B1143543654670N00253601WA0168901833
B1143553654666N00253598WA0168701832
B1143563654662N00253596WA0168601831
B1143573654658N00253592WA0168501830
B1143583654655N00253589WA0168601830
B1143593654652N00253585WA0168601831
B1144003654650N00253582WA0168501831
B1144013654646N00253579WA0168201830
B1144023654643N00253575WA0167801828
B1144033654640N00253571WA0167601827
B1144043654637N00253566WA0167501826
B1144053654635N00253562WA0167401824
B1144063654632N00253557WA0167201823
B1144073654629N00253553WA0167001821
B1144083654625N00253551WA0166701819
B1144093654621N00253549WA0166401817
B1144103654616N00253549WA0166301815
B1144113654612N00253547WA0166301814
B1144123654608N00253545WA0166201813
B1144133654603N00253542WA0166201812
B1144143654599N00253540WA0166101812
B1144153654595N00253538WA0166301811
B1144163654591N00253536WA0166501811
B1144173654587N00253533WA0166701812
B1144183654584N00253531WA0166801813
B1144193654581N00253530WA0166901813
B1144203654577N00253530WA0166801814
B1144213654573N00253531WA0166801814
B1144223654569N00253532WA0166701814
B1144233654565N00253529WA0166701814
B1144243654562N00253524WA0166201814
B1144253654559N00253517WA0166201813
B1144263654557N00253511WA0166401813
B1144273654554N00253506WA0166601813
B1144283654552N00253503WA0166801814
B1144293654550N00253500WA0166601814
B1144303654547N00253497WA0166201813
B1144313654544N00253493WA0165901812
B1144323654540N00253489WA0165701810
B1144333654536N00253486WA0165801809
B1144343654533N00253483WA0166001810
B1144353654530N00253483WA0166101811
B1144363654527N00253483WA0166101811
B1144373654525N00253485WA0165801811
B1144383654523N00253488WA0165601810
B1144393654521N00253493WA0165501809
B1144403654520N00253499WA0165401807
B1144413654520N00253505WA0165301806
B1144423654521N00253510WA0165501805
B1144433654523N00253515WA0165701806
B1144443654525N00253519WA0166001806
B1144453654527N00253523WA0166101807
B1144463654528N00253526WA0166201808
B1144473654527N00253529WA0166001808
B1144483654525N00253533WA0165401807
B1144493654522N00253537WA0165301807
B1144503654519N00253541WA0165401806
B1144513654517N00253543WA0165801807
B1144523654514N00253544WA0166101809
B1144533654511N00253544WA0166201810
B1144543654509N00253541WA0166001808
B1144553654506N00253536WA0165801806
B1144563654505N00253530WA0165701804
B1144573654505N00253522WA0165501802
B1144583654510N00253516WA0165401800
B1144593654518N00253513WA0165101798
B1145003654525N00253515WA0164501796
B1145013654530N00253518WA0164701796
B1145023654534N00253520WA0165101797
B1145033654537N00253523WA0165201798
B1145043654539N00253526WA0165201798
B1145053654542N00253530WA0164901797
B1145063654544N00253534WA0164701796
B1145073654546N00253540WA0164701795
B1145083654548N00253545WA0164701795
B1145093654551N00253550WA0164601794
B1145103654553N00253554WA0164601794
B1145113654554N00253559WA0164601794
B1145123654553N00253563WA0164401793
B1145133654552N00253567WA0164201792
B1145143654551N00253572WA0164101791
B1145153654551N00253577WA0163901790
B1145163654552N00253583WA0163801788
B1145173654553N00253589WA0163901788
B1145183654555N00253594WA0164001789
B1145193654557N00253599WA0164201790
B1145203654559N00253604WA0164101790
B1145213654560N00253610WA0163801789
B1145223654561N00253616WA0163601787
B1145233654561N00253622WA0163401785
B1145243654560N00253628WA0163201784
B1145253654559N00253633WA0163401783
B1145263654559N00253637WA0163601783
B1145273654560N00253641WA0163601783
B1145283654562N00253646WA0163401782
B1145293654564N00253650WA0163401782
B1145303654565N00253655WA0163401781
B1145313654563N00253658WA0163301780
B1145323654559N00253660WA0162901779
B1145333654555N00253660WA0162801778
B1145343654551N00253658WA0163001777
B1145353654548N00253657WA0163201777
B1145363654544N00253657WA0163501778
B1145373654542N00253658WA0163601779
B1145383654540N00253659WA0163701781
B1145393654537N00253662WA0163601782
B1145403654535N00253666WA0163601782
B1145413654534N00253671WA0163701782
B1145423654534N00253677WA0164001783
B1145433654536N00253682WA0164201785
B1145443654540N00253685WA0164301787
B1145453654544N00253687WA0164401788
B1145463654549N00253688WA0164501789
B1145473654556N00253689WA0164201789
B1145483654563N00253685WA0163801786
B1145493654569N00253680WA0163701786
B1145503654573N00253671WA0163801786
B1145513654575N00253663WA0164101787
B1145523654575N00253656WA0164401787
B1145533654575N00253650WA0164601788
B1145543654573N00253645WA0164601789
B1145553654570N00253642WA0164601789
B1145563654566N00253640WA0164501789
B1145573654562N00253640WA0164601789
B1145583654558N00253641WA0164601789
B1145593654555N00253643WA0164701790
B1146003654554N00253645WA0164901792
B1146013654553N00253647WA0165001792
B1146023654552N00253650WA0165101793
B1146033654553N00253654WA0165101794
B1146043654555N00253659WA0165101794
B1146053654558N00253663WA0165201793
B1146063654563N00253667WA0165301794
B1146073654569N00253670WA0165401795
B1146083654575N00253671WA0165501796
B1146093654582N00253670WA0165601797
B1146103654589N00253666WA0165601798
B1146113654594N00253659WA0165101798
B1146123654597N00253651WA0165101798
B1146133654598N00253644WA0165201799
B1146143654599N00253638WA0165401799
B1146153654599N00253632WA0165401800
B1146163654598N00253627WA0165501800
B1146173654597N00253623WA0165401801
B1146183654594N00253619WA0165101800
B1146193654591N00253615WA0164901800
B1146203654587N00253614WA0164901800
B1146213654584N00253612WA0164801800
B1146223654582N00253612WA0164901800
B1146233654579N00253611WA0164801800
B1146243654576N00253611WA0164601800
B1146253654573N00253611WA0164601800
B1146263654570N00253611WA0164401799
B1146273654567N00253612WA0164401799
B1146283654564N00253613WA0164401798
B1146293654562N00253614WA0164601798
B1146303654560N00253615WA0164801799
B1146313654558N00253616WA0165001800
B1146323654556N00253617WA0165301802
B1146333654554N00253618WA0165501804
B1146343654553N00253620WA0165701806
B1146353654551N00253621WA0165901807
B1146363654548N00253624WA0166001809
B1146373654546N00253627WA0166201810
B1146383654545N00253630WA0166201811
B1146393654545N00253635WA0166301812
B1146403654547N00253640WA0166401812
B1146413654549N00253644WA0166401812
B1146423654553N00253648WA0166401812
B1146433654557N00253651WA0166501812
B1146443654562N00253653WA0166701812
B1146453654568N00253653WA0166701813
B1146463654574N00253651WA0166801813
B1146473654580N00253646WA0166901814
B1146483654585N00253640WA0167001815
B1146493654589N00253632WA0167201817
B1146503654591N00253625WA0167401818
B1146513654592N00253617WA0167601819
B1146523654591N00253610WA0167601821
B1146533654589N00253604WA0167101821
B1146543654585N00253600WA0167101822
B1146553654582N00253598WA0167301823
B1146563654578N00253598WA0167401824
B1146573654575N00253598WA0167701826
B1146583654573N00253599WA0167901827
B1146593654570N00253599WA0168001829
B1147003654567N00253600WA0167801830
B1147013654565N00253602WA0167601830
B1147023654562N00253605WA0167601829
B1147033654560N00253609WA0167601828
B1147043654558N00253614WA0167701828
B1147053654557N00253618WA0167701828
B1147063654555N00253622WA0167701828
B1147073654555N00253627WA0167301827
B1147083654556N00253631WA0167401825
B1147093654557N00253637WA0167401824
B1147103654560N00253642WA0167201822
B1147113654564N00253647WA0167201820
B1147123654567N00253652WA0167301820
B1147133654570N00253656WA0167401820
B1147143654573N00253660WA0167501820
B1147153654576N00253664WA0167601821
B1147163654580N00253667WA0167701821
B1147173654585N00253670WA0167501821
B1147183654590N00253671WA0167201820
B1147193654597N00253672WA0166701819
B1147203654605N00253671WA0166501817
B1147213654612N00253668WA0167001817
B1147223654619N00253664WA0167701819
B1147233654623N00253659WA0167901821
B1147243654626N00253653WA0167801822
B1147253654628N00253646WA0167601823
B1147263654630N00253638WA0167601823
B1147273654630N00253631WA0167701823
B1147283654630N00253625WA0167901824
B1147293654629N00253620WA0168101825
B1147303654629N00253617WA0168201823
B1147313654627N00253614WA0168001823
B1147323654625N00253612WA0167801823
B1147333654621N00253612WA0167601823
B1147343654618N00253614WA0167501823
B1147353654615N00253616WA0167601824
B1147363654614N00253619WA0167701824
B1147373654612N00253622WA0167801825
B1147383654611N00253624WA0167801825
B1147393654609N00253626WA0167501825
B1147403654607N00253629WA0167201825
B1147413654604N00253633WA0166901824
B1147423654601N00253637WA0167001823
B1147433654599N00253639WA0167201823
B1147443654597N00253640WA0167401824
B1147453654595N00253641WA0167501825
B1147463654593N00253642WA0167501826
B1147473654591N00253643WA0167301825
B1147483654588N00253643WA0166901824
B1147493654584N00253643WA0167001824
B1147503654581N00253642WA0167001824
B1147513654578N00253640WA0167101824
B1147523654576N00253639WA0167101824
B1147533654573N00253638WA0167101824
B1147543654570N00253639WA0166901823
B1147553654567N00253639WA0166801823
B1147563654563N00253639WA0166801822
B1147573654560N00253637WA0166701822
B1147583654557N00253635WA0166801821
B1147593654554N00253632WA0166801821
B1148003654551N00253627WA0166601821
B1148013654549N00253622WA0166401820
B1148023654545N00253617WA0166401819
B1148033654542N00253613WA0166601819
B1148043654539N00253609WA0166701820
B1148053654537N00253606WA0166801820
B1148063654534N00253603WA0166801820
B1148073654531N00253600WA0166701820
B1148083654528N00253597WA0166401820
B1148093654523N00253593WA0166301820
B1148103654520N00253588WA0166501820
B1148113654516N00253583WA0166701822
B1148123654513N00253580WA0167001823
B1148133654510N00253579WA0167101825
B1148143654507N00253579WA0167201826
B1148153654503N00253580WA0167001825
B1148163654499N00253582WA0167001824
B1148173654495N00253585WA0167201824
B1148183654492N00253590WA0167101823
B1148193654490N00253595WA0167101821
B1148203654489N00253601WA0166801820
B1148213654489N00253607WA0166801818
B1148223654490N00253613WA0166801818
B1148233654492N00253618WA0166501816
B1148243654497N00253621WA0166301814
B1148253654502N00253624WA0165901812
B1148263654509N00253623WA0165801810
B1148273654516N00253620WA0165401808
B1148283654522N00253615WA0165401805
B1148293654525N00253608WA0165601804
B1148303654528N00253602WA0165701804
B1148313654530N00253596WA0165701803
B1148323654531N00253590WA0165501802
B1148333654530N00253583WA0165201801
B1148343654529N00253575WA0165001799
B1148353654527N00253568WA0165101798
B1148363654524N00253563WA0165301798
B1148373654522N00253558WA0165601800
B1148383654520N00253555WA0165901802
B1148393654518N00253552WA0166001804
B1148403654515N00253550WA0165901803
B1148413654511N00253547WA0165801803
B1148423654507N00253546WA0165701804
B1148433654502N00253545WA0165701804
B1148443654498N00253545WA0165801804
B1148453654494N00253546WA0165701805
B1148463654491N00253547WA0165801805
B1148473654489N00253549WA0165801806
B1148483654487N00253551WA0165801806
B1148493654486N00253554WA0165601806
B1148503654484N00253558WA0165501805
B1148513654483N00253562WA0165301804
B1148523654481N00253566WA0165101803
B1148533654479N00253570WA0165001801
B1148543654477N00253574WA0164901800
B1148553654475N00253578WA0164701800
B1148563654472N00253582WA0164701799
B1148573654469N00253585WA0164601798
B1148583654465N00253588WA0164401796
B1148593654461N00253591WA0164001794
B1149003654457N00253593WA0164001792
B1149013654452N00253595WA0163901790
B1149023654448N00253596WA0163901790
B1149033654445N00253597WA0163801790
B1149043654441N00253597WA0163601789
B1149053654437N00253598WA0163501787
B1149063654433N00253599WA0163601787
B1149073654430N00253600WA0164001787
B1149083654428N00253601WA0164001788
B1149093654426N00253602WA0164001788
B1149103654423N00253603WA0163801788
B1149113654419N00253604WA0163601788
B1149123654415N00253603WA0163501787
B1149133654411N00253602WA0163601786
B1149143654407N00253601WA0163701787
B1149153654404N00253601WA0163801787
B1149163654400N00253601WA0163701788
B1149173654397N00253602WA0163601788
B1149183654393N00253602WA0163801788
B1149193654389N00253601WA0163901788
B1149203654386N00253599WA0164101788
B1149213654382N00253597WA0164101789
B1149223654378N00253595WA0164101789
B1149233654374N00253594WA0164001790
B1149243654370N00253592WA0164001790
B1149253654366N00253589WA0164001790
B1149263654362N00253585WA0164201790
B1149273654358N00253582WA0164301791
B1149283654354N00253580WA0164401792
B1149293654351N00253578WA0164501793
B1149303654347N00253577WA0164501793
B1149313654343N00253574WA0164601794
B1149323654338N00253571WA0164601794
B1149333654334N00253568WA0164701795
B1149343654330N00253565WA0165001796
B1149353654327N00253562WA0165301798
B1149363654324N00253560WA0165601800
B1149373654321N00253559WA0165701802
B1149383654318N00253560WA0166001804
B1149393654316N00253562WA0166101806
B1149403654315N00253566WA0166201807
B1149413654314N00253570WA0166301807
B1149423654315N00253573WA0166401808
B1149433654317N00253578WA0166301808
B1149443654320N00253582WA0166001807
B1149453654324N00253586WA0166001808
B1149463654330N00253588WA0165801807
B1149473654336N00253591WA0165701806
B1149483654343N00253593WA0165701806
B1149493654348N00253596WA0165901806
B1149503654351N00253600WA0165701806
B1149513654353N00253605WA0165701805
B1149523654352N00253610WA0165601804
B1149533654351N00253613WA0165501804
B1149543654348N00253614WA0165201803
B1149553654346N00253612WA0165101802
B1149563654343N00253610WA0164801801
B1149573654340N00253608WA0164701799
B1149583654336N00253606WA0164601798
B1149593654333N00253603WA0164501797
B1150003654330N00253601WA0164401796
B1150013654327N00253598WA0164301795
B1150023654324N00253595WA0164301793
B1150033654321N00253591WA0164201792
B1150043654318N00253586WA0164201791
B1150053654315N00253581WA0164201791
B1150063654313N00253576WA0164201790
B1150073654310N00253570WA0164101789
B1150083654307N00253565WA0164001788
B1150093654304N00253562WA0163901788
B1150103654300N00253559WA0163901787
B1150113654295N00253556WA0163901786
B1150123654291N00253554WA0164001787
B1150133654287N00253551WA0164201787
B1150143654283N00253547WA0164401788
B1150153654279N00253544WA0164501789
B1150163654276N00253541WA0164501791
B1150173654272N00253539WA0164601792
B1150183654268N00253537WA0164801794
B1150193654264N00253535WA0164901795
B1150203654260N00253534WA0165001796
B1150213654257N00253534WA0165301798
B1150223654253N00253533WA0165501800
B1150233654250N00253532WA0165801802
B1150243654247N00253529WA0166001804
B1150253654245N00253526WA0166101806
B1150263654243N00253524WA0166301808
B1150273654240N00253523WA0166401810
B1150283654237N00253523WA0166401810
B1150293654234N00253522WA0166701812
B1150303654232N00253519WA0166901814
B1150313654230N00253515WA0166801815
B1150323654229N00253509WA0166701816
B1150333654228N00253503WA0166701816
B1150343654226N00253497WA0166701817
B1150353654225N00253492WA0166701817
B1150363654224N00253487WA0166701817
B1150373654223N00253482WA0166601817
B1150383654221N00253477WA0166201816
B1150393654219N00253471WA0166101814
B1150403654217N00253466WA0166001813
B1150413654214N00253461WA0166001813
B1150423654212N00253457WA0166001812
B1150433654210N00253452WA0166001812
B1150443654208N00253447WA0165901812
B1150453654205N00253441WA0166001811
B1150463654204N00253435WA0165801811
B1150473654202N00253429WA0165901811
B1150483654199N00253423WA0166301812
B1150493654197N00253420WA0166601814
B1150503654195N00253417WA0166701816
B1150513654194N00253415WA0166901817
B1150523654192N00253415WA0166801817
B1150533654189N00253415WA0166601816
B1150543654185N00253417WA0166501815
B1150553654182N00253419WA0166601815
B1150563654180N00253421WA0166801816
B1150573654178N00253423WA0167101817
B1150583654177N00253426WA0167401818
B1150593654176N00253428WA0167701820
B1151003654176N00253431WA0167901823
B1151013654177N00253433WA0168001825
B1151023654179N00253437WA0167801826
B1151033654182N00253440WA0167501824
B1151043654186N00253444WA0167701823
B1151053654192N00253446WA0167901823
B1151063654198N00253445WA0167901823
B1151073654205N00253442WA0168001823
B1151083654211N00253437WA0167901824
B1151093654217N00253431WA0167701824
B1151103654222N00253424WA0167701825
B1151113654225N00253416WA0167601825
B1151123654227N00253408WA0167601825
B1151133654226N00253401WA0167601825
B1151143654225N00253394WA0167701825
B1151153654222N00253390WA0167901825
B1151163654219N00253387WA0168101826
B1151173654216N00253385WA0168201827
B1151183654213N00253385WA0168301828
B1151193654210N00253386WA0168301828
B1151203654207N00253387WA0168401829
B1151213654204N00253389WA0168401829
B1151223654202N00253391WA0168501830
B1151233654199N00253393WA0168601831
B1151243654196N00253393WA0168801832
B1151253654194N00253394WA0168801834
B1151263654191N00253394WA0168901835
B1151273654188N00253393WA0168601835
B1151283654184N00253392WA0168401835
B1151293654180N00253388WA0168401835
B1151303654176N00253384WA0168701836
B1151313654173N00253380WA0169001838
B1151323654170N00253378WA0169201839
B1151333654167N00253378WA0169301841
B1151343654164N00253379WA0169501841
B1151353654161N00253381WA0169501843
B1151363654159N00253382WA0169701844
B1151373654158N00253384WA0169901846
B1151383654157N00253386WA0170101848
B1151393654156N00253390WA0170201849
B1151403654155N00253394WA0170401850
B1151413654155N00253398WA0170601851
B1151423654155N00253402WA0170801853
B1151433654157N00253405WA0171101856
B1151443654160N00253408WA0171301858
B1151453654164N00253410WA0171401858
B1151463654170N00253410WA0171401860
B1151473654176N00253408WA0171601861
B1151483654182N00253404WA0171901862
B1151493654187N00253398WA0172001863
B1151503654189N00253390WA0172001865
B1151513654190N00253382WA0171801866
B1151523654189N00253373WA0171801867
B1151533654187N00253364WA0172001867
B1151543654185N00253357WA0172301869
B1151553654182N00253351WA0172601871
B1151563654179N00253346WA0172801872
B1151573654175N00253342WA0172901874
B1151583654170N00253340WA0173101875
B1151593654167N00253340WA0173301877
B1152003654163N00253340WA0173501879
B1152013654161N00253341WA0173701881
B1152023654160N00253343WA0173701882
B1152033654159N00253345WA0173501883
B1152043654157N00253349WA0173201883
B1152053654154N00253352WA0172901882
B1152063654150N00253353WA0172701882
B1152073654145N00253352WA0172701882
B1152083654141N00253349WA0172901882
B1152093654138N00253347WA0173301884
B1152103654135N00253346WA0173501886
B1152113654133N00253346WA0173401887
B1152123654130N00253346WA0173201887
B1152133654126N00253345WA0173101886
B1152143654122N00253344WA0173301887
B1152153654119N00253343WA0173701887
B1152163654117N00253341WA0173901889
B1152173654115N00253340WA0174001890
B1152183654113N00253340WA0173801890
B1152193654110N00253340WA0173301889
B1152203654106N00253341WA0173001888
B1152213654101N00253341WA0172901886
B1152223654097N00253340WA0173101886
B1152233654093N00253338WA0173201885
B1152243654089N00253336WA0172801883
B1152253654084N00253334WA0172601880
B1152263654079N00253335WA0172101877
B1152273654074N00253336WA0172001874
B1152283654070N00253339WA0172001873
B1152293654065N00253340WA0172001872
B1152303654061N00253340WA0171901871
B1152313654057N00253338WA0171601870
B1152323654053N00253336WA0171501868
B1152333654049N00253334WA0171501866
B1152343654045N00253332WA0171501866
B1152353654042N00253329WA0171401865
B1152363654038N00253326WA0171301864
B1152373654034N00253322WA0171101863
B1152383654030N00253319WA0171101861
B1152393654025N00253316WA0171001860
B1152403654020N00253312WA0170901859
B1152413654015N00253309WA0171201859
B1152423654012N00253306WA0171301860
B1152433654009N00253304WA0171601861
B1152443654005N00253303WA0171601862
B1152453654001N00253302WA0171601862
B1152463653997N00253299WA0171501861
B1152473653993N00253296WA0171501861
B1152483653989N00253293WA0171501861
B1152493653986N00253290WA0171401861
B1152503653982N00253288WA0171201861
B1152513653977N00253286WA0171101861
B1152523653973N00253283WA0171301861
B1152533653970N00253279WA0171501862
B1152543653967N00253276WA0171801864
B1152553653965N00253274WA0171801865
B1152563653962N00253272WA0171601865
B1152573653958N00253271WA0171401865
B1152583653953N00253269WA0171201864
B1152593653947N00253267WA0171201864
B1153003653943N00253264WA0171701865
B1153013653940N00253262WA0171901867
B1153023653938N00253260WA0172001868
B1153033653934N00253258WA0171701868
B1153043653930N00253256WA0171301868
B1153053653925N00253252WA0171201867
B1153063653922N00253248WA0171201866
B1153073653918N00253245WA0171401865
B1153083653916N00253243WA0171501866
B1153093653913N00253242WA0171401864
B1153103653909N00253242WA0170901863
B1153113653904N00253242WA0170701860
B1153123653898N00253242WA0170701859
B1153133653894N00253242WA0171001859
B1153143653889N00253241WA0171301860
B1153153653886N00253241WA0171401862
B1153163653882N00253239WA0171401862
B1153173653877N00253238WA0170901862
B1153183653871N00253237WA0170801861
B1153193653865N00253235WA0171101861
B1153203653860N00253233WA0171501862
B1153213653856N00253232WA0172001865
B1153223653852N00253231WA0172401868
B1153233653849N00253232WA0172601871
B1153243653845N00253234WA0172701872
B1153253653843N00253236WA0172801873
B1153263653842N00253240WA0173001874
B1153273653841N00253244WA0173101876
B1153283653842N00253248WA0173201877
B1153293653843N00253252WA0173401878
B1153303653845N00253256WA0173601880
B1153313653848N00253260WA0173801882
B1153323653851N00253263WA0174001883
B1153333653854N00253264WA0174101885
B1153343653859N00253264WA0174201886
B1153353653864N00253263WA0174101887
B1153363653869N00253258WA0174001886
B1153373653872N00253251WA0173501885
B1153383653872N00253241WA0173401884
B1153393653870N00253233WA0173501884
B1153403653867N00253227WA0173801885
B1153413653863N00253223WA0174001885
B1153423653859N00253219WA0174301886
B1153433653855N00253216WA0174501888
B1153443653852N00253214WA0174801890
B1153453653848N00253213WA0174901892
B1153463653844N00253213WA0174901893
B1153473653840N00253214WA0175001893
B1153483653837N00253217WA0175101894
B1153493653835N00253220WA0175201896
B1153503653832N00253224WA0175501897
B1153513653830N00253228WA0175601898
B1153523653829N00253233WA0175901900
B1153533653828N00253236WA0176301903
B1153543653829N00253239WA0176401907
B1153553653830N00253243WA0176601909
B1153563653831N00253246WA0176501910
B1153573653833N00253251WA0176401911
B1153583653837N00253254WA0176801912
B1153593653843N00253256WA0176901913
B1154003653850N00253256WA0177101914
B1154013653856N00253254WA0177301915
B1154023653862N00253249WA0177401917
B1154033653866N00253243WA0177501919
B1154043653869N00253235WA0177301919
B1154053653870N00253226WA0177201920
B1154063653868N00253219WA0177301921
B1154073653864N00253213WA0177401922
B1154083653859N00253209WA0177501922
B1154093653854N00253207WA0177701923
B1154103653850N00253205WA0177901925
B1154113653847N00253204WA0178201928
B1154123653845N00253204WA0178401930
B1154133653843N00253205WA0178401931
B1154143653841N00253208WA0178401931
B1154153653840N00253212WA0178601932
B1154163653839N00253216WA0178801933
B1154173653839N00253219WA0179001936
B1154183653840N00253222WA0179201939
B1154193653841N00253226WA0179501941
B1154203653844N00253229WA0179501941
B1154213653847N00253233WA0179601941
B1154223653851N00253237WA0179701942
B1154233653856N00253240WA0179801942
B1154243653861N00253241WA0179801943
B1154253653866N00253240WA0179901944
B1154263653873N00253237WA0179401944
B1154273653878N00253231WA0179301944
B1154283653882N00253224WA0179401944
B1154293653883N00253215WA0179501944
B1154303653883N00253207WA0179501944
B1154313653882N00253199WA0179601944
B1154323653879N00253192WA0179601944
B1154333653876N00253187WA0179701944
B1154343653873N00253184WA0179701944
B1154353653869N00253181WA0179701944
B1154363653865N00253178WA0179801945
B1154373653862N00253175WA0180001946
B1154383653859N00253173WA0180201948
B1154393653856N00253171WA0180401950
B1154403653853N00253170WA0180701952
B1154413653850N00253171WA0180801953
B1154423653848N00253173WA0181001954
B1154433653846N00253175WA0181101956
B1154443653845N00253179WA0181201958
B1154453653845N00253183WA0181401959
B1154463653847N00253187WA0181701961
B1154473653849N00253190WA0181901962
B1154483653853N00253192WA0182101964
B1154493653858N00253193WA0182101966
B1154503653863N00253193WA0182101966
B1154513653869N00253190WA0181701967
B1154523653875N00253185WA0181801967
B1154533653879N00253178WA0181901968
B1154543653881N00253170WA0181801968
B1154553653881N00253162WA0181701968
B1154563653880N00253154WA0181701968
B1154573653878N00253148WA0181901968
B1154583653875N00253143WA0182001968
B1154593653872N00253139WA0182101969
B1155003653868N00253136WA0182201969
B1155013653863N00253134WA0182301969
B1155023653859N00253133WA0182301970
B1155033653855N00253133WA0182501970
B1155043653851N00253134WA0182801972
B1155053653849N00253136WA0182901975
B1155063653848N00253138WA0183201977
B1155073653847N00253140WA0183401978
B1155083653846N00253143WA0183701980
B1155093653848N00253147WA0183801982
B1155103653850N00253151WA0184001983
B1155113653854N00253155WA0184001984
B1155123653860N00253157WA0184101985
B1155133653867N00253157WA0184301985
B1155143653874N00253153WA0184401987
B1155153653879N00253148WA0184601989
B1155163653883N00253141WA0184801991
B1155173653884N00253133WA0184901993
B1155183653885N00253125WA0184801993
B1155193653884N00253116WA0184601994
B1155203653883N00253108WA0184601995
B1155213653880N00253102WA0184801996
B1155223653877N00253096WA0184901997
B1155233653872N00253091WA0184801998
B1155243653868N00253088WA0184902000
B1155253653863N00253085WA0185002001
B1155263653858N00253083WA0185102002
B1155273653853N00253082WA0185302003
B1155283653849N00253082WA0185402004
B1155293653845N00253084WA0185802007
B1155303653842N00253087WA0186302010
B1155313653840N00253090WA0186602013
B1155323653841N00253094WA0186902016
B1155333653842N00253097WA0187002018
B1155343653844N00253099WA0187102019
B1155353653847N00253102WA0186802018
B1155363653850N00253107WA0186702018
B1155373653855N00253112WA0186802019
B1155383653860N00253115WA0187202020
B1155393653866N00253116WA0187602023
B1155403653871N00253116WA0188002026
B1155413653876N00253114WA0188202029
B1155423653882N00253110WA0188102029
B1155433653888N00253105WA0187902030
B1155443653893N00253100WA0188302031
B1155453653898N00253094WA0188602033
B1155463653901N00253087WA0188702036
B1155473653902N00253079WA0188802037
B1155483653901N00253070WA0188602037
B1155493653900N00253063WA0188602038
B1155503653897N00253056WA0188802038
B1155513653893N00253052WA0188902040
B1155523653889N00253048WA0189102041
B1155533653886N00253046WA0189302042
B1155543653882N00253046WA0189402042
B1155553653878N00253048WA0189602043
B1155563653874N00253051WA0189702044
B1155573653872N00253054WA0190102046
B1155583653871N00253057WA0190502048
B1155593653873N00253060WA0190902052
B1156003653875N00253062WA0191202055
B1156013653878N00253065WA0191402057
B1156023653883N00253068WA0191602059
B1156033653887N00253070WA0191802062
B1156043653893N00253070WA0192002064
B1156053653898N00253068WA0192002065
B1156063653904N00253066WA0192002067
B1156073653911N00253061WA0191702067
B1156083653917N00253055WA0191802068
B1156093653920N00253048WA0192202069
B1156103653921N00253040WA0192202070
B1156113653920N00253032WA0192202071
B1156123653918N00253025WA0192202072
B1156133653914N00253019WA0192402072
B1156143653910N00253013WA0192602073
B1156153653906N00253009WA0192902076
B1156163653902N00253006WA0193402079
B1156173653898N00253004WA0193702081
B1156183653894N00253004WA0193802083
B1156193653890N00253005WA0194002085
B1156203653888N00253007WA0194402087
B1156213653886N00253010WA0194602090
B1156223653885N00253013WA0194702092
B1156233653886N00253017WA0194902093
B1156243653888N00253020WA0195002095
B1156253653891N00253024WA0195202096
B1156263653895N00253027WA0195402099
B1156273653900N00253028WA0195702102
B1156283653905N00253029WA0195802104
B1156293653911N00253027WA0196002106
B1156303653917N00253025WA0196202108
B1156313653923N00253020WA0196302109
B1156323653928N00253014WA0196402111
B1156333653933N00253006WA0196602113
B1156343653935N00252998WA0196702114
B1156353653936N00252989WA0196802115
B1156363653935N00252980WA0196802116
B1156373653932N00252973WA0196502117
B1156383653928N00252967WA0196802118
B1156393653925N00252963WA0197102120
B1156403653921N00252960WA0197302122
B1156413653917N00252958WA0197402123
B1156423653911N00252956WA0197402123
B1156433653906N00252955WA0197502123
B1156443653902N00252955WA0197802125
B1156453653899N00252956WA0198102127
B1156463653896N00252958WA0198102129
B1156473653894N00252962WA0198202130
B1156483653892N00252967WA0198202131
B1156493653892N00252972WA0198402131
B1156503653892N00252977WA0198602133
B1156513653894N00252980WA0198902137
B1156523653898N00252982WA0199002138
B1156533653902N00252982WA0198902138
B1156543653906N00252982WA0198502138
B1156553653912N00252980WA0198502137
B1156563653918N00252977WA0198802137
B1156573653924N00252972WA0198902138
B1156583653929N00252965WA0199302141
B1156593653932N00252958WA0199602143
B1157003653935N00252952WA0199802145
B1157013653936N00252945WA0200202147
B1157023653937N00252938WA0200402150
B1157033653935N00252930WA0200502151
B1157043653932N00252923WA0200402152
B1157053653927N00252919WA0200502153
B1157063653923N00252916WA0200702154
B1157073653918N00252915WA0200702155
B1157083653913N00252914WA0200902156
B1157093653908N00252915WA0200902156
B1157103653903N00252916WA0201002157
B1157113653899N00252917WA0201002158
B1157123653894N00252920WA0201102159
B1157133653890N00252922WA0201202159
B1157143653885N00252923WA0201302160
B1157153653879N00252924WA0201302160
B1157163653874N00252925WA0201402161
B1157173653868N00252926WA0201502162
B1157183653863N00252926WA0201602163
B1157193653859N00252927WA0201402164
B1157203653854N00252928WA0201202164
B1157213653849N00252928WA0201002164
B1157223653844N00252927WA0200902164
B1157233653841N00252925WA0200602163
B1157243653837N00252923WA0200302161
B1157253653832N00252921WA0199902158
B1157263653827N00252921WA0199602155
B1157273653821N00252923WA0199502152
B1157283653817N00252926WA0199302149
B1157293653813N00252928WA0199302147
B1157303653809N00252930WA0199102145
B1157313653804N00252931WA0198902143
B1157323653799N00252932WA0198702141
B1157333653793N00252934WA0198502139
B1157343653787N00252934WA0198602137
B1157353653782N00252934WA0198802137
B1157363653778N00252934WA0198902138
B1157373653773N00252933WA0198902139
B1157383653768N00252933WA0198802138
B1157393653763N00252932WA0198702137
B1157403653757N00252932WA0198502135
B1157413653751N00252932WA0198502134
B1157423653746N00252931WA0198502134
B1157433653742N00252930WA0198502134
B1157443653738N00252929WA0198402134
B1157453653733N00252929WA0197702132
B1157463653727N00252928WA0197602131
B1157473653721N00252928WA0197502129
B1157483653715N00252927WA0197602128
B1157493653710N00252926WA0197702128
B1157503653705N00252925WA0197602128
B1157513653699N00252924WA0197502127
B1157523653694N00252923WA0197202126
B1157533653688N00252923WA0196902124
B1157543653682N00252922WA0196902122
B1157553653676N00252922WA0196802121
B1157563653671N00252922WA0196702120
B1157573653666N00252922WA0196602118
B1157583653660N00252921WA0196402117
B1157593653654N00252921WA0196102114
B1158003653648N00252920WA0196002112
B1158013653643N00252919WA0195902111
B1158023653638N00252917WA0195802110
B1158033653633N00252915WA0195502109
B1158043653628N00252914WA0195302108
B1158053653622N00252914WA0194902106
B1158063653616N00252914WA0194802104
B1158073653610N00252913WA0194702103
B1158083653605N00252912WA0194702101
B1158093653600N00252910WA0194802100
B1158103653596N00252908WA0194602100
B1158113653591N00252907WA0194502097
B1158123653587N00252906WA0194002095
B1158133653582N00252907WA0193902093
B1158143653578N00252908WA0193602090
B1158153653574N00252908WA0193502088
B1158163653570N00252908WA0193302086
B1158173653566N00252908WA0193002084
B1158183653562N00252909WA0192702081
B1158193653557N00252909WA0192402078
B1158203653552N00252910WA0192302076
B1158213653547N00252911WA0192402074
B1158223653543N00252910WA0192602074
B1158233653540N00252910WA0192702075
B1158243653536N00252909WA0192502076
B1158253653532N00252908WA0192302075
B1158263653528N00252908WA0192202073
B1158273653523N00252906WA0192002072
B1158283653519N00252904WA0191902070
B1158293653515N00252902WA0191902069
B1158303653511N00252901WA0191802068
B1158313653506N00252901WA0191402067
B1158323653501N00252900WA0191102065
B1158333653496N00252899WA0190802064
B1158343653491N00252896WA0191002063
B1158353653486N00252892WA0191302064
B1158363653483N00252889WA0191402064
B1158373653479N00252887WA0191402064
B1158383653474N00252885WA0191302064
B1158393653470N00252885WA0191202063
B1158403653465N00252884WA0191202062
B1158413653461N00252883WA0191102062
B1158423653457N00252881WA0191102062
B1158433653453N00252880WA0190902061
B1158443653448N00252879WA0190702059
B1158453653443N00252877WA0190602057
B1158463653437N00252875WA0190602055
B1158473653433N00252873WA0190702056
B1158483653429N00252871WA0190902056
B1158493653425N00252870WA0190902057
B1158503653421N00252870WA0190902057
B1158513653416N00252870WA0190802056
B1158523653412N00252871WA0190802056
B1158533653407N00252872WA0190902057
B1158543653402N00252873WA0191002057
B1158553653398N00252873WA0191102058
B1158563653393N00252873WA0191202058
B1158573653389N00252872WA0191402059
B1158583653384N00252870WA0191602061
B1158593653380N00252869WA0191702062
B1159003653375N00252868WA0191802063
B1159013653371N00252867WA0191902065
B1159023653368N00252865WA0191902066
B1159033653364N00252863WA0192002066
B1159043653360N00252860WA0192002067
B1159053653355N00252858WA0192002067
B1159063653351N00252857WA0192002068
B1159073653346N00252856WA0192102068
B1159083653343N00252854WA0192102070
B1159093653339N00252851WA0192202071
B1159103653337N00252848WA0192002071
B1159113653334N00252846WA0191902071
B1159123653331N00252846WA0191902072
B1159133653328N00252847WA0191702071
B1159143653324N00252849WA0191302069
B1159153653319N00252850WA0191102066
B1159163653314N00252850WA0190902064
B1159173653311N00252850WA0190802062
B1159183653307N00252850WA0190502060
B1159193653303N00252852WA0190202057
B1159203653298N00252854WA0189802054
B1159213653293N00252856WA0189502051
B1159223653288N00252857WA0189502048
B1159233653284N00252857WA0189402047
B1159243653280N00252857WA0189202045
B1159253653275N00252855WA0189002043
B1159263653270N00252853WA0188702039
B1159273653265N00252851WA0188402036
B1159283653260N00252849WA0188402035
B1159293653256N00252848WA0188602035
B1159303653253N00252847WA0188602035
B1159313653250N00252846WA0188602035
B1159323653246N00252844WA0188502034
B1159333653241N00252841WA0188402033
B1159343653237N00252839WA0188402032
B1159353653232N00252837WA0188402032
B1159363653228N00252834WA0188502033
B1159373653224N00252831WA0188802033
B1159383653220N00252829WA0188902035
B1159393653217N00252828WA0189002037
B1159403653213N00252827WA0189102038
B1159413653209N00252826WA0189102038
B1159423653205N00252824WA0189202039
B1159433653202N00252822WA0189202039
B1159443653198N00252819WA0189302040
B1159453653195N00252816WA0189002040
B1159463653192N00252813WA0188802039
B1159473653188N00252810WA0188602039
B1159483653183N00252807WA0188402038
B1159493653179N00252805WA0188302038
B1159503653175N00252801WA0188302037
B1159513653170N00252798WA0188302036
B1159523653167N00252794WA0188402036
B1159533653162N00252791WA0188402036
B1159543653158N00252787WA0188302035
B1159553653153N00252783WA0188202033
B1159563653148N00252778WA0188202032
B1159573653144N00252774WA0188302032
B1159583653139N00252770WA0188402032
B1159593653134N00252767WA0188602032
B1200003653130N00252764WA0188802033
B1200013653126N00252762WA0188802035
B1200023653122N00252758WA0188702035
B1200033653117N00252755WA0188402034
B1200043653111N00252752WA0188202031
B1200053653105N00252749WA0188202030
B1200063653101N00252746WA0188502031
B1200073653098N00252743WA0188602035
B1200083653095N00252740WA0188602035
B1200093653092N00252737WA0188302035
B1200103653087N00252735WA0187902032
B1200113653082N00252734WA0187702030
B1200123653077N00252733WA0187702029
B1200133653073N00252731WA0187702028
B1200143653070N00252727WA0187602028
B1200153653066N00252724WA0187402026
B1200163653062N00252720WA0187102023
B1200173653057N00252717WA0186802019
B1200183653052N00252714WA0186702017
B1200193653048N00252711WA0186802017
B1200203653045N00252708WA0186902019
B1200213653043N00252706WA0186702019
B1200223653040N00252704WA0186102017
B1200233653036N00252702WA0185502014
B1200243653031N00252699WA0184902012
B1200253653026N00252695WA0184502009
B1200263653020N00252691WA0184502007
B1200273653015N00252688WA0184602005
B1200283653010N00252685WA0184702004
B1200293653006N00252681WA0184802007
B1200303653003N00252678WA0184902007
B1200313652999N00252675WA0184902006
B1200323652995N00252672WA0184902005
B1200333652991N00252669WA0185002005
B1200343652988N00252666WA0185202005
B1200353652985N00252661WA0185302006
B1200363652983N00252656WA0185502006
B1200373652981N00252651WA0185602007
B1200383652978N00252647WA0185702008
B1200393652975N00252643WA0185602007
B1200403652971N00252640WA0185502007
B1200413652968N00252637WA0185302005
B1200423652965N00252633WA0185102004
B1200433652962N00252630WA0185002002
B1200443652958N00252627WA0184902000
B1200453652954N00252624WA0184701999
B1200463652950N00252622WA0184201997
B1200473652946N00252620WA0184001996
B1200483652942N00252618WA0183701994
B1200493652937N00252615WA0183401992
B1200503652934N00252613WA0183401991
B1200513652931N00252611WA0183401990
B1200523652929N00252609WA0183301988
B1200533652926N00252608WA0183301986
B1200543652922N00252606WA0182701984
B1200553652918N00252606WA0182401981
B1200563652915N00252606WA0182501979
B1200573652912N00252606WA0182501979
B1200583652909N00252606WA0182401978
B1200593652905N00252606WA0182201977
B1201003652901N00252606WA0182101975
B1201013652898N00252606WA0182201974
B1201023652895N00252605WA0182401974
B1201033652893N00252603WA0182401974
B1201043652890N00252601WA0182301975
B1201053652888N00252599WA0182301975
B1201063652885N00252596WA0182101974
B1201073652882N00252592WA0182201974
B1201083652880N00252588WA0182201973
B1201093652878N00252584WA0182001972
B1201103652875N00252580WA0181701970
B1201113652872N00252577WA0181401968
B1201123652869N00252575WA0181201966
B1201133652866N00252575WA0181001965
B1201143652863N00252576WA0181001964
B1201153652860N00252576WA0180901963
B1201163652858N00252575WA0180801961
B1201173652855N00252575WA0180501960
B1201183652851N00252576WA0180601959
B1201193652848N00252578WA0180101957
B1201203652845N00252581WA0180001955
B1201213652842N00252584WA0180001954
B1201223652839N00252584WA0180101954
B1201233652837N00252584WA0180001953
B1201243652834N00252585WA0179801952
B1201253652831N00252586WA0179401950
B1201263652827N00252588WA0178901947
B1201273652821N00252589WA0178901946
B1201283652816N00252589WA0179001945
B1201293652812N00252588WA0179301945
B1201303652809N00252587WA0179701946
B1201313652807N00252585WA0179701947
B1201323652805N00252584WA0179501947
B1201333652801N00252583WA0178801945
B1201343652796N00252582WA0178301944
B1201353652791N00252580WA0178101941
B1201363652786N00252578WA0178301941
B1201373652782N00252576WA0178501941
B1201383652779N00252575WA0178601941
B1201393652776N00252574WA0178301941
B1201403652771N00252572WA0178001940
B1201413652766N00252568WA0177801939
B1201423652760N00252564WA0177701937
B1201433652755N00252559WA0178001939
B1201443652751N00252557WA0178401942
B1201453652748N00252554WA0178501943
B1201463652744N00252552WA0178601945
B1201473652740N00252549WA0178601945
B1201483652737N00252547WA0178601946
B1201493652733N00252545WA0178701947
B1201503652730N00252544WA0178601947
B1201513652726N00252543WA0178401947
B1201523652720N00252542WA0178201947
B1201533652715N00252538WA0178201947
B1201543652709N00252534WA0178501948
B1201553652705N00252531WA0178901949
B1201563652701N00252528WA0179401951
B1201573652699N00252527WA0179501953
B1201583652696N00252526WA0179501953
B1201593652692N00252526WA0179501952
B1202003652689N00252525WA0179401951
B1202013652685N00252522WA0179401949
B1202023652681N00252518WA0179201947
B1202033652677N00252514WA0178901945
B1202043652673N00252509WA0178801944
B1202053652669N00252504WA0178801943
B1202063652665N00252499WA0178801942
B1202073652661N00252492WA0178701942
B1202083652658N00252486WA0178701941
B1202093652655N00252480WA0178701941
B1202103652651N00252476WA0178601940
B1202113652646N00252472WA0178301938
B1202123652641N00252468WA0178201936
B1202133652636N00252463WA0178101935
B1202143652631N00252458WA0178301935
B1202153652627N00252453WA0178401936
B1202163652623N00252450WA0178701938
B1202173652619N00252447WA0178901939
B1202183652616N00252444WA0178801940
B1202193652612N00252443WA0178501939
B1202203652608N00252441WA0178001938
B1202213652602N00252440WA0177701935
B1202223652597N00252440WA0177701932
B1202233652592N00252440WA0177901932
B1202243652588N00252440WA0177901933
B1202253652584N00252441WA0177701932
B1202263652579N00252442WA0177401930
B1202273652573N00252443WA0177201929
B1202283652567N00252444WA0177301929
B1202293652563N00252443WA0177501929
B1202303652559N00252442WA0177801930
B1202313652555N00252442WA0178001932
B1202323652551N00252442WA0178001932
B1202333652547N00252443WA0177901932
B1202343652542N00252444WA0177701932
B1202353652538N00252446WA0177901933
B1202363652534N00252447WA0178201935
B1202373652530N00252448WA0178401937
B1202383652526N00252448WA0178601939
B1202393652522N00252449WA0178701940
B1202403652518N00252449WA0178601942
B1202413652514N00252450WA0178701943
B1202423652511N00252451WA0179101945
B1202433652508N00252452WA0179601947
B1202443652505N00252453WA0180001950
B1202453652504N00252454WA0180101952
B1202463652504N00252457WA0180301954
B1202473652506N00252461WA0180501955
B1202483652508N00252465WA0180801957
B1202493652512N00252467WA0181101959
B1202503652516N00252467WA0181301961
B1202513652521N00252464WA0181501963
B1202523652526N00252459WA0181601964
B1202533652530N00252452WA0181701966
B1202543652532N00252443WA0181901967
B1202553652533N00252434WA0182101969
B1202563652532N00252426WA0182301971
B1202573652530N00252420WA0182501973
B1202583652527N00252415WA0182701975
B1202593652524N00252411WA0182801976
B1203003652520N00252408WA0182901977
B1203013652517N00252407WA0183101979
B1203023652513N00252407WA0183301980
B1203033652510N00252408WA0183501982
B1203043652507N00252409WA0183801984
B1203053652505N00252411WA0184001987
B1203063652504N00252413WA0184401990
B1203073652504N00252416WA0184701993
B1203083652505N00252419WA0184901995
B1203093652508N00252423WA0185101997
B1203103652513N00252425WA0185301998
B1203113652518N00252424WA0185602001
B1203123652523N00252420WA0186002004
B1203133652527N00252413WA0186202007
B1203143652530N00252406WA0186402009
B1203153652531N00252397WA0186602011
B1203163652531N00252387WA0186902013
B1203173652528N00252378WA0187002015
B1203183652524N00252371WA0187202017
B1203193652518N00252366WA0187402020
B1203203652514N00252363WA0187802022
B1203213652511N00252363WA0188002026
B1203223652508N00252364WA0188202028
B1203233652506N00252367WA0188302030
B1203243652505N00252371WA0188302031
B1203253652506N00252376WA0188302031
B1203263652508N00252381WA0188402031
B1203273652510N00252385WA0188602033
B1203283652514N00252388WA0188802034
B1203293652518N00252391WA0189002036
B1203303652523N00252393WA0189202038
B1203313652528N00252394WA0189402039
B1203323652534N00252393WA0189602041
B1203333652539N00252391WA0189902044
B1203343652544N00252386WA0190202047
B1203353652548N00252380WA0190302049
B1203363652551N00252373WA0190402050
B1203373652553N00252364WA0190302052
B1203383652553N00252354WA0190202053
B1203393652552N00252345WA0190202054
B1203403652550N00252336WA0190602055
B1203413652546N00252330WA0190902057
B1203423652542N00252325WA0191202058
B1203433652538N00252321WA0191502061
B1203443652534N00252319WA0191802063
B1203453652531N00252320WA0192002066
B1203463652529N00252322WA0192002067
B1203473652528N00252326WA0192102067
B1203483652529N00252329WA0192202069
B1203493652530N00252332WA0192402070
B1203503652532N00252335WA0192502072
B1203513652535N00252338WA0192502072
B1203523652540N00252341WA0192602072
B1203533652547N00252341WA0192702072
B1203543652554N00252338WA0193002074
B1203553652559N00252333WA0193202076
B1203563652563N00252327WA0193402079
B1203573652566N00252321WA0193502081
B1203583652568N00252312WA0193402082
B1203593652569N00252302WA0193002083
B1204003652570N00252292WA0193102083
B1204013652569N00252283WA0193402085
B1204023652566N00252276WA0193702087
B1204033652562N00252270WA0193802089
B1204043652558N00252265WA0194202091
B1204053652554N00252262WA0194402093
B1204063652550N00252260WA0194502094
B1204073652547N00252261WA0194602096
B1204083652544N00252262WA0194602096
B1204093652542N00252265WA0194502095
B1204103652541N00252269WA0194502095
B1204113652541N00252273WA0194502095
B1204123652542N00252277WA0194602096
B1204133652544N00252281WA0194802097
B1204143652547N00252284WA0194902098
B1204153652550N00252287WA0195002098
B1204163652553N00252290WA0195102100
B1204173652556N00252292WA0195202100
B1204183652560N00252294WA0195302101
B1204193652564N00252295WA0195502103
B1204203652569N00252295WA0195802104
B1204213652575N00252293WA0196002105
B1204223652580N00252288WA0196102107
B1204233652585N00252280WA0196102108
B1204243652587N00252271WA0196102108
B1204253652586N00252262WA0195802109
B1204263652584N00252254WA0195702109
B1204273652580N00252247WA0196002110
B1204283652576N00252243WA0196102112
B1204293652572N00252240WA0196402113
B1204303652567N00252239WA0196502113
B1204313652563N00252239WA0196402114
B1204323652560N00252240WA0196402113
B1204333652556N00252242WA0196402113
B1204343652553N00252243WA0196402114
B1204353652549N00252244WA0196402114
B1204363652545N00252244WA0196302115
B1204373652541N00252245WA0196102115
B1204383652538N00252247WA0196002114
B1204393652534N00252250WA0195802114
B1204403652531N00252255WA0195702113
B1204413652529N00252259WA0196002114
B1204423652526N00252263WA0196302116
B1204433652524N00252266WA0196602118
B1204443652523N00252270WA0196802120
B1204453652523N00252274WA0197002121
B1204463652524N00252279WA0196902121
B1204473652527N00252284WA0196902120
B1204483652531N00252287WA0196802120
B1204493652535N00252289WA0196902120
B1204503652540N00252289WA0196902120
B1204513652544N00252288WA0196902120
B1204523652549N00252286WA0196702120
B1204533652554N00252283WA0196602120
B1204543652558N00252278WA0196802120
B1204553652561N00252272WA0196902120
B1204563652564N00252264WA0196602120
B1204573652566N00252255WA0196502120
B1204583652567N00252245WA0196602119
B1204593652566N00252236WA0196602120
B1205003652564N00252227WA0196802120
B1205013652561N00252220WA0197002122
B1205023652557N00252215WA0197002123
B1205033652553N00252212WA0197202124
B1205043652548N00252209WA0197302125
B1205053652543N00252207WA0197402126
B1205063652539N00252206WA0197402126
B1205073652535N00252205WA0197402126
B1205083652531N00252205WA0197602126
B1205093652528N00252205WA0197702127
B1205103652525N00252205WA0197802128
B1205113652522N00252205WA0197902129
B1205123652520N00252204WA0197902130
B1205133652517N00252203WA0197802130
B1205143652512N00252202WA0197602129
B1205153652507N00252200WA0197502127
B1205163652501N00252197WA0197502127
B1205173652497N00252196WA0197702127
B1205183652495N00252196WA0197802128
B1205193652493N00252196WA0197602129
B1205203652489N00252197WA0197302128
B1205213652485N00252199WA0196902127
B1205223652480N00252201WA0196902126
B1205233652476N00252203WA0197002126
B1205243652473N00252203WA0197202126
B1205253652469N00252203WA0197202126
B1205263652464N00252203WA0196902124
B1205273652459N00252203WA0196702122
B1205283652453N00252204WA0196602121
B1205293652448N00252205WA0196602120
B1205303652444N00252205WA0196502119
B1205313652439N00252205WA0196402118
B1205323652433N00252204WA0196102115
B1205333652428N00252203WA0195902113
B1205343652422N00252203WA0195802112
B1205353652417N00252203WA0195702110
B1205363652412N00252203WA0195602109
B1205373652407N00252202WA0195502108
B1205383652402N00252201WA0195302106
B1205393652397N00252200WA0195102105
B1205403652391N00252198WA0194902103
B1205413652386N00252197WA0194702101
B1205423652380N00252196WA0194402099
B1205433652375N00252197WA0194202096
B1205443652369N00252197WA0193902094
B1205453652364N00252197WA0193702092
B1205463652359N00252196WA0193502090
B1205473652354N00252196WA0193202087
B1205483652349N00252196WA0192602084
B1205493652343N00252198WA0192302082
B1205503652337N00252199WA0192102079
B1205513652331N00252198WA0192002077
B1205523652327N00252196WA0191802076
B1205533652322N00252192WA0191602074
B1205543652317N00252188WA0191502072
B1205553652312N00252185WA0191402071
B1205563652307N00252182WA0191202068
B1205573652302N00252179WA0190902065
B1205583652297N00252176WA0190702063
B1205593652292N00252173WA0190502061
B1206003652287N00252171WA0190202059
B1206013652281N00252168WA0189902056
B1206023652275N00252166WA0189702054
B1206033652270N00252164WA0189602052
B1206043652265N00252162WA0189502050
B1206053652260N00252160WA0189502048
B1206063652255N00252159WA0189502047
B1206073652250N00252158WA0189502047
B1206083652246N00252157WA0189602046
B1206093652242N00252157WA0189602047
B1206103652238N00252157WA0189602047
B1206113652235N00252156WA0189402046
B1206123652231N00252155WA0189302044
B1206133652227N00252155WA0189102043
B1206143652222N00252155WA0189002041
B1206153652216N00252155WA0188902040
B1206163652211N00252154WA0189002041
B1206173652207N00252154WA0189202042
B1206183652204N00252153WA0189202042
B1206193652200N00252152WA0189102042
B1206203652195N00252151WA0188702040
B1206213652190N00252150WA0188502036
B1206223652185N00252148WA0188402034
B1206233652181N00252145WA0188602033
B1206243652178N00252144WA0188802032
B1206253652176N00252142WA0188702031
B1206263652172N00252141WA0188502030
B1206273652167N00252140WA0188102027
B1206283652161N00252138WA0187802024
B1206293652156N00252137WA0187702023
B1206303652151N00252136WA0188002022
B1206313652147N00252134WA0188302023
B1206323652143N00252132WA0188402025
B1206333652139N00252128WA0188402027
B1206343652135N00252125WA0188202027
B1206353652130N00252121WA0188302028
B1206363652126N00252116WA0188502030
B1206373652123N00252110WA0188602032
B1206383652121N00252104WA0188602033
B1206393652118N00252097WA0188502034
B1206403652115N00252090WA0188502035
B1206413652112N00252085WA0188702037
B1206423652109N00252080WA0188802039
B1206433652106N00252076WA0188702039
B1206443652103N00252072WA0188602039
B1206453652099N00252067WA0188302038
B1206463652094N00252063WA0188202037
B1206473652090N00252058WA0188102036
B1206483652085N00252054WA0187902035
B1206493652081N00252049WA0187902035
B1206503652078N00252045WA0188002034
B1206513652075N00252040WA0188002035
B1206523652073N00252037WA0188102036
B1206533652070N00252034WA0187902034
B1206543652066N00252031WA0187602032
B1206553652061N00252030WA0187202030
B1206563652056N00252028WA0187302028
B1206573652052N00252028WA0187502029
B1206583652049N00252027WA0187802030
B1206593652046N00252025WA0187802031
B1207003652043N00252023WA0187702031
B1207013652039N00252020WA0187502030
B1207023652034N00252017WA0187302027
B1207033652029N00252013WA0187202026
B1207043652025N00252010WA0187302027
B1207053652022N00252008WA0187602028
B1207063652018N00252005WA0187702028
B1207073652015N00252003WA0187802029
B1207083652011N00252000WA0187902030
B1207093652006N00251998WA0188202032
B1207103652001N00251996WA0188302033
B1207113651997N00251996WA0188502035
B1207123651992N00251996WA0188802038
B1207133651987N00251996WA0188902039
B1207143651982N00251996WA0188902040
B1207153651977N00251996WA0189202042
B1207163651972N00251995WA0189502044
B1207173651968N00251993WA0189602047
B1207183651963N00251990WA0189702048
B1207193651957N00251986WA0189602049
B1207203651952N00251982WA0189502049
B1207213651947N00251976WA0189502050
B1207223651943N00251970WA0189602051
B1207233651939N00251963WA0189702052
B1207243651935N00251957WA0189902053
B1207253651930N00251953WA0190202055
B1207263651925N00251948WA0190302055
B1207273651920N00251944WA0190302056
B1207283651916N00251941WA0190402057
B1207293651910N00251938WA0190402057
B1207303651904N00251937WA0190402057
B1207313651898N00251935WA0190202056
B1207323651892N00251934WA0190302057
B1207333651886N00251932WA0190402057
B1207343651880N00251930WA0190602058
B1207353651875N00251928WA0190702059
B1207363651869N00251927WA0190702060
B1207373651864N00251926WA0190802060
B1207383651858N00251925WA0190902060
B1207393651853N00251922WA0190902060
B1207403651847N00251919WA0190702061
B1207413651841N00251913WA0190502059
B1207423651836N00251906WA0190402058
B1207433651832N00251898WA0190302056
B1207443651829N00251889WA0190302056
B1207453651826N00251881WA0190302055
B1207463651823N00251872WA0190302055
B1207473651820N00251864WA0190302056
B1207483651818N00251856WA0190302056
B1207493651815N00251848WA0190202056
B1207503651813N00251839WA0190102056
B1207513651811N00251830WA0190102055
B1207523651809N00251821WA0190002055
B1207533651807N00251813WA0190002054
B1207543651805N00251804WA0190002055
B1207553651803N00251796WA0189902054
B1207563651800N00251788WA0189702053
B1207573651798N00251779WA0189602052
B1207583651796N00251771WA0189302051
B1207593651793N00251763WA0189102050
B1208003651790N00251754WA0188902049
B1208013651787N00251746WA0188702047
B1208023651786N00251737WA0188602045
B1208033651785N00251728WA0188402042
B1208043651784N00251720WA0188202040
B1208053651782N00251712WA0187902037
B1208063651779N00251703WA0187602033
B1208073651775N00251694WA0187302029
B1208083651772N00251685WA0187202026
B1208093651770N00251676WA0187102024
B1208103651768N00251668WA0187202023
B1208113651765N00251661WA0187302022
B1208123651762N00251654WA0187202021
B1208133651758N00251647WA0186902020
B1208143651754N00251639WA0186602018
B1208153651751N00251630WA0186602017
B1208163651749N00251621WA0186602016
B1208173651748N00251613WA0186602016
B1208183651748N00251605WA0186702016
B1208193651748N00251596WA0186802016
B1208203651748N00251586WA0186602015
B1208213651747N00251575WA0186502015
B1208223651746N00251565WA0186602015
B1208233651744N00251554WA0186802016
B1208243651743N00251545WA0186902016
B1208253651741N00251537WA0187002017
B1208263651738N00251529WA0186902018
B1208273651734N00251521WA0186602017
B1208283651731N00251511WA0186302015
B1208293651728N00251501WA0186202013
B1208303651726N00251491WA0186102012
B1208313651724N00251481WA0186202012
B1208323651722N00251472WA0186202012
B1208333651720N00251463WA0186402013
B1208343651718N00251456WA0186502014
B1208353651716N00251449WA0186402015
B1208363651715N00251441WA0186202015
B1208373651713N00251433WA0185802013
B1208383651711N00251423WA0185302011
B1208393651710N00251412WA0185202010
B1208403651710N00251401WA0185202009
B1208413651711N00251392WA0185302009
B1208423651713N00251383WA0185202008
B1208433651714N00251374WA0185302008
B1208443651716N00251365WA0185102006
B1208453651718N00251354WA0185002005
B1208463651720N00251344WA0184902003
B1208473651722N00251334WA0184902002
B1208483651724N00251324WA0184902002
B1208493651726N00251315WA0185102003
B1208503651727N00251306WA0185202004
B1208513651727N00251298WA0185402005
B1208523651727N00251289WA0185302005
B1208533651726N00251281WA0185102004
B1208543651726N00251272WA0185002003
B1208553651725N00251263WA0184902003
B1208563651724N00251253WA0184902002
B1208573651722N00251244WA0184902002
B1208583651719N00251235WA0184902002
B1208593651717N00251228WA0184902002
B1209003651715N00251221WA0184802002
B1209013651712N00251213WA0184602001
B1209023651710N00251205WA0184401999
B1209033651708N00251195WA0184201997
B1209043651707N00251184WA0184001995
B1209053651707N00251173WA0184001993
B1209063651707N00251163WA0184101993
B1209073651708N00251153WA0184301994
B1209083651708N00251143WA0184401994
B1209093651708N00251133WA0184401995
B1209103651709N00251123WA0184301995
B1209113651710N00251113WA0184501995
B1209123651711N00251105WA0184701997
B1209133651711N00251098WA0184801999
B1209143651711N00251093WA0184701999
B1209153651709N00251086WA0184301996
B1209163651707N00251076WA0183801993
B1209173651705N00251066WA0183501990
B1209183651704N00251057WA0183601988
B1209193651702N00251050WA0183801991
B1209203651699N00251045WA0183701991
B1209213651696N00251039WA0183601990
B1209223651692N00251031WA0183201989
B1209233651689N00251022WA0182901987
B1209243651686N00251012WA0182901986
B1209253651684N00251004WA0183001986
B1209263651684N00250996WA0183101986
B1209273651683N00250989WA0183101986
B1209283651683N00250981WA0182801985
B1209293651684N00250972WA0182501984
B1209303651685N00250962WA0182301982
B1209313651687N00250952WA0182301981
B1209323651691N00250944WA0182301981
B1209333651695N00250937WA0182301980
B1209343651699N00250931WA0182501979
B1209353651702N00250923WA0182401977
B1209363651705N00250915WA0182301975
B1209373651708N00250905WA0182001974
B1209383651710N00250896WA0181901972
B1209393651713N00250886WA0181901971
B1209403651714N00250878WA0181901971
B1209413651716N00250869WA0181801970
B1209423651718N00250860WA0181701970
B1209433651720N00250851WA0181601968
B1209443651723N00250841WA0181301967
B1209453651726N00250832WA0181101965
B1209463651728N00250823WA0181201964
B1209473651731N00250815WA0181101963
B1209483651734N00250808WA0180901961
B1209493651736N00250800WA0180601960
B1209503651739N00250791WA0180201957
B1209513651743N00250781WA0179901953
B1209523651746N00250771WA0179801950
B1209533651749N00250762WA0179701949
B1209543651751N00250755WA0179601948
B1209553651754N00250747WA0179201946
B1209563651756N00250739WA0178901943
B1209573651759N00250730WA0178401940
B1209583651762N00250722WA0178201936
B1209593651765N00250714WA0177901933
B1210003651768N00250707WA0177801931
B1210013651770N00250701WA0177401929
B1210023651772N00250694WA0177001926
B1210033651774N00250685WA0176501921
B1210043651775N00250676WA0176201916
B1210053651777N00250667WA0175901913
B1210063651778N00250659WA0175901912
B1210073651779N00250653WA0175801912
B1210083651781N00250647WA0175701911
B1210093651783N00250640WA0175301908
B1210103651785N00250631WA0174901905
B1210113651787N00250622WA0174501902
B1210123651789N00250613WA0174401899
B1210133651790N00250606WA0174401898
B1210143651791N00250599WA0174201897
B1210153651792N00250592WA0173801895
B1210163651792N00250584WA0173401893
B1210173651792N00250576WA0173101891
B1210183651791N00250569WA0172901889
B1210193651791N00250561WA0172601887
B1210203651792N00250554WA0172301885
B1210213651794N00250546WA0172201882
B1210223651795N00250539WA0172301880
B1210233651797N00250532WA0172201880
B1210243651798N00250526WA0172201878
B1210253651800N00250518WA0172101877
B1210263651802N00250511WA0172001876
B1210273651804N00250504WA0172001874
B1210283651807N00250497WA0171901873
B1210293651809N00250490WA0172001873
B1210303651810N00250483WA0171801873
B1210313651812N00250477WA0171901873
B1210323651813N00250471WA0171901872
B1210333651815N00250464WA0171801870
B1210343651817N00250458WA0171701869
B1210353651819N00250451WA0171701868
B1210363651821N00250445WA0171701867
B1210373651822N00250438WA0171701867
B1210383651824N00250433WA0171601866
B1210393651825N00250427WA0171401864
B1210403651827N00250420WA0171001862
B1210413651828N00250412WA0170701858
B1210423651829N00250405WA0170401855
B1210433651830N00250398WA0170301853
B1210443651832N00250392WA0169901851
B1210453651835N00250385WA0169501848
B1210463651838N00250378WA0169201845
B1210473651840N00250370WA0169101843
B1210483651841N00250363WA0168901840
B1210493651844N00250357WA0168701839
B1210503651850N00250351WA0168401836
B1210513651856N00250347WA0168001831
B1210523651861N00250342WA0167801829
B1210533651865N00250335WA0167701826
B1210543651867N00250327WA0167501823
B1210553651869N00250318WA0167201821
B1210563651871N00250310WA0167401820
B1210573651873N00250301WA0167801820
B1210583651874N00250294WA0168101822
B1210593651876N00250288WA0168201824
B1211003651876N00250282WA0168101824
B1211013651877N00250275WA0167801823
B1211023651878N00250266WA0167701822
B1211033651879N00250257WA0167701821
B1211043651880N00250249WA0168101825
B1211053651881N00250242WA0168501828
B1211063651882N00250236WA0168801831
B1211073651882N00250231WA0169001834
B1211083651881N00250225WA0169201836
B1211093651880N00250219WA0169301837
B1211103651878N00250215WA0169401838
B1211113651875N00250214WA0169501839
B1211123651873N00250214WA0169701840
B1211133651871N00250217WA0169801841
B1211143651871N00250220WA0170101843
B1211153651874N00250223WA0170301846
B1211163651879N00250225WA0170401848
B1211173651884N00250226WA0170101849
B1211183651890N00250226WA0170201849
B1211193651896N00250225WA0170201851
B1211203651901N00250222WA0170001850
B1211213651907N00250217WA0170101847
B1211223651914N00250210WA0170101846
B1211233651919N00250203WA0170401846
B1211243651923N00250196WA0170601848
B1211253651925N00250189WA0170901849
B1211263651925N00250182WA0171101851
B1211273651924N00250175WA0171201852
B1211283651924N00250168WA0171201852
B1211293651922N00250161WA0171201853
B1211303651920N00250156WA0171401855
B1211313651918N00250152WA0171301855
B1211323651915N00250149WA0171201855
B1211333651913N00250145WA0171201855
B1211343651911N00250140WA0171201854
B1211353651910N00250132WA0171001854
B1211363651911N00250125WA0171001854
B1211373651912N00250118WA0171101854
B1211383651912N00250111WA0171101854
B1211393651912N00250105WA0171001854
B1211403651911N00250099WA0170901853
B1211413651911N00250091WA0170701852
B1211423651912N00250082WA0170501850
B1211433651913N00250073WA0170601849
B1211443651915N00250065WA0170801850
B1211453651916N00250059WA0171001854
B1211463651917N00250054WA0171201855
B1211473651918N00250049WA0171301857
B1211483651917N00250044WA0171401858
B1211493651916N00250039WA0171501859
B1211503651915N00250035WA0171601860
B1211513651914N00250030WA0171801861
B1211523651913N00250025WA0171901861
B1211533651913N00250019WA0172001863
B1211543651914N00250012WA0172201864
B1211553651914N00250006WA0172201865
B1211563651914N00250000WA0172101866
B1211573651912N00249994WA0172201867
B1211583651910N00249988WA0172401869
B1211593651907N00249983WA0172601871
B1212003651905N00249979WA0172701872
B1212013651903N00249977WA0172801873
B1212023651900N00249975WA0172801873
B1212033651897N00249972WA0172801873
B1212043651895N00249967WA0172701873
B1212053651894N00249960WA0172501872
B1212063651894N00249952WA0172201871
B1212073651896N00249944WA0171901871
B1212083651899N00249936WA0171601869
B1212093651902N00249929WA0171701868
B1212103651906N00249923WA0171601867
B1212113651910N00249917WA0171501867
B1212123651915N00249912WA0171401866
B1212133651921N00249908WA0171201863
B1212143651927N00249903WA0171201862
B1212153651932N00249899WA0171301862
B1212163651936N00249894WA0171501861
B1212173651939N00249888WA0171301861
B1212183651943N00249882WA0171101859
B1212193651946N00249876WA0171001858
B1212203651948N00249869WA0171001857
B1212213651948N00249863WA0170901856
B1212223651948N00249857WA0170601855
B1212233651948N00249850WA0170401853
B1212243651950N00249843WA0170401852
B1212253651953N00249836WA0170401851
B1212263651956N00249829WA0170601851
B1212273651960N00249823WA0170901854
B1212283651964N00249818WA0171201857
B1212293651967N00249813WA0171301859
B1212303651971N00249807WA0171301860
B1212313651973N00249800WA0171401861
B1212323651976N00249793WA0171301861
B1212333651978N00249787WA0171601863
B1212343651980N00249782WA0171701864
B1212353651982N00249777WA0171701865
B1212363651984N00249771WA0171101864
B1212373651986N00249762WA0170401863
B1212383651988N00249753WA0170601861
B1212393651991N00249746WA0170901861
B1212403651993N00249741WA0171101862
B1212413651995N00249737WA0171001861
B1212423651998N00249732WA0170901860
B1212433652000N00249725WA0170401858
B1212443652004N00249716WA0170101857
B1212453652008N00249708WA0170401856
B1212463652012N00249702WA0171001858
B1212473652014N00249699WA0171501862
B1212483652016N00249696WA0171601863
B1212493652016N00249691WA0171201862
B1212503652017N00249683WA0170601858
B1212513652018N00249673WA0170401856
B1212523652021N00249664WA0170201854
B1212533652023N00249658WA0170701854
B1212543652025N00249653WA0171001856
B1212553652026N00249648WA0171201858
B1212563652028N00249642WA0171001858
B1212573652030N00249634WA0170801858
B1212583652032N00249627WA0171001858
B1212593652034N00249621WA0171401859
B1213003652036N00249615WA0171701861
B1213013652038N00249608WA0171901862
B1213023652039N00249602WA0172101863
B1213033652040N00249595WA0172201864
B1213043652039N00249588WA0172401867
B1213053652037N00249584WA0172701869
B1213063652034N00249581WA0172901871
B1213073652032N00249580WA0173101873
B1213083652029N00249581WA0173301875
B1213093652027N00249584WA0173401876
B1213103652026N00249587WA0173601877
B1213113652026N00249592WA0173801879
B1213123652028N00249595WA0174001882
B1213133652032N00249598WA0174001883
B1213143652038N00249601WA0173801882
B1213153652046N00249603WA0173701881
B1213163652053N00249602WA0173801881
B1213173652061N00249600WA0173901881
B1213183652067N00249595WA0173901882
B1213193652073N00249590WA0174001882
B1213203652079N00249583WA0174101883
B1213213652084N00249576WA0174301884
B1213223652088N00249569WA0174501886
B1213233652091N00249561WA0174701888
B1213243652091N00249553WA0175101890
B1213253652091N00249547WA0175401893
B1213263652090N00249542WA0175701896
B1213273652089N00249539WA0175801899
B1213283652087N00249538WA0175801900
B1213293652085N00249539WA0175601901
B1213303652083N00249543WA0175301902
B1213313652084N00249549WA0175601903
B1213323652085N00249554WA0176101904
B1213333652089N00249558WA0176401908
B1213343652094N00249560WA0176801912
B1213353652101N00249561WA0177001915
B1213363652108N00249561WA0177101916
B1213373652116N00249561WA0177101916
B1213383652124N00249559WA0177001916
B1213393652132N00249556WA0177201916
B1213403652141N00249551WA0177401917
B1213413652147N00249545WA0177701920
B1213423652152N00249539WA0178101923
B1213433652155N00249533WA0178201925
B1213443652156N00249527WA0178301927
B1213453652158N00249521WA0178401928
B1213463652159N00249513WA0178501929
B1213473652162N00249506WA0178601930
B1213483652165N00249499WA0178901932
B1213493652166N00249492WA0179101934
B1213503652166N00249487WA0179301936
B1213513652165N00249483WA0179401938
B1213523652162N00249480WA0179501938
B1213533652159N00249480WA0179501938
B1213543652155N00249481WA0179201938
B1213553652152N00249483WA0179101939
B1213563652149N00249487WA0179301939
B1213573652147N00249491WA0179501940
B1213583652146N00249496WA0179701941
B1213593652146N00249502WA0180001942
B1214003652148N00249507WA0180301944
B1214013652152N00249512WA0180301946
B1214023652156N00249516WA0180201947
B1214033652161N00249520WA0180001947
B1214043652168N00249523WA0180201948
B1214053652176N00249525WA0180301947
B1214063652184N00249526WA0180501948
B1214073652191N00249524WA0180701949
B1214083652198N00249520WA0180801950
B1214093652204N00249516WA0181001952
B1214103652209N00249511WA0181101954
B1214113652213N00249506WA0181101956
B1214123652217N00249500WA0181001957
B1214133652218N00249494WA0181301959
B1214143652219N00249488WA0181501961
B1214153652219N00249483WA0181701963
B1214163652219N00249478WA0181901964
B1214173652217N00249474WA0182001965
B1214183652215N00249472WA0181701965
B1214193652211N00249470WA0181601964
B1214203652207N00249470WA0181501964
B1214213652203N00249471WA0181601965
B1214223652200N00249474WA0181901966
B1214233652199N00249477WA0182401968
B1214243652200N00249480WA0182601969
B1214253652201N00249484WA0182601970
B1214263652202N00249488WA0182501971
B1214273652203N00249493WA0182601970
B1214283652204N00249499WA0182901971
B1214293652205N00249504WA0183201974
B1214303652208N00249508WA0183501977
B1214313652213N00249510WA0183501978
B1214323652219N00249511WA0183201977
B1214333652226N00249513WA0182901976
B1214343652235N00249513WA0183101975
B1214353652243N00249511WA0183401976
B1214363652250N00249507WA0183501977
B1214373652255N00249501WA0183701978
B1214383652257N00249494WA0183901979
B1214393652258N00249489WA0184101981
B1214403652257N00249485WA0184201982
B1214413652256N00249482WA0184301984
B1214423652253N00249480WA0184201985
B1214433652250N00249479WA0183801985
B1214443652247N00249479WA0183701985
B1214453652244N00249481WA0184001986
B1214463652241N00249484WA0184301987
B1214473652240N00249487WA0184601990
B1214483652240N00249489WA0184701992
B1214493652240N00249491WA0184601992
B1214503652241N00249496WA0184201991
B1214513652243N00249502WA0184001990
B1214523652246N00249507WA0184301990
B1214533652250N00249511WA0184901992
B1214543652254N00249514WA0185301997
B1214553652259N00249516WA0185501999
B1214563652266N00249519WA0185702000
B1214573652273N00249523WA0185802001
B1214583652281N00249525WA0185702002
B1214593652289N00249525WA0186002003
B1215003652296N00249522WA0186202005
B1215013652302N00249517WA0186402007
B1215023652307N00249510WA0186502008
B1215033652310N00249503WA0186602009
B1215043652313N00249496WA0186702010
B1215053652314N00249489WA0186702011
B1215063652313N00249484WA0186602011
B1215073652312N00249478WA0186602011
B1215083652310N00249473WA0186602010
B1215093652308N00249468WA0186802011
B1215103652307N00249464WA0187202013
B1215113652306N00249462WA0187502016
B1215123652305N00249460WA0187702018
B1215133652303N00249459WA0187502019
B1215143652300N00249459WA0187102019
B1215153652297N00249460WA0187302020
B1215163652294N00249462WA0187602021
B1215173652293N00249465WA0187702021
B1215183652292N00249469WA0187402021
B1215193652291N00249474WA0187202020
B1215203652291N00249479WA0187502020
B1215213652292N00249484WA0187602021
B1215223652294N00249489WA0187802022
B1215233652296N00249494WA0187802023
B1215243652299N00249499WA0187902024
B1215253652302N00249504WA0188102024
B1215263652306N00249510WA0188202025
B1215273652310N00249514WA0188502027
B1215283652315N00249516WA0188602029
B1215293652321N00249517WA0188702030
B1215303652329N00249516WA0188202031
B1215313652337N00249515WA0188202030
B1215323652344N00249512WA0188602032
B1215333652350N00249509WA0189002034
B1215343652354N00249506WA0189302036
B1215353652357N00249500WA0189302038
B1215363652359N00249494WA0189202038
B1215373652362N00249487WA0189102038
B1215383652364N00249481WA0189302039
B1215393652365N00249475WA0189602041
B1215403652365N00249471WA0189802043
B1215413652364N00249468WA0189902045
B1215423652363N00249465WA0189902045
B1215433652361N00249461WA0189902046
B1215443652360N00249456WA0190002046
B1215453652358N00249452WA0190202048
B1215463652357N00249448WA0190302050
B1215473652356N00249445WA0190502051
B1215483652354N00249443WA0190402051
B1215493652351N00249440WA0190302050
B1215503652347N00249439WA0190402050
B1215513652345N00249437WA0190602050
B1215523652343N00249436WA0190702052
B1215533652341N00249435WA0190702053
B1215543652338N00249432WA0190402052
B1215553652336N00249427WA0190002050
B1215563652333N00249421WA0189802049
B1215573652331N00249415WA0189702048
B1215583652329N00249409WA0189802048
B1215593652328N00249403WA0190002048
B1216003652328N00249397WA0190102048
B1216013652328N00249391WA0189902048
B1216023652329N00249384WA0189802047
B1216033652330N00249376WA0189702044
B1216043652330N00249368WA0189802043
B1216053652330N00249361WA0190102045
B1216063652330N00249356WA0190102047
B1216073652329N00249352WA0190302048
B1216083652328N00249349WA0190502049
B1216093652326N00249345WA0190402049
B1216103652324N00249342WA0190502050
B1216113652322N00249339WA0190502050
B1216123652319N00249335WA0190502049
B1216133652316N00249331WA0190402048
B1216143652312N00249326WA0190402048
B1216153652309N00249321WA0190402048
B1216163652307N00249316WA0190502048
B1216173652304N00249310WA0190402048
B1216183652301N00249305WA0190402048
B1216193652299N00249299WA0190402048
B1216203652296N00249293WA0190402048
B1216213652294N00249287WA0190402048
B1216223652291N00249281WA0190402048
B1216233652288N00249275WA0190202047
B1216243652285N00249270WA0190102046
B1216253652281N00249264WA0190202046
B1216263652279N00249258WA0190202045
B1216273652277N00249251WA0190202046
B1216283652275N00249244WA0190102046
B1216293652273N00249237WA0190002046
B1216303652270N00249231WA0189902046
B1216313652268N00249223WA0189802046
B1216323652267N00249216WA0189802046
B1216333652266N00249208WA0189902045
B1216343652266N00249200WA0189902045
B1216353652265N00249192WA0189902045
B1216363652264N00249184WA0189702043
B1216373652262N00249176WA0189302042
B1216383652260N00249169WA0189002040
B1216393652258N00249161WA0189102038
B1216403652257N00249154WA0189102037
B1216413652256N00249148WA0189002036
B1216423652254N00249142WA0188902036
B1216433652252N00249136WA0188702035
B1216443652249N00249130WA0188602033
B1216453652246N00249124WA0188502031
B1216463652242N00249119WA0188602031
B1216473652239N00249114WA0188702032
B1216483652236N00249111WA0188702033
B1216493652233N00249107WA0188702033
B1216503652230N00249102WA0188402031
B1216513652226N00249097WA0188302030
B1216523652222N00249093WA0188302029
B1216533652218N00249089WA0188202028
B1216543652214N00249084WA0188202028
B1216553652210N00249080WA0188002027
B1216563652205N00249076WA0187802026
B1216573652201N00249073WA0187602024
B1216583652196N00249069WA0187302021
B1216593652191N00249066WA0187202019
B1217003652187N00249062WA0187102017
B1217013652182N00249057WA0186902016
B1217023652178N00249052WA0186802014
B1217033652174N00249047WA0186602013
B1217043652169N00249042WA0186402011
B1217053652165N00249037WA0186002010
B1217063652160N00249032WA0185702008
B1217073652156N00249026WA0185602006
B1217083652152N00249019WA0185402004
B1217093652148N00249011WA0185302003
B1217103652145N00249004WA0185202001
B1217113652142N00248996WA0185102000
B1217123652139N00248988WA0185001999
B1217133652137N00248980WA0184901998
B1217143652134N00248972WA0184801998
B1217153652132N00248965WA0184801997
B1217163652129N00248957WA0184601996
B1217173652126N00248949WA0184401993
B1217183652123N00248941WA0184301991
B1217193652120N00248933WA0184101989
B1217203652118N00248926WA0184101988
B1217213652116N00248918WA0184001987
B1217223652113N00248910WA0183801986
B1217233652111N00248902WA0183601984
B1217243652109N00248894WA0183501983
B1217253652106N00248886WA0183301981
B1217263652104N00248878WA0183101979
B1217273652102N00248870WA0182901977
B1217283652100N00248862WA0182601975
B1217293652097N00248853WA0182301972
B1217303652096N00248844WA0182201969
B1217313652094N00248835WA0181901967
B1217323652093N00248827WA0181901966
B1217333652091N00248819WA0181801965
B1217343652089N00248811WA0181601964
B1217353652087N00248802WA0181401963
B1217363652086N00248793WA0181401962
B1217373652086N00248785WA0181401961
B1217383652086N00248777WA0181201959
B1217393652086N00248768WA0180901958
B1217403652085N00248760WA0180701956
B1217413652084N00248751WA0180701954
B1217423652083N00248742WA0180701953
B1217433652082N00248734WA0180601953
B1217443652080N00248727WA0180501952
B1217453652077N00248720WA0180401951
B1217463652074N00248713WA0180401950
B1217473652071N00248707WA0180401950
B1217483652068N00248700WA0180301949
B1217493652066N00248693WA0180301949
B1217503652064N00248686WA0180301948
B1217513652061N00248678WA0180101947
B1217523652058N00248671WA0179801946
B1217533652055N00248663WA0179601944
B1217543652052N00248656WA0179601943
B1217553652049N00248650WA0179801943
B1217563652046N00248644WA0179901944
B1217573652043N00248638WA0179901944
B1217583652041N00248632WA0179801944
B1217593652039N00248626WA0179701943
B1218003652037N00248619WA0179501942
B1218013652035N00248611WA0179501941
B1218023652035N00248603WA0179401940
B1218033652034N00248595WA0179401940
B1218043652034N00248587WA0179501940
B1218053652033N00248580WA0179401940
B1218063652032N00248572WA0179301939
B1218073652032N00248564WA0179101938
B1218083652031N00248555WA0179001937
B1218093652031N00248545WA0179001936
B1218103652031N00248537WA0178901936
B1218113652031N00248529WA0179001936
B1218123652030N00248522WA0179001936
B1218133652029N00248514WA0178901936
B1218143652029N00248506WA0178801935
B1218153652029N00248497WA0178801934
B1218163652030N00248488WA0178801933
B1218173652032N00248478WA0178801932
B1218183652033N00248468WA0178901934
B1218193652033N00248460WA0179101935
B1218203652032N00248453WA0179001935
B1218213652032N00248445WA0178801935
B1218223652031N00248436WA0178501934
B1218233652032N00248426WA0178301932
B1218243652032N00248416WA0178301930
B1218253652032N00248407WA0178401930
B1218263652032N00248399WA0178501931
B1218273652031N00248391WA0178401931
B1218283652030N00248383WA0178101929
B1218293652030N00248373WA0177701926
B1218303652029N00248363WA0177401923
B1218313652028N00248353WA0177301921
B1218323652029N00248343WA0177401920
B1218333652030N00248334WA0177301920
B1218343652031N00248325WA0177301920
B1218353652032N00248317WA0177401919
B1218363652032N00248310WA0177501919
B1218373652032N00248303WA0177401919
B1218383652032N00248296WA0177201919
B1218393652033N00248289WA0176901918
B1218403652034N00248281WA0176701916
B1218413652037N00248272WA0176501914
B1218423652039N00248264WA0176401911
B1218433652041N00248257WA0176401911
B1218443652043N00248250WA0176301910
B1218453652044N00248243WA0176201908
B1218463652046N00248235WA0175901906
B1218473652048N00248226WA0175801904
B1218483652050N00248217WA0175801902
B1218493652052N00248209WA0176001903
B1218503652054N00248203WA0176101906
B1218513652055N00248196WA0176201906
B1218523652057N00248188WA0176001906
B1218533652059N00248179WA0175801905
B1218543652062N00248169WA0175701904
B1218553652064N00248159WA0175701903
B1218563652066N00248150WA0176001904
B1218573652067N00248144WA0176201906
B1218583652067N00248137WA0176201907
B1218593652066N00248129WA0176101907
B1219003652066N00248121WA0175701907
B1219013652067N00248112WA0175501906
B1219023652068N00248103WA0175501905
B1219033652070N00248095WA0175601905
B1219043652070N00248087WA0175601905
B1219053652070N00248078WA0175401902
B1219063652070N00248068WA0175001900
B1219073652071N00248058WA0175201899
B1219083652073N00248050WA0175301899
B1219093652074N00248043WA0175401898
B1219103652074N00248034WA0175301897
B1219113652074N00248025WA0174901895
B1219123652073N00248015WA0174701893
B1219133652073N00248005WA0174801893
B1219143652072N00247997WA0174901893
B1219153652072N00247989WA0174901894
B1219163652072N00247982WA0174901894
B1219173652072N00247974WA0174601893
B1219183652073N00247966WA0174401891
B1219193652073N00247957WA0174001889
B1219203652075N00247947WA0173801887
B1219213652077N00247938WA0173801886
B1219223652080N00247929WA0173901885
B1219233652084N00247921WA0174001885
B1219243652087N00247914WA0173901884
B1219253652091N00247905WA0173801883
B1219263652094N00247897WA0173701882
B1219273652097N00247888WA0173701881
B1219283652100N00247880WA0173701880
B1219293652103N00247872WA0173701880
B1219303652106N00247864WA0173801880
B1219313652108N00247856WA0174001880
B1219323652110N00247848WA0174201881
B1219333652111N00247841WA0174501885
B1219343652112N00247835WA0174601888
B1219353652111N00247828WA0174801889
B1219363652110N00247822WA0175001891
B1219373652107N00247819WA0175201893
B1219383652105N00247817WA0175401895
B1219393652102N00247816WA0175401896
B1219403652099N00247816WA0175501896
B1219413652096N00247816WA0175501897
B1219423652093N00247816WA0175501897
B1219433652090N00247816WA0175801899
B1219443652087N00247817WA0176001901
B1219453652085N00247818WA0176101903
B1219463652083N00247819WA0176301904
B1219473652080N00247821WA0176301905
B1219483652078N00247823WA0176401906
B1219493652076N00247826WA0176601908
B1219503652078N00247829WA0176701910
B1219513652081N00247832WA0176701910
B1219523652085N00247834WA0176701909
B1219533652089N00247835WA0176701909
B1219543652095N00247835WA0176701909
B1219553652101N00247832WA0176801909
B1219563652108N00247827WA0177001910
B1219573652113N00247821WA0177101911
B1219583652117N00247813WA0177301912
B1219593652118N00247804WA0177301913
B1220003652118N00247795WA0177501914
B1220013652116N00247789WA0177801916
B1220023652114N00247785WA0178001920
B1220033652112N00247782WA0178201922
B1220043652109N00247780WA0178201924
B1220053652106N00247777WA0178201925
B1220063652103N00247773WA0178301925
B1220073652100N00247768WA0178301926
B1220083652097N00247764WA0178401927
B1220093652094N00247760WA0178401927
B1220103652090N00247757WA0178401927
B1220113652086N00247753WA0178401927
B1220123652083N00247748WA0178501928
B1220133652081N00247742WA0178401929
B1220143652079N00247734WA0178201929
B1220153652079N00247726WA0178401929
B1220163652078N00247719WA0178401930
B1220173652075N00247712WA0178401929
B1220183652072N00247706WA0178401928
B1220193652069N00247700WA0178501928
B1220203652066N00247694WA0178701929
B1220213652063N00247690WA0178801932
B1220223652060N00247686WA0178801932
B1220233652056N00247683WA0178701932
B1220243652052N00247678WA0178701932
B1220253652049N00247672WA0178501932
B1220263652047N00247663WA0178201931
B1220273652046N00247655WA0178201931
B1220283652046N00247646WA0178301931
B1220293652046N00247638WA0178201931
B1220303652046N00247630WA0178001929
B1220313652047N00247621WA0177601928
B1220323652049N00247611WA0177301926
B1220333652051N00247600WA0177201924
B1220343652052N00247590WA0177201922
B1220353652052N00247581WA0177301921
B1220363652050N00247572WA0177401920
B1220373652049N00247564WA0177301920
B1220383652048N00247556WA0177301919
B1220393652046N00247548WA0177201919
B1220403652044N00247539WA0177101918
B1220413652041N00247531WA0177201918
B1220423652038N00247524WA0177301918
B1220433652036N00247517WA0177401919
B1220443652034N00247511WA0177501920
B1220453652033N00247506WA0177501920
B1220463652031N00247500WA0177501920
B1220473652028N00247495WA0177401919
B1220483652026N00247489WA0177301918
B1220493652023N00247483WA0177301917
B1220503652020N00247477WA0177401917
B1220513652018N00247471WA0177401917
B1220523652017N00247465WA0177401917
B1220533652015N00247459WA0177301917
B1220543652013N00247454WA0177101916
B1220553652009N00247448WA0176901914
B1220563652005N00247441WA0176801913
B1220573652002N00247435WA0176601912
B1220583652000N00247430WA0176601911
B1220593651998N00247425WA0176401910
B1221003651995N00247419WA0176201907
B1221013651992N00247413WA0175801904
B1221023651988N00247407WA0175501901
B1221033651985N00247399WA0175301899
B1221043651983N00247392WA0175201897
B1221053651981N00247385WA0175101896
B1221063651979N00247378WA0174801894
B1221073651977N00247371WA0174601892
B1221083651974N00247363WA0174101890
B1221093651972N00247355WA0174001887
B1221103651969N00247347WA0174101886
B1221113651968N00247339WA0174201886
B1221123651966N00247332WA0174001886
B1221133651964N00247325WA0173801885
B1221143651961N00247318WA0173601883
B1221153651958N00247311WA0173501881
B1221163651955N00247304WA0173401879
B1221173651952N00247298WA0173201877
B1221183651949N00247291WA0173101876
B1221193651946N00247285WA0173001875
B1221203651943N00247280WA0172901874
B1221213651940N00247274WA0172801872
B1221223651937N00247268WA0172701871
B1221233651934N00247261WA0172701871
B1221243651932N00247255WA0172601870
B1221253651929N00247248WA0172401869
B1221263651927N00247241WA0172201867
B1221273651924N00247233WA0172001866
B1221283651921N00247224WA0171801864
B1221293651918N00247216WA0171801863
B1221303651916N00247208WA0171601862
B1221313651915N00247199WA0171401860
B1221323651912N00247190WA0171001858
B1221333651910N00247181WA0170401854
B1221343651907N00247172WA0170001850
B1221353651904N00247163WA0169901847
B1221363651903N00247155WA0169601845
B1221373651901N00247146WA0169401843
B1221383651899N00247138WA0169201840
B1221393651897N00247129WA0169001837
B1221403651894N00247121WA0169001834
B1221413651892N00247112WA0168901833
B1221423651891N00247104WA0168701832
B1221433651890N00247095WA0168701831
B1221443651889N00247086WA0168701831
B1221453651887N00247077WA0168701830
B1221463651885N00247069WA0168701830
B1221473651883N00247061WA0168401829
B1221483651881N00247053WA0168201828
B1221493651879N00247045WA0168301827
B1221503651878N00247038WA0168401828
B1221513651878N00247033WA0168701829
B1221523651877N00247028WA0168801830
B1221533651877N00247024WA0168901830
B1221543651877N00247019WA0168801830
B1221553651875N00247012WA0168501827
B1221563651874N00247005WA0168501826
B1221573651872N00247000WA0168801827
B1221583651871N00246997WA0169101829
B1221593651870N00246993WA0169301832
B1222003651870N00246989WA0169301834
B1222013651868N00246984WA0169301834
B1222023651866N00246980WA0169201835
B1222033651863N00246976WA0169301835
B1222043651861N00246973WA0169501837
B1222053651859N00246971WA0169701840
B1222063651858N00246967WA0169901842
B1222073651857N00246963WA0170101843
B1222083651856N00246958WA0170201844
B1222093651854N00246954WA0170201845
B1222103651852N00246952WA0170401846
B1222113651849N00246950WA0170501847
B1222123651846N00246949WA0170701848
B1222133651844N00246948WA0170901850
B1222143651843N00246948WA0171101852
B1222153651841N00246950WA0171301854
B1222163651839N00246953WA0171501856
B1222173651839N00246957WA0171501857
B1222183651839N00246962WA0171601858
B1222193651841N00246968WA0171701859
B1222203651844N00246973WA0171701859
B1222213651849N00246978WA0171501858
B1222223651856N00246981WA0171001857
B1222233651864N00246982WA0170901856
B1222243651871N00246980WA0171101856
B1222253651877N00246976WA0171201856
B1222263651882N00246973WA0171201856
B1222273651887N00246969WA0171301855
B1222283651893N00246965WA0171301855
B1222293651898N00246959WA0171401855
B1222303651904N00246951WA0171401855
B1222313651909N00246943WA0171701855
B1222323651912N00246937WA0171901857
B1222333651914N00246931WA0172201859
B1222343651915N00246925WA0172201860
B1222353651915N00246920WA0172201861
B1222363651914N00246914WA0172101861
B1222373651912N00246907WA0172001861
B1222383651910N00246901WA0172101861
B1222393651909N00246896WA0172201863
B1222403651908N00246891WA0172301864
B1222413651906N00246887WA0172301864
B1222423651904N00246882WA0172101864
B1222433651902N00246877WA0172001862
B1222443651900N00246872WA0171901862
B1222453651897N00246867WA0171901861
B1222463651895N00246863WA0172001862
B1222473651894N00246860WA0172101862
B1222483651893N00246857WA0172101863
B1222493651891N00246853WA0172101863
B1222503651889N00246849WA0172001863
B1222513651888N00246845WA0172001862
B1222523651886N00246841WA0172001862
B1222533651884N00246838WA0172101862
B1222543651883N00246834WA0172001863
B1222553651881N00246830WA0171901863
B1222563651879N00246826WA0171801863
B1222573651877N00246822WA0171701863
B1222583651874N00246818WA0171601862
B1222593651872N00246814WA0171601860
B1223003651870N00246808WA0171601860
B1223013651869N00246802WA0171701860
B1223023651870N00246796WA0171701860
B1223033651871N00246791WA0171601860
B1223043651871N00246786WA0171501859
B1223053651870N00246781WA0171401858
B1223063651869N00246776WA0171101856
B1223073651867N00246772WA0171101855
B1223083651866N00246767WA0171001854
B1223093651865N00246762WA0171001854
B1223103651864N00246758WA0171101854
B1223113651862N00246753WA0171101854
B1223123651860N00246748WA0171101854
B1223133651858N00246744WA0171201855
B1223143651857N00246740WA0171101855
B1223153651856N00246735WA0171101855
B1223163651855N00246730WA0171301855
B1223173651854N00246725WA0171401856
B1223183651853N00246722WA0171501858
B1223193651851N00246720WA0171601859
B1223203651850N00246717WA0171601859
B1223213651848N00246714WA0171401858
B1223223651846N00246710WA0171301857
B1223233651843N00246707WA0171301856
B1223243651840N00246703WA0171401856
B1223253651837N00246700WA0171501857
B1223263651836N00246697WA0171601858
B1223273651834N00246694WA0171501859
B1223283651832N00246691WA0171401858
B1223293651829N00246688WA0171101855
B1223303651825N00246686WA0171001854
B1223313651822N00246684WA0171101854
B1223323651820N00246683WA0171201854
B1223333651818N00246683WA0171301855
B1223343651815N00246683WA0171101854
B1223353651811N00246681WA0170901853
B1223363651807N00246679WA0171001852
B1223373651803N00246676WA0171101852
B1223383651800N00246673WA0171101853
B1223393651798N00246670WA0171001854
B1223403651795N00246667WA0170801852
B1223413651791N00246664WA0170601850
B1223423651787N00246660WA0170501848
B1223433651782N00246657WA0170501847
B1223443651778N00246653WA0170601847
B1223453651774N00246650WA0170701848
B1223463651772N00246648WA0170801849
B1223473651769N00246645WA0170701849
B1223483651765N00246641WA0170401848
B1223493651760N00246637WA0170201846
B1223503651757N00246632WA0170201845
B1223513651754N00246627WA0170301844
B1223523651752N00246622WA0170301845
B1223533651750N00246618WA0170001844
B1223543651748N00246614WA0169501842
B1223553651745N00246608WA0169301839
B1223563651742N00246601WA0169201837
B1223573651740N00246594WA0169101836
B1223583651738N00246587WA0169201836
B1223593651736N00246581WA0169101835
B1224003651734N00246575WA0169001834
B1224013651732N00246569WA0168701833
B1224023651729N00246563WA0168401830
B1224033651725N00246558WA0168201827
B1224043651721N00246552WA0168001825
B1224053651718N00246548WA0168101824
B1224063651714N00246544WA0168101823
B1224073651711N00246539WA0168001824
B1224083651709N00246534WA0168001823
B1224093651706N00246528WA0167801822
B1224103651703N00246522WA0167601821
B1224113651700N00246516WA0167201819
B1224123651696N00246510WA0167001818
B1224133651693N00246505WA0166901816
B1224143651691N00246500WA0167001815
B1224153651688N00246494WA0166801813
B1224163651686N00246488WA0166601811
B1224173651684N00246483WA0166301809
B1224183651681N00246477WA0166101806
B1224193651678N00246471WA0166001804
B1224203651675N00246464WA0165701802
B1224213651672N00246457WA0165501801
B1224223651669N00246451WA0165401799
B1224233651666N00246445WA0165201797
B1224243651663N00246439WA0164901794
B1224253651660N00246433WA0164701792
B1224263651657N00246427WA0164601790
B1224273651654N00246421WA0164501788
B1224283651652N00246415WA0164301787
B1224293651649N00246409WA0164001785
B1224303651645N00246404WA0163801782
B1224313651642N00246398WA0163601780
B1224323651640N00246391WA0163401778
B1224333651638N00246385WA0163201776
B1224343651636N00246379WA0163001775
B1224353651633N00246372WA0162801772
B1224363651631N00246365WA0162601770
B1224373651628N00246359WA0162501769
B1224383651626N00246352WA0162501768
B1224393651625N00246346WA0162401768
B1224403651623N00246340WA0162201767
B1224413651622N00246334WA0161901765
B1224423651620N00246328WA0161301763
B1224433651617N00246321WA0161001760
B1224443651614N00246314WA0161201757
B1224453651611N00246308WA0161201756
B1224463651609N00246302WA0161301756
B1224473651607N00246297WA0161301756
B1224483651604N00246291WA0161101755
B1224493651601N00246285WA0161001754
B1224503651598N00246279WA0160701752
B1224513651594N00246273WA0160601751
B1224523651591N00246268WA0160601750
B1224533651588N00246263WA0160401749
B1224543651585N00246257WA0160201747
B1224553651582N00246251WA0159901744
B1224563651578N00246244WA0159601741
B1224573651574N00246238WA0159401738
B1224583651571N00246231WA0159201736
B1224593651568N00246225WA0159101734
B1225003651565N00246218WA0159001732
B1225013651562N00246213WA0158801731
B1225023651559N00246207WA0158601729
B1225033651555N00246200WA0158501727
B1225043651553N00246193WA0158801726
B1225053651551N00246187WA0158801727
B1225063651550N00246181WA0159001729
B1225073651549N00246176WA0158701729
B1225083651546N00246171WA0158401728
B1225093651542N00246166WA0157901724
B1225103651538N00246161WA0157601721
B1225113651535N00246156WA0157501720
B1225123651534N00246152WA0157201718
B1225133651532N00246147WA0157101716
B1225143651529N00246142WA0156701713
B1225153651526N00246135WA0156101710
B1225163651523N00246129WA0155901706
B1225173651520N00246122WA0155701704
B1225183651519N00246117WA0155701704
B1225193651517N00246112WA0155601703
B1225203651514N00246106WA0155101701
B1225213651511N00246100WA0154701698
B1225223651509N00246093WA0154701695
B1225233651507N00246086WA0154901694
B1225243651505N00246079WA0155101694
B1225253651503N00246073WA0155301694
B1225263651501N00246068WA0155401696
B1225273651498N00246063WA0155401696
B1225283651495N00246058WA0155501696
B1225293651492N00246053WA0155501696
B1225303651489N00246049WA0155601696
B1225313651486N00246044WA0155501696
B1225323651483N00246040WA0155401696
B1225333651479N00246036WA0155301694
B1225343651474N00246032WA0155301693
B1225353651469N00246028WA0155401693
B1225363651465N00246023WA0155601695
B1225373651463N00246018WA0155701696
B1225383651461N00246012WA0155701697
B1225393651459N00246007WA0155401695
B1225403651456N00246002WA0155001693
B1225413651451N00245997WA0154601691
B1225423651445N00245992WA0154101686
B1225433651440N00245987WA0154001683
B1225443651436N00245982WA0153801681
B1225453651432N00245975WA0153401678
B1225463651428N00245969WA0153301675
B1225473651422N00245964WA0153101673
B1225483651417N00245959WA0153001672
B1225493651414N00245955WA0153101672
B1225503651410N00245950WA0152901671
B1225513651406N00245946WA0152701669
B1225523651401N00245942WA0152301667
B1225533651396N00245937WA0151901664
B1225543651391N00245932WA0151601662
B1225553651388N00245926WA0151601660
B1225563651385N00245920WA0151401659
B1225573651382N00245915WA0151101657
B1225583651379N00245910WA0150801655
B1225593651375N00245904WA0150701651
B1226003651372N00245897WA0150601649
B1226013651369N00245890WA0150601648
B1226023651367N00245884WA0150701649
B1226033651365N00245877WA0150701649
B1226043651363N00245871WA0150501648
B1226053651361N00245864WA0150401647
B1226063651359N00245857WA0150201645
B1226073651357N00245849WA0150101644
B1226083651355N00245841WA0150001642
B1226093651353N00245833WA0149801641
B1226103651352N00245825WA0149701639
B1226113651351N00245818WA0149601638
B1226123651350N00245810WA0149401636
B1226133651349N00245802WA0149301635
B1226143651348N00245794WA0149101632
B1226153651346N00245785WA0148901630
B1226163651345N00245777WA0148701629
B1226173651343N00245770WA0148601627
B1226183651342N00245762WA0148501626
B1226193651341N00245755WA0148101624
B1226203651339N00245748WA0147901622
B1226213651337N00245740WA0147801620
B1226223651335N00245732WA0147501618
B1226233651334N00245724WA0147301616
B1226243651332N00245717WA0147301614
B1226253651331N00245709WA0147201613
B1226263651330N00245702WA0147001611
B1226273651328N00245694WA0146701609
B1226283651327N00245686WA0146401607
B1226293651325N00245677WA0146101604
B1226303651323N00245670WA0146001602
B1226313651321N00245662WA0145901600
B1226323651319N00245655WA0145601597
B1226333651317N00245648WA0145201595
B1226343651315N00245640WA0144901592
B1226353651313N00245631WA0144501588
B1226363651311N00245622WA0144301585
B1226373651310N00245613WA0144201584
B1226383651308N00245606WA0144001582
B1226393651307N00245598WA0143801580
B1226403651305N00245590WA0143301578
B1226413651303N00245581WA0143301576
B1226423651301N00245574WA0143101573
B1226433651299N00245566WA0143001572
B1226443651297N00245559WA0142801570
B1226453651295N00245551WA0142501568
B1226463651293N00245543WA0142301566
B1226473651291N00245536WA0142001563
B1226483651288N00245528WA0141701561
B1226493651286N00245521WA0141601558
B1226503651284N00245513WA0141201555
B1226513651283N00245504WA0141101552
B1226523651281N00245495WA0140801550
B1226533651280N00245487WA0140601547
B1226543651278N00245478WA0140501545
B1226553651276N00245471WA0140601545
B1226563651275N00245463WA0140501545
B1226573651273N00245456WA0140501545
B1226583651270N00245448WA0140301543
B1226593651267N00245441WA0140101542
B1227003651264N00245434WA0139801540
B1227013651261N00245428WA0139601538
B1227023651258N00245422WA0139301536
B1227033651255N00245416WA0138801533
B1227043651252N00245408WA0138301530
B1227053651249N00245400WA0138101527
B1227063651246N00245393WA0137801525
B1227073651244N00245385WA0138001523
B1227083651242N00245379WA0138001523
B1227093651240N00245372WA0138001522
B1227103651238N00245365WA0137801521
B1227113651235N00245358WA0137601518
B1227123651233N00245351WA0137501517
B1227133651230N00245345WA0137401515
B1227143651228N00245338WA0137401514
B1227153651224N00245331WA0137201513
B1227163651221N00245324WA0137201511
B1227173651218N00245317WA0137201511
B1227183651216N00245311WA0137201511
B1227193651213N00245304WA0137101510
B1227203651211N00245297WA0137101509
B1227213651209N00245289WA0137001509
B1227223651208N00245281WA0137201509
B1227233651207N00245274WA0137401511
B1227243651207N00245267WA0137401512
B1227253651205N00245260WA0137301512
B1227263651203N00245252WA0137201511
B1227273651202N00245245WA0137201511
B1227283651201N00245237WA0137201511
B1227293651201N00245231WA0137401511
B1227303651200N00245224WA0137301511
B1227313651199N00245217WA0137301511
B1227323651198N00245208WA0137301510
B1227333651196N00245200WA0137301510
B1227343651195N00245192WA0137501511
B1227353651194N00245185WA0137601512
B1227363651192N00245180WA0137701513
B1227373651190N00245176WA0137701514
B1227383651188N00245173WA0137501513
B1227393651185N00245173WA0137501512
B1227403651182N00245174WA0137401510
B1227413651181N00245177WA0137401509
B1227423651182N00245181WA0137001509
B1227433651185N00245184WA0137101509
B1227443651189N00245187WA0137101508
B1227453651195N00245189WA0137001507
B1227463651201N00245189WA0136901507
B1227473651209N00245188WA0136801506
B1227483651216N00245185WA0136701505
B1227493651223N00245181WA0137101505
B1227503651229N00245176WA0137301508
B1227513651232N00245170WA0137601510
B1227523651235N00245164WA0137601512
B1227533651238N00245158WA0137601512
B1227543651240N00245151WA0137401512
B1227553651243N00245141WA0137001511
B1227563651245N00245132WA0136801510
B1227573651246N00245123WA0137001509
B1227583651246N00245115WA0137001509
B1227593651245N00245107WA0137101508
B1228003651245N00245100WA0137001508
B1228013651244N00245093WA0137001508
B1228023651243N00245085WA0136901507
B1228033651242N00245077WA0136801507
B1228043651240N00245068WA0136701506
B1228053651238N00245061WA0136701506
B1228063651237N00245054WA0136801507
B1228073651235N00245048WA0136801507
B1228083651233N00245042WA0136701507
B1228093651230N00245036WA0136601505
B1228103651228N00245030WA0136501504
B1228113651225N00245025WA0136401502
B1228123651223N00245019WA0136401502
B1228133651220N00245013WA0136201501
B1228143651218N00245007WA0136101500
B1228153651216N00245001WA0135801499
B1228163651215N00244995WA0135601498
B1228173651213N00244988WA0135301496
B1228183651211N00244982WA0134901494
B1228193651208N00244975WA0134701492
B1228203651204N00244968WA0134801490
B1228213651201N00244962WA0134901489
B1228223651198N00244956WA0135001490
B1228233651196N00244949WA0135001490
B1228243651194N00244943WA0134901489
B1228253651192N00244936WA0134801489
B1228263651189N00244930WA0134601487
B1228273651186N00244923WA0134601485
B1228283651183N00244917WA0134601485
B1228293651181N00244911WA0134501485
B1228303651179N00244905WA0134201484
B1228313651177N00244899WA0133901482
B1228323651173N00244893WA0133701481
B1228333651170N00244887WA0133701480
B1228343651167N00244881WA0133801479
B1228353651166N00244876WA0134101481
B1228363651164N00244872WA0134001480
B1228373651161N00244867WA0133901479
B1228383651157N00244863WA0133701476
B1228393651154N00244858WA0133601474
B1228403651151N00244854WA0133501473
B1228413651149N00244851WA0133601472
B1228423651147N00244847WA0133701472
B1228433651145N00244843WA0133701472
B1228443651144N00244838WA0133701473
B1228453651142N00244834WA0133701473
B1228463651140N00244829WA0133701473
B1228473651138N00244826WA0133601473
B1228483651135N00244822WA0133601472
B1228493651133N00244818WA0133601472
B1228503651132N00244813WA0133601472
B1228513651130N00244809WA0133601472
B1228523651128N00244804WA0133301471
B1228533651125N00244799WA0133101470
B1228543651122N00244794WA0133001468
B1228553651120N00244788WA0132601466
B1228563651117N00244783WA0132501465
B1228573651115N00244778WA0132301464
B1228583651113N00244774WA0132301463
B1228593651110N00244770WA0132101461
B1229003651108N00244766WA0132001460
B1229013651106N00244762WA0132001459
B1229023651104N00244758WA0131901458
B1229033651101N00244755WA0131801458
B1229043651099N00244752WA0131601457
B1229053651095N00244749WA0131401456
B1229063651092N00244746WA0131301454
B1229073651089N00244743WA0131601453
B1229083651087N00244740WA0131501452
B1229093651084N00244738WA0131301450
B1229103651081N00244736WA0131001448
B1229113651077N00244733WA0130601446
B1229123651073N00244730WA0130201443
B1229133651069N00244727WA0129801439
B1229143651064N00244724WA0129501436
B1229153651059N00244721WA0129301433
B1229163651056N00244719WA0129101431
B1229173651052N00244716WA0129001429
B1229183651048N00244713WA0128501426
B1229193651044N00244710WA0128201422
B1229203651039N00244707WA0127701418
B1229213651034N00244704WA0127301413
B1229223651030N00244702WA0127101410
B1229233651026N00244699WA0127101408
B1229243651023N00244695WA0126901407
B1229253651021N00244691WA0126701405
B1229263651017N00244688WA0126001402
B1229273651013N00244684WA0125301397
B1229283651007N00244681WA0124801392
B1229293651002N00244677WA0125001389
B1229303650998N00244673WA0124801386
B1229313650995N00244669WA0124901384
B1229323650993N00244667WA0125001386
B1229333650992N00244665WA0124801385
B1229343650990N00244663WA0124301383
B1229353650987N00244660WA0123901380
B1229363650984N00244657WA0123701377
B1229373650980N00244654WA0123601374
B1229383650977N00244652WA0123801373
B1229393650976N00244650WA0123801374
B1229403650976N00244647WA0123701374
B1229413650974N00244644WA0123301372
B1229423650972N00244642WA0122701370
B1229433650967N00244640WA0122101366
B1229443650962N00244637WA0121801362
B1229453650957N00244635WA0121901360
B1229463650953N00244633WA0122201364
B1229473650951N00244631WA0122601365
B1229483650951N00244630WA0122701367
B1229493650951N00244629WA0122801368
B1229503650950N00244628WA0122601367
B1229513650947N00244627WA0122201366
B1229523650944N00244626WA0122001363
B1229533650941N00244625WA0121901361
B1229543650938N00244622WA0122001360
B1229553650936N00244620WA0122001359
B1229563650935N00244617WA0122001358
B1229573650934N00244614WA0121801357
B1229583650932N00244611WA0121501355
B1229593650929N00244608WA0120901351
B1230003650926N00244605WA0120701349
B1230013650923N00244601WA0120501346
B1230023650920N00244598WA0120501345
B1230033650918N00244594WA0120801344
B1230043650916N00244591WA0121001347
B1230053650914N00244587WA0121001348
B1230063650913N00244583WA0121101349
B1230073650912N00244581WA0120901348
B1230083650910N00244579WA0120801346
B1230093650908N00244576WA0120501345
B1230103650905N00244573WA0120501344
B1230113650903N00244570WA0120701344
B1230123650901N00244566WA0120801345
B1230133650899N00244563WA0121001346
B1230143650897N00244561WA0121001347
B1230153650894N00244558WA0121101347
B1230163650891N00244554WA0121101347
B1230173650888N00244548WA0121201348
B1230183650886N00244543WA0121801350
B1230193650885N00244539WA0122201355
B1230203650884N00244536WA0122401357
B1230213650882N00244535WA0122401359
B1230223650881N00244536WA0122401360
B1230233650880N00244537WA0122301360
B1230243650880N00244539WA0122301359
B1230253650882N00244542WA0122201358
B1230263650887N00244546WA0122201357
B1230273650894N00244549WA0122201355
B1230283650903N00244549WA0122501354
B1230293650911N00244545WA0122801356
B1230303650918N00244539WA0123201359
B1230313650923N00244532WA0123301362
B1230323650927N00244523WA0123401364
B1230333650929N00244513WA0123501365
B1230343650930N00244503WA0123601366
B1230353650929N00244494WA0123801367
B1230363650927N00244486WA0123801369
B1230373650926N00244479WA0124001370
B1230383650924N00244473WA0124201372
B1230393650922N00244469WA0124401373
B1230403650921N00244467WA0124401374
B1230413650919N00244467WA0124201374
B1230423650919N00244469WA0124101373
B1230433650920N00244473WA0123801373
B1230443650925N00244477WA0123201370
B1230453650931N00244479WA0123201368
B1230463650939N00244478WA0123701368
B1230473650946N00244475WA0123801367
B1230483650953N00244470WA0123901369
B1230493650959N00244464WA0124001370
B1230503650965N00244457WA0124101370
B1230513650968N00244450WA0123701370
B1230523650970N00244442WA0123401371
B1230533650970N00244433WA0123301370
B1230543650968N00244425WA0123301369
B1230553650965N00244419WA0123401369
B1230563650964N00244414WA0123601369
B1230573650963N00244409WA0123701370
B1230583650961N00244406WA0123501370
B1230593650959N00244402WA0123301368
B1231003650955N00244397WA0122901367
B1231013650951N00244392WA0122801366
B1231023650949N00244388WA0123401366
B1231033650948N00244385WA0123601367
B1231043650948N00244382WA0123501367
B1231053650946N00244378WA0123101364
B1231063650943N00244373WA0122201360
B1231073650939N00244369WA0121701355
B1231083650935N00244365WA0121901353
B1231093650932N00244362WA0122301356
B1231103650932N00244359WA0122201356
B1231113650930N00244356WA0122001355
B1231123650928N00244352WA0121401353
B1231133650925N00244346WA0121001351
B1231143650922N00244340WA0120701349
B1231153650920N00244334WA0120701347
B1231163650919N00244330WA0120801347
B1231173650918N00244326WA0120501346
B1231183650917N00244323WA0120101342
B1231193650914N00244321WA0119701338
B1231203650911N00244318WA0119401335
B1231213650909N00244314WA0119101332
B1231223650907N00244310WA0119001330
B1231233650906N00244307WA0118801329
B1231243650904N00244304WA0118501326
B1231253650901N00244302WA0118301324
B1231263650899N00244300WA0118101321
B1231273650897N00244296WA0118001320
B1231283650896N00244292WA0117901319
B1231293650895N00244288WA0117901318
B1231303650893N00244284WA0117701316
B1231313650891N00244282WA0117401315
B1231323650888N00244280WA0117301313
B1231333650886N00244278WA0117401313
B1231343650885N00244276WA0117501313
B1231353650884N00244273WA0117501313
B1231363650882N00244271WA0117401312
B1231373650880N00244270WA0117401312
B1231383650878N00244269WA0117601312
B1231393650876N00244269WA0117701313
B1231403650875N00244269WA0117901314
B1231413650874N00244269WA0118001315
B1231423650872N00244268WA0118101316
B1231433650871N00244268WA0118001316
B1231443650870N00244267WA0117901315
B1231453650868N00244266WA0117701315
B1231463650866N00244266WA0117701314
B1231473650865N00244266WA0117901314
B1231483650864N00244266WA0117901314
B1231493650863N00244266WA0117901315
B1231503650862N00244267WA0117701314
B1231513650860N00244269WA0117501312
B1231523650859N00244271WA0117201311
B1231533650859N00244273WA0117301310
B1231543650859N00244276WA0117501310
B1231553650859N00244278WA0117601309
B1231563650858N00244280WA0117701310
B1231573650858N00244281WA0117501309
B1231583650856N00244284WA0117501308
B1231593650854N00244286WA0117301307
B1232003650853N00244287WA0117501307
B1232013650852N00244287WA0117901309
B1232023650851N00244287WA0118201311
B1232033650851N00244287WA0118201312
B1232043650851N00244289WA0118001311
B1232053650849N00244290WA0117901310
B1232063650847N00244291WA0117901310
B1232073650845N00244291WA0118001310
B1232083650843N00244291WA0118001310
B1232093650842N00244291WA0118101311
B1232103650841N00244292WA0118001312
B1232113650840N00244293WA0118001312
B1232123650839N00244295WA0117901312
B1232133650837N00244296WA0117901311
B1232143650834N00244298WA0117401310
B1232153650832N00244301WA0117401309
B1232163650830N00244303WA0117401309
B1232173650829N00244305WA0117401309
B1232183650828N00244307WA0117201308
B1232193650826N00244309WA0117001307
B1232203650824N00244311WA0116601305
B1232213650822N00244313WA0116601303
B1232223650820N00244315WA0116501302
B1232233650818N00244316WA0116501301
B1232243650815N00244316WA0116301299
B1232253650812N00244314WA0116101297
B1232263650808N00244313WA0115701296
B1232273650805N00244311WA0116001294
B1232283650802N00244308WA0116101294
B1232293650799N00244306WA0116101296
B1232303650797N00244303WA0116101295
B1232313650795N00244300WA0115901295
B1232323650792N00244297WA0115701293
B1232333650788N00244294WA0115201292
B1232343650785N00244291WA0115201291
B1232353650783N00244287WA0115201290
B1232363650780N00244283WA0115201290
B1232373650778N00244278WA0115001289
B1232383650775N00244274WA0114901288
B1232393650772N00244270WA0114601286
B1232403650768N00244267WA0114401285
B1232413650765N00244263WA0114201283
B1232423650761N00244260WA0114201282
B1232433650758N00244255WA0114201281
B1232443650756N00244251WA0114101280
B1232453650753N00244246WA0113901280
B1232463650750N00244243WA0113801278
B1232473650747N00244239WA0113801277
B1232483650744N00244236WA0113701276
B1232493650741N00244232WA0113601274
B1232503650737N00244228WA0113601274
B1232513650733N00244225WA0113801274
B1232523650730N00244222WA0114201276
B1232533650727N00244219WA0114301278
B1232543650725N00244217WA0114401279
B1232553650723N00244214WA0114601281
B1232563650722N00244212WA0114601281
B1232573650720N00244209WA0114501281
B1232583650718N00244205WA0114301281
B1232593650715N00244202WA0114101280
B1233003650712N00244199WA0114101279
B1233013650709N00244197WA0114101279
B1233023650707N00244195WA0114101279
B1233033650704N00244193WA0114201279
B1233043650701N00244190WA0114001279
B1233053650698N00244188WA0113901278
B1233063650695N00244186WA0114001278
B1233073650692N00244185WA0114101277
B1233083650689N00244184WA0114301278
B1233093650687N00244182WA0114501280
B1233103650684N00244180WA0114601281
B1233113650682N00244177WA0114601281
B1233123650679N00244174WA0114601281
B1233133650676N00244172WA0114401281
B1233143650673N00244170WA0114201280
B1233153650669N00244167WA0114001279
B1233163650665N00244163WA0113701277
B1233173650662N00244160WA0113901277
B1233183650659N00244157WA0113801276
B1233193650657N00244155WA0113801275
B1233203650653N00244153WA0113501272
B1233213650650N00244149WA0113101270
B1233223650645N00244144WA0112801267
B1233233650641N00244140WA0112501264
B1233243650636N00244137WA0112301262
B1233253650632N00244135WA0112201260
B1233263650627N00244132WA0112401259
B1233273650623N00244129WA0112101257
B1233283650619N00244125WA0111901255
B1233293650616N00244123WA0111901254
B1233303650612N00244121WA0111901253
B1233313650610N00244119WA0112001253
B1233323650609N00244117WA0111801254
B1233333650607N00244113WA0111701254
B1233343650605N00244109WA0111601253
B1233353650602N00244105WA0111701253
B1233363650599N00244102WA0112101254
B1233373650597N00244100WA0112401257
B1233383650596N00244097WA0112501259
B1233393650595N00244094WA0112701260
B1233403650592N00244091WA0112601261
B1233413650588N00244088WA0112701262
B1233423650585N00244086WA0112901262
B1233433650582N00244085WA0113201264
B1233443650580N00244084WA0113601266
B1233453650578N00244085WA0113701267
B1233463650576N00244086WA0113801268
B1233473650575N00244089WA0113801269
B1233483650575N00244094WA0113801268
B1233493650577N00244098WA0114001269
B1233503650581N00244101WA0114101271
B1233513650587N00244102WA0114201272
B1233523650594N00244101WA0114201272
B1233533650602N00244097WA0114401273
B1233543650608N00244091WA0114701275
B1233553650612N00244083WA0114901278
B1233563650613N00244075WA0115101279
B1233573650613N00244068WA0115301281
B1233583650612N00244062WA0115501283
B1233593650609N00244057WA0115501284
B1234003650606N00244053WA0115501285
B1234013650601N00244051WA0115501284
B1234023650597N00244050WA0115601283
B1234033650593N00244049WA0115701284
B1234043650590N00244050WA0115801285
B1234053650588N00244051WA0115601286
B1234063650586N00244053WA0115101285
B1234073650585N00244058WA0115101283
B1234083650588N00244063WA0114901279
B1234093650592N00244067WA0114701277
B1234103650598N00244070WA0114801275
B1234113650603N00244070WA0114801275
B1234123650608N00244069WA0114601274
B1234133650613N00244067WA0114401274
B1234143650618N00244064WA0114201273
B1234153650624N00244059WA0114201273
B1234163650630N00244053WA0114101272
B1234173650635N00244046WA0114101272
B1234183650640N00244037WA0114201272
B1234193650643N00244029WA0114401273
B1234203650646N00244021WA0114601273
B1234213650647N00244013WA0114801274
B1234223650648N00244005WA0115001275
B1234233650648N00243998WA0115101276
B1234243650647N00243991WA0115201276
B1234253650645N00243985WA0115201277
B1234263650644N00243979WA0115201278
B1234273650642N00243974WA0115101278
B1234283650640N00243969WA0114701278
B1234293650638N00243962WA0114501276
B1234303650636N00243956WA0114701275
B1234313650635N00243949WA0114401275
B1234323650634N00243942WA0114201274
B1234333650634N00243936WA0114101272
B1234343650633N00243929WA0113801270
B1234353650631N00243923WA0113501267
B1234363650628N00243917WA0113001264
B1234373650625N00243911WA0112701259
B1234383650622N00243906WA0112501256
B1234393650619N00243901WA0112401254
B1234403650617N00243896WA0112201254
B1234413650615N00243893WA0112001252
B1234423650612N00243888WA0111701249
B1234433650609N00243884WA0111301247
B1234443650605N00243879WA0110701243
B1234453650600N00243874WA0110301240
B1234463650595N00243870WA0110401238
B1234473650590N00243867WA0110401237
B1234483650586N00243864WA0110401237
B1234493650583N00243861WA0110301237
B1234503650579N00243857WA0110101236
B1234513650574N00243853WA0110001234
B1234523650570N00243850WA0109701233
B1234533650566N00243847WA0109701231
B1234543650562N00243844WA0109501230
B1234553650559N00243841WA0109401229
B1234563650555N00243838WA0109001227
B1234573650551N00243834WA0108901225
B1234583650546N00243829WA0108701222
B1234593650542N00243825WA0108401219
B1235003650538N00243821WA0108401217
B1235013650534N00243817WA0108301216
B1235023650530N00243811WA0108001214
B1235033650527N00243805WA0107801212
B1235043650523N00243800WA0107501210
B1235053650518N00243796WA0107301208
B1235063650514N00243791WA0107401206
B1235073650510N00243786WA0107101204
B1235083650506N00243782WA0107001203
B1235093650502N00243778WA0106901201
B1235103650498N00243774WA0106601199
B1235113650493N00243771WA0106301198
B1235123650489N00243767WA0106301196
B1235133650484N00243762WA0106101194
B1235143650481N00243757WA0105801191
B1235153650477N00243752WA0105501189
B1235163650474N00243749WA0105301187
B1235173650470N00243747WA0105101185
B1235183650467N00243746WA0105101183
B1235193650463N00243743WA0105001182
B1235203650460N00243740WA0104901181
B1235213650456N00243738WA0104701179
B1235223650452N00243736WA0104501178
B1235233650448N00243735WA0104501177
B1235243650444N00243733WA0104701177
B1235253650440N00243731WA0104601178
B1235263650437N00243729WA0104901178
B1235273650433N00243728WA0105001179
B1235283650430N00243727WA0105201180
B1235293650427N00243725WA0105301182
B1235303650425N00243723WA0105501184
B1235313650423N00243721WA0105801186
B1235323650422N00243720WA0105901187
B1235333650420N00243720WA0105801187
B1235343650418N00243720WA0105801186
B1235353650415N00243721WA0105701185
B1235363650412N00243720WA0105801185
B1235373650410N00243719WA0106001186
B1235383650408N00243718WA0106201187
B1235393650407N00243716WA0106301189
B1235403650405N00243715WA0106201189
B1235413650402N00243713WA0106001189
B1235423650399N00243712WA0105801187
B1235433650396N00243711WA0105701187
B1235443650395N00243710WA0105701186
B1235453650393N00243709WA0105501185
B1235463650391N00243707WA0105101184
B1235473650388N00243705WA0104601181
B1235483650385N00243700WA0104201178
B1235493650381N00243696WA0104001175
B1235503650379N00243690WA0104001173
B1235513650377N00243684WA0103901172
B1235523650376N00243678WA0103801171
B1235533650374N00243671WA0103601170
B1235543650372N00243664WA0103401168
B1235553650369N00243658WA0103401167
B1235563650367N00243652WA0103401166
B1235573650364N00243646WA0103401165
B1235583650362N00243640WA0103301164
B1235593650360N00243634WA0103101162
B1236003650357N00243628WA0102901161
B1236013650355N00243621WA0102801160
B1236023650352N00243614WA0102801159
B1236033650350N00243608WA0102901159
B1236043650349N00243602WA0102901160
B1236053650348N00243596WA0102801159
B1236063650346N00243589WA0102401158
B1236073650343N00243582WA0102101157
B1236083650340N00243575WA0101801154
B1236093650336N00243569WA0101601151
B1236103650333N00243564WA0101501149
B1236113650331N00243560WA0101401148
B1236123650329N00243555WA0101201146
B1236133650327N00243549WA0100801143
B1236143650324N00243543WA0100501140
B1236153650321N00243537WA0100201137
B1236163650319N00243532WA0100001134
B1236173650316N00243526WA0100001133
B1236183650314N00243520WA0100001131
B1236193650312N00243514WA0099801130
B1236203650309N00243509WA0099701129
B1236213650307N00243503WA0099501127
B1236223650304N00243497WA0099401126
B1236233650301N00243490WA0099301124
B1236243650299N00243484WA0099301123
B1236253650297N00243477WA0099101122
B1236263650295N00243471WA0098901120
B1236273650293N00243464WA0098601118
B1236283650290N00243457WA0098401115
B1236293650286N00243450WA0098301112
B1236303650283N00243444WA0098201111
B1236313650280N00243438WA0098101111
B1236323650277N00243433WA0098001110
B1236333650274N00243427WA0097801108
B1236343650271N00243421WA0097501105
B1236353650267N00243416WA0097301103
B1236363650262N00243410WA0097301100
B1236373650258N00243406WA0097201099
B1236383650255N00243401WA0097101098
B1236393650252N00243397WA0097001098
B1236403650249N00243392WA0096901097
B1236413650246N00243387WA0096701097
B1236423650243N00243383WA0096601096
B1236433650240N00243378WA0096401095
B1236443650236N00243374WA0096501095
B1236453650233N00243369WA0096601095
B1236463650231N00243364WA0096601095
B1236473650228N00243358WA0096301095
B1236483650227N00243353WA0096301093
B1236493650225N00243349WA0096101092
B1236503650223N00243345WA0095701090
B1236513650220N00243339WA0095301087
B1236523650218N00243332WA0095101083
B1236533650215N00243324WA0094501080
B1236543650214N00243316WA0094401077
B1236553650212N00243310WA0094401074
B1236563650211N00243303WA0094201073
B1236573650210N00243296WA0093901070
B1236583650209N00243289WA0093401067
B1236593650207N00243280WA0093001063
B1237003650204N00243272WA0093001060
B1237013650202N00243265WA0093001059
B1237023650200N00243259WA0092901058
B1237033650199N00243253WA0092701057
B1237043650197N00243247WA0092301054
B1237053650195N00243240WA0092001051
B1237063650192N00243233WA0091601047
B1237073650189N00243226WA0091401044
B1237083650187N00243220WA0091201042
B1237093650185N00243214WA0091101041
B1237103650183N00243209WA0090801038
B1237113650180N00243204WA0090401036
B1237123650177N00243199WA0090101032
B1237133650174N00243193WA0089801029
B1237143650171N00243188WA0089601026
B1237153650168N00243182WA0089401024
B1237163650166N00243176WA0089301023
B1237173650164N00243170WA0089101021
B1237183650161N00243165WA0088801018
B1237193650159N00243159WA0088501015
B1237203650156N00243154WA0088201012
B1237213650153N00243148WA0088101010
B1237223650150N00243142WA0087901008
B1237233650148N00243137WA0087601006
B1237243650146N00243131WA0087301004
B1237253650143N00243125WA0086801001
B1237263650139N00243119WA0086400998
B1237273650135N00243114WA0086200993
B1237283650130N00243108WA0086000990
B1237293650126N00243103WA0085800987
B1237303650123N00243099WA0085600985
B1237313650119N00243095WA0085300983
B1237323650115N00243091WA0085100981
B1237333650111N00243086WA0084800978
B1237343650107N00243080WA0084400975
B1237353650102N00243075WA0084300972
B1237363650097N00243071WA0083900969
B1237373650091N00243068WA0083600966
B1237383650086N00243064WA0083500964
B1237393650081N00243059WA0083500963
B1237403650077N00243054WA0083400961
B1237413650073N00243049WA0083200960
B1237423650069N00243045WA0082900957
B1237433650063N00243041WA0082400954
B1237443650057N00243036WA0082200950
B1237453650052N00243031WA0082400949
B1237463650048N00243025WA0082700951
B1237473650045N00243019WA0082800953
B1237483650042N00243014WA0082900954
B1237493650039N00243009WA0082700954
B1237503650035N00243004WA0082500951
B1237513650031N00242997WA0082000949
B1237523650027N00242990WA0081800947
B1237533650023N00242984WA0081800946
B1237543650021N00242980WA0082000946
B1237553650018N00242976WA0082000946
B1237563650016N00242973WA0081700945
B1237573650013N00242970WA0081500943
B1237583650009N00242964WA0081000939
B1237593650006N00242958WA0080800936
B1238003650003N00242952WA0080700933
B1238013650000N00242947WA0080800932
B1238023649998N00242942WA0080800932
B1238033649997N00242937WA0080600930
B1238043649995N00242931WA0080100929
B1238053649993N00242924WA0079800927
B1238063649990N00242916WA0079800924
B1238073649988N00242909WA0079800922
B1238083649986N00242903WA0079800923
B1238093649985N00242897WA0079800923
B1238103649984N00242891WA0079700923
B1238113649983N00242884WA0079400921
B1238123649981N00242877WA0079100919
B1238133649978N00242869WA0078800917
B1238143649976N00242862WA0078700917
B1238153649974N00242856WA0078900917
B1238163649972N00242851WA0078800917
B1238173649969N00242846WA0078400915
B1238183649966N00242840WA0078000914
B1238193649963N00242833WA0078000912
B1238203649960N00242827WA0078100911
B1238213649958N00242821WA0078300913
B1238223649956N00242816WA0078600914
B1238233649954N00242812WA0078700915
B1238243649951N00242809WA0078700914
B1238253649949N00242807WA0078700914
B1238263649946N00242805WA0078800914
B1238273649943N00242804WA0078800914
B1238283649939N00242804WA0078700913
B1238293649936N00242805WA0078700913
B1238303649934N00242807WA0078200913
B1238313649933N00242811WA0078100912
B1238323649933N00242815WA0078200910
B1238333649934N00242818WA0078200908
B1238343649936N00242821WA0078000907
B1238353649939N00242824WA0077600905
B1238363649943N00242826WA0077300903
B1238373649946N00242828WA0077200901
B1238383649951N00242828WA0077100898
B1238393649957N00242828WA0076900896
B1238403649962N00242826WA0076600893
B1238413649968N00242823WA0076400892
B1238423649974N00242818WA0076300890
B1238433649979N00242812WA0076200888
B1238443649984N00242808WA0076200888
B1238453649990N00242803WA0076300887
B1238463649995N00242798WA0076500888
B1238473650000N00242792WA0076500889
B1238483650004N00242784WA0076700889
B1238493650006N00242776WA0076800889
B1238503650008N00242768WA0077100891
B1238513650008N00242760WA0077300893
B1238523650007N00242754WA0077600896
B1238533650005N00242749WA0077800898
B1238543650003N00242747WA0077900900
B1238553650000N00242747WA0078000901
B1238563649997N00242748WA0078000902
B1238573649994N00242751WA0078000903
B1238583649993N00242754WA0078100904
B1238593649993N00242758WA0078100905
B1239003649994N00242761WA0078100905
B1239013649996N00242765WA0077900904
B1239023650000N00242768WA0077700903
B1239033650005N00242770WA0077800902
B1239043650012N00242770WA0077700901
B1239053650019N00242770WA0077600900
B1239063650026N00242768WA0077800900
B1239073650033N00242766WA0078200902
B1239083650039N00242762WA0078600906
B1239093650043N00242756WA0078800910
B1239103650044N00242749WA0078900912
B1239113650045N00242742WA0079000913
B1239123650045N00242733WA0079100914
B1239133650043N00242726WA0079400916
B1239143650040N00242720WA0079700918
B1239153650036N00242717WA0079800921
B1239163650032N00242716WA0080000922
B1239173650030N00242717WA0080300924
B1239183650029N00242719WA0080400927
B1239193650030N00242723WA0080400928
B1239203650033N00242728WA0079800924
B1239213650039N00242731WA0079600923
B1239223650047N00242733WA0080300923
B1239233650054N00242731WA0080700923
B1239243650059N00242726WA0081000926
B1239253650062N00242720WA0081300933
B1239263650065N00242714WA0081500935
B1239273650067N00242706WA0081600937
B1239283650069N00242698WA0081700939
B1239293650069N00242690WA0081800940
B1239303650068N00242682WA0082100942
B1239313650066N00242676WA0082400944
B1239323650063N00242671WA0082500946
B1239333650061N00242668WA0082500948
B1239343650058N00242668WA0082300948
B1239353650055N00242668WA0082100949
B1239363650053N00242670WA0082300950
B1239373650051N00242673WA0082500951
B1239383650051N00242677WA0082600951
B1239393650052N00242680WA0082600952
B1239403650053N00242683WA0082600952
B1239413650057N00242685WA0082500950
B1239423650063N00242687WA0081900948
B1239433650070N00242686WA0082000947
B1239443650078N00242683WA0082400946
B1239453650084N00242678WA0082800949
B1239463650088N00242673WA0083200952
B1239473650091N00242666WA0083400957
B1239483650092N00242659WA0083600959
B1239493650093N00242650WA0083600960
B1239503650092N00242641WA0083600960
B1239513650089N00242633WA0083700960
B1239523650086N00242628WA0083700961
B1239533650082N00242625WA0083800961
B1239543650079N00242624WA0083700961
B1239553650075N00242623WA0083700960
B1239563650073N00242624WA0083600960
B1239573650071N00242626WA0083400959
B1239583650070N00242629WA0083200959
B1239593650070N00242633WA0083100958
B1240003650072N00242638WA0082800956
B1240013650076N00242642WA0082300953
B1240023650081N00242645WA0082000950
B1240033650087N00242645WA0082100947
B1240043650094N00242644WA0081900945
B1240053650101N00242642WA0081800943
B1240063650107N00242640WA0081900942
B1240073650113N00242637WA0081900941
B1240083650120N00242633WA0082100941
B1240093650127N00242629WA0082200941
B1240103650133N00242624WA0082400943
B1240113650138N00242620WA0082500946
B1240123650144N00242615WA0082500947
B1240133650149N00242609WA0082200947
B1240143650155N00242602WA0081800947
B1240153650159N00242593WA0082100946
B1240163650163N00242585WA0082200946
B1240173650166N00242578WA0082400946
B1240183650168N00242572WA0082500947
B1240193650170N00242566WA0082500948
B1240203650171N00242559WA0082500948
B1240213650170N00242552WA0082400947
B1240223650169N00242545WA0082400946
B1240233650167N00242539WA0082400946
B1240243650165N00242534WA0082400946
B1240253650163N00242530WA0082500947
B1240263650161N00242527WA0082600949
B1240273650160N00242525WA0082700950
B1240283650158N00242525WA0082800950
B1240293650156N00242527WA0082700950
B1240303650154N00242528WA0082500950
B1240313650153N00242531WA0082500948
B1240323650151N00242534WA0082500947
B1240333650151N00242537WA0082500947
B1240343650150N00242540WA0082500947
B1240353650150N00242543WA0082500947
B1240363650151N00242546WA0082500947
B1240373650153N00242549WA0082200946
B1240383650156N00242552WA0081800944
B1240393650160N00242555WA0081800943
B1240403650166N00242556WA0082200943
B1240413650173N00242555WA0082500943
B1240423650179N00242553WA0082700945
B1240433650184N00242551WA0082900946
B1240443650189N00242548WA0083000947
B1240453650195N00242543WA0083000948
B1240463650200N00242536WA0083000948
B1240473650205N00242527WA0082800947
B1240483650207N00242519WA0082800947
B1240493650209N00242511WA0082800947
B1240503650209N00242504WA0082700947
B1240513650208N00242498WA0082400946
B1240523650206N00242491WA0082000944
B1240533650204N00242485WA0081800943
B1240543650201N00242481WA0081800942
B1240553650198N00242478WA0081800942
B1240563650195N00242476WA0081600942
B1240573650192N00242476WA0081600941
B1240583650190N00242476WA0081500941
B1240593650188N00242478WA0081400940
B1241003650187N00242482WA0081100939
B1241013650187N00242486WA0081300936
B1241023650189N00242491WA0081300935
B1241033650191N00242494WA0081200935
B1241043650194N00242497WA0081200934
B1241053650197N00242500WA0081300934
B1241063650201N00242504WA0081200933
B1241073650206N00242507WA0081100932
B1241083650211N00242510WA0081300932
B1241093650216N00242510WA0081500933
B1241103650222N00242510WA0081600934
B1241113650227N00242509WA0081500935
B1241123650234N00242510WA0081500935
B1241133650240N00242510WA0081500935
B1241143650246N00242511WA0081600935
B1241153650252N00242511WA0081600936
B1241163650258N00242510WA0081600936
B1241173650265N00242509WA0081600937
B1241183650271N00242507WA0081600937
B1241193650278N00242505WA0081600937
B1241203650285N00242502WA0081700938
B1241213650291N00242498WA0081700938
B1241223650297N00242493WA0081600938
B1241233650304N00242487WA0081300937
B1241243650309N00242480WA0081500937
B1241253650313N00242473WA0081800938
B1241263650316N00242467WA0081800939
B1241273650318N00242460WA0081700939
B1241283650320N00242454WA0081500939
B1241293650321N00242447WA0081300938
B1241303650321N00242440WA0081000936
B1241313650320N00242433WA0080700934
B1241323650317N00242425WA0080500932
B1241333650316N00242419WA0080500931
B1241343650314N00242414WA0080700930
B1241353650313N00242409WA0080700930
B1241363650312N00242405WA0080700930
B1241373650310N00242401WA0080500928
B1241383650307N00242396WA0080400926
B1241393650304N00242391WA0080000924
B1241403650302N00242386WA0079800923
B1241413650300N00242382WA0079800922
B1241423650298N00242378WA0079700921
B1241433650296N00242374WA0079500920
B1241443650293N00242369WA0079100918
B1241453650290N00242364WA0079000916
B1241463650287N00242359WA0079100916
B1241473650284N00242356WA0079100916
B1241483650281N00242352WA0079400916
B1241493650278N00242349WA0079500916
B1241503650275N00242345WA0079400916
B1241513650272N00242341WA0079500916
B1241523650270N00242337WA0079400916
B1241533650267N00242335WA0079200916
B1241543650265N00242332WA0079000915
B1241553650262N00242328WA0078700914
B1241563650258N00242323WA0078600913
B1241573650255N00242319WA0078700911
B1241583650252N00242315WA0078800911
B1241593650250N00242311WA0078800911
B1242003650248N00242308WA0078700911
B1242013650246N00242305WA0078500910
B1242023650243N00242300WA0078400909
B1242033650240N00242296WA0078300907
B1242043650236N00242291WA0078300907
B1242053650234N00242286WA0078400906
B1242063650231N00242282WA0078400907
B1242073650229N00242277WA0078300907
B1242083650226N00242273WA0078200907
B1242093650222N00242269WA0078100906
B1242103650219N00242265WA0078100905
B1242113650217N00242260WA0078000905
B1242123650214N00242256WA0078000904
B1242133650211N00242252WA0077800903
B1242143650208N00242248WA0077500901
B1242153650204N00242243WA0077300899
B1242163650200N00242239WA0077300898
B1242173650197N00242234WA0077200898
B1242183650195N00242230WA0076900897
B1242193650192N00242225WA0076400894
B1242203650188N00242221WA0076200890
B1242213650183N00242217WA0076000886
B1242223650178N00242214WA0075800884
B1242233650174N00242211WA0075800883
B1242243650170N00242209WA0075800883
B1242253650167N00242207WA0075600882
B1242263650163N00242205WA0075400880
B1242273650158N00242203WA0075300878
B1242283650154N00242200WA0075100876
B1242293650149N00242198WA0075000875
B1242303650145N00242196WA0075000875
B1242313650142N00242195WA0074900874
B1242323650138N00242193WA0074700873
B1242333650134N00242190WA0074600871
B1242343650130N00242186WA0074200869
B1242353650125N00242182WA0074000866
B1242363650120N00242179WA0073900865
B1242373650116N00242176WA0074100865
B1242383650113N00242174WA0074300865
B1242393650109N00242170WA0074000865
B1242403650106N00242165WA0073800864
B1242413650102N00242162WA0073700862
B1242423650098N00242158WA0073600861
B1242433650094N00242156WA0073600859
B1242443650090N00242153WA0073400858
B1242453650087N00242150WA0073200857
B1242463650083N00242147WA0073000855
B1242473650079N00242144WA0072800853
B1242483650075N00242141WA0072600851
B1242493650070N00242138WA0072600849
B1242503650066N00242135WA0072400848
B1242513650062N00242131WA0072300847
B1242523650058N00242128WA0072200846
B1242533650055N00242126WA0072100844
B1242543650050N00242124WA0071800843
B1242553650046N00242122WA0071600840
B1242563650042N00242119WA0071400839
B1242573650038N00242115WA0071300837
B1242583650034N00242111WA0071200836
B1242593650030N00242108WA0071100835
B1243003650027N00242106WA0070900833
B1243013650023N00242103WA0070600831
B1243023650020N00242100WA0070400829
B1243033650016N00242095WA0070000826
B1243043650011N00242091WA0069600823
B1243053650006N00242086WA0069300820
B1243063650002N00242082WA0069200817
B1243073649998N00242078WA0069100815
B1243083649996N00242073WA0068800814
B1243093649993N00242068WA0068600812
B1243103649990N00242063WA0068300809
B1243113649986N00242060WA0067900806
B1243123649982N00242056WA0067700803
B1243133649979N00242051WA0067600801
B1243143649976N00242045WA0067400798
B1243153649973N00242041WA0067300797
B1243163649969N00242037WA0067200795
B1243173649966N00242034WA0066900792
B1243183649961N00242030WA0066600790
B1243193649957N00242026WA0066400787
B1243203649952N00242023WA0066200785
B1243213649947N00242019WA0066100783
B1243223649943N00242015WA0066000782
B1243233649939N00242012WA0065900781
B1243243649935N00242009WA0065700780
B1243253649931N00242006WA0065400778
B1243263649927N00242003WA0065100775
B1243273649922N00242000WA0064900772
B1243283649918N00241998WA0064800770
B1243293649915N00241996WA0064600768
B1243303649911N00241995WA0064300766
B1243313649907N00241993WA0064000763
B1243323649903N00241992WA0063700761
B1243333649898N00241990WA0063500758
B1243343649894N00241988WA0063300756
B1243353649891N00241985WA0063200755
B1243363649887N00241983WA0062900753
B1243373649883N00241981WA0062600751
B1243383649879N00241979WA0062600749
B1243393649875N00241977WA0062500747
B1243403649872N00241975WA0062400746
B1243413649869N00241972WA0062200745
B1243423649866N00241970WA0061900743
B1243433649862N00241967WA0061800741
B1243443649859N00241964WA0061600738
B1243453649855N00241960WA0061500737
B1243463649852N00241956WA0061400735
B1243473649849N00241952WA0061300734
B1243483649846N00241949WA0061100733
B1243493649842N00241947WA0061000730
B1243503649837N00241943WA0060500728
B1243513649832N00241939WA0060300725
B1243523649828N00241935WA0060100723
B1243533649823N00241931WA0059900721
B1243543649820N00241928WA0060000720
B1243553649817N00241926WA0059900720
B1243563649814N00241923WA0059600718
B1243573649811N00241919WA0059200715
B1243583649807N00241916WA0058700712
B1243593649802N00241912WA0058400708
B1244003649798N00241908WA0058100705
B1244013649795N00241905WA0058000702
B1244023649791N00241902WA0058000701
B1244033649788N00241898WA0057800698
B1244043649784N00241895WA0057400696
B1244053649781N00241892WA0057200693
B1244063649778N00241890WA0056800690
B1244073649774N00241889WA0056400687
B1244083649770N00241888WA0055900683
B1244093649766N00241886WA0055500679
B1244103649762N00241884WA0055300675
B1244113649757N00241882WA0055100672
B1244123649754N00241880WA0055100670
B1244133649750N00241879WA0055000669
B1244143649747N00241878WA0054900668
B1244153649744N00241876WA0054600667
B1244163649740N00241875WA0054400665
B1244173649736N00241872WA0054100662
B1244183649731N00241868WA0054000660
B1244193649727N00241863WA0054100659
B1244203649723N00241859WA0054100657
B1244213649720N00241856WA0054400658
B1244223649716N00241853WA0054700662
B1244233649714N00241850WA0055000665
B1244243649713N00241848WA0055200669
B1244253649712N00241846WA0055300670
B1244263649710N00241844WA0055200671
B1244273649708N00241844WA0055000670
B1244283649705N00241843WA0054800669
B1244293649702N00241840WA0054800668
B1244303649700N00241837WA0055000668
B1244313649701N00241834WA0055200669
B1244323649702N00241831WA0055400670
B1244333649702N00241828WA0055400671
B1244343649700N00241826WA0055200670
B1244353649698N00241823WA0055000668
B1244363649697N00241819WA0054700667
B1244373649696N00241814WA0054800667
B1244383649697N00241810WA0055000668
B1244393649697N00241807WA0055000669
B1244403649696N00241803WA0054800669
B1244413649693N00241799WA0054500668
B1244423649691N00241795WA0054400668
B1244433649689N00241793WA0054800670
B1244443649688N00241791WA0055200672
B1244453649688N00241790WA0055200673
B1244463649687N00241788WA0055200674
B1244473649685N00241787WA0054800674
B1244483649683N00241786WA0054600673
B1244493649681N00241784WA0054800670
B1244503649679N00241783WA0055000670
B1244513649678N00241782WA0055200673
B1244523649678N00241781WA0055200674
B1244533649677N00241781WA0055200674
B1244543649675N00241780WA0054800673
B1244553649673N00241779WA0054800671
B1244563649671N00241777WA0054900670
B1244573649670N00241774WA0055000670
B1244583649670N00241772WA0055200671
B1244593649671N00241769WA0055200671
B1245003649670N00241766WA0055200671
B1245013649669N00241762WA0055200671
B1245023649667N00241757WA0055000671
B1245033649666N00241752WA0055100671
B1245043649665N00241749WA0055500673
B1245053649665N00241747WA0056000679
B1245063649665N00241748WA0056400683
B1245073649664N00241749WA0056500683
B1245083649663N00241749WA0056600683
B1245093649660N00241747WA0056600684
B1245103649658N00241745WA0056600684
B1245113649657N00241742WA0056700686
B1245123649656N00241740WA0056800687
B1245133649655N00241738WA0056700687
B1245143649654N00241736WA0056200686
B1245153649652N00241734WA0055800682
B1245163649649N00241731WA0055700680
B1245173649647N00241727WA0055600678
B1245183649646N00241723WA0055600676
B1245193649646N00241720WA0055700677
B1245203649646N00241717WA0055500677
B1245213649646N00241714WA0055200676
B1245223649644N00241710WA0054700674
B1245233649642N00241704WA0054500672
B1245243649642N00241697WA0054500670
B1245253649644N00241690WA0054400669
B1245263649645N00241684WA0054400668
B1245273649645N00241679WA0054400668
B1245283649644N00241675WA0054200667
B1245293649642N00241671WA0054100665
B1245303649641N00241667WA0054200665
B1245313649640N00241663WA0054200664
B1245323649638N00241660WA0054300664
B1245333649636N00241657WA0054300664
B1245343649634N00241655WA0054200664
B1245353649631N00241654WA0054300664
B1245363649629N00241653WA0054300664
B1245373649627N00241652WA0054400664
B1245383649624N00241651WA0054500664
B1245393649622N00241650WA0054500663
B1245403649619N00241648WA0054400663
B1245413649616N00241648WA0054600664
B1245423649613N00241647WA0054700665
B1245433649611N00241646WA0055000666
B1245443649609N00241647WA0055100668
B1245453649608N00241648WA0055200669
B1245463649607N00241651WA0055200670
B1245473649606N00241654WA0055300671
B1245483649607N00241659WA0055300672
B1245493649609N00241664WA0055400673
B1245503649613N00241669WA0055500673
B1245513649620N00241671WA0055400673
B1245523649628N00241671WA0055000673
B1245533649635N00241666WA0055400672
B1245543649641N00241660WA0055300672
B1245553649644N00241653WA0055400672
B1245563649646N00241647WA0055600674
B1245573649647N00241641WA0055900675
B1245583649647N00241636WA0055900677
B1245593649646N00241632WA0055900678
B1246003649645N00241630WA0056000678
B1246013649643N00241629WA0055900679
B1246023649642N00241628WA0055900678
B1246033649640N00241628WA0055800676
B1246043649639N00241629WA0055700676
B1246053649638N00241630WA0055600675
B1246063649637N00241631WA0055400675
B1246073649635N00241632WA0055200674
B1246083649633N00241632WA0055100673
B1246093649631N00241634WA0055000672
B1246103649630N00241635WA0055100671
B1246113649629N00241638WA0055100670
B1246123649628N00241639WA0054900669
B1246133649627N00241641WA0054700668
B1246143649626N00241641WA0054400666
B1246153649623N00241639WA0054000662
B1246163649620N00241638WA0053800659
B1246173649617N00241637WA0053600657
B1246183649614N00241636WA0053500656
B1246193649611N00241636WA0053600657
B1246203649609N00241637WA0053700657
B1246213649607N00241638WA0053900658
B1246223649606N00241639WA0054100660
B1246233649604N00241639WA0054300661
B1246243649602N00241638WA0054400662
B1246253649600N00241638WA0054400661
B1246263649598N00241638WA0054300661
B1246273649595N00241638WA0054300660
B1246283649593N00241639WA0054000660
B1246293649591N00241640WA0054000660
B1246303649590N00241642WA0054000659
B1246313649588N00241645WA0053800659
B1246323649586N00241647WA0053700658
B1246333649584N00241649WA0053500657
B1246343649581N00241651WA0053400655
B1246353649579N00241653WA0053200654
B1246363649578N00241657WA0053200653
B1246373649578N00241660WA0053200652
B1246383649577N00241664WA0053200651
B1246393649577N00241668WA0053100651
B1246403649577N00241672WA0053000650
B1246413649578N00241676WA0053000649
B1246423649580N00241681WA0052900649
B1246433649582N00241687WA0052800648
B1246443649586N00241692WA0052700647
B1246453649591N00241697WA0052800646
B1246463649594N00241702WA0052600645
B1246473649597N00241707WA0052500645
B1246483649600N00241713WA0052400643
B1246493649603N00241719WA0052300642
B1246503649606N00241724WA0052300642
B1246513649611N00241729WA0052400641
B1246523649615N00241734WA0052600641
B1246533649619N00241740WA0052900642
B1246543649622N00241746WA0053100645
B1246553649624N00241753WA0053200646
B1246563649624N00241758WA0053300647
B1246573649623N00241762WA0053000647
B1246583649621N00241765WA0053000647
B1246593649619N00241768WA0053200647
B1247003649617N00241768WA0053300647
B1247013649615N00241765WA0053100646
B1247023649615N00241759WA0052800644
B1247033649619N00241752WA0052200642
B1247043649626N00241746WA0052100641
B1247053649633N00241743WA0052500641
B1247063649640N00241744WA0053000644
B1247073649647N00241747WA0053200647
B1247083649653N00241751WA0053300648
B1247093649659N00241755WA0053300649
B1247103649663N00241761WA0053200649
B1247113649667N00241767WA0053000649
B1247123649669N00241773WA0053000649
B1247133649670N00241778WA0053000648
B1247143649670N00241782WA0053100647
B1247153649668N00241784WA0052700646
B1247163649666N00241783WA0052500645
B1247173649664N00241780WA0052400644
B1247183649662N00241775WA0052300643
B1247193649661N00241771WA0052400643
B1247203649660N00241767WA0052600643
B1247213649660N00241764WA0052600644
B1247223649659N00241762WA0052500644
B1247233649658N00241758WA0052300643
B1247243649658N00241755WA0052000643
B1247253649657N00241751WA0051900640
B1247263649657N00241748WA0051800639
B1247273649655N00241746WA0051600638
B1247283649653N00241745WA0051500636
B1247293649651N00241744WA0051600635
B1247303649649N00241741WA0051300634
B1247313649648N00241738WA0051200633
B1247323649646N00241735WA0051300632
B1247333649644N00241732WA0051200632
B1247343649642N00241731WA0051300633
B1247353649640N00241730WA0051500634
B1247363649638N00241729WA0051400633
B1247373649636N00241728WA0051300633
B1247383649634N00241727WA0051200632
B1247393649631N00241726WA0050900631
B1247403649628N00241724WA0051000630
B1247413649624N00241722WA0051400632
B1247423649623N00241720WA0051600635
B1247433649622N00241719WA0051900637
B1247443649622N00241717WA0052000639
B1247453649620N00241716WA0051700640
B1247463649618N00241715WA0051600640
B1247473649615N00241713WA0051600640
B1247483649612N00241712WA0051600640
B1247493649611N00241711WA0051900641
B1247503649610N00241710WA0052000642
B1247513649608N00241710WA0051800642
B1247523649605N00241710WA0051600640
B1247533649603N00241708WA0051400638
B1247543649600N00241705WA0051500638
B1247553649599N00241702WA0051600637
B1247563649597N00241699WA0051700638
B1247573649596N00241697WA0051600637
B1247583649594N00241695WA0051300635
B1247593649592N00241691WA0051000633
B1248003649589N00241687WA0050900631
B1248013649586N00241683WA0051000630
B1248023649583N00241681WA0051200632
B1248033649580N00241679WA0051400634
B1248043649578N00241678WA0051600635
B1248053649575N00241677WA0051700636
B1248063649573N00241675WA0051800637
B1248073649571N00241674WA0052000638
B1248083649568N00241674WA0052000638
B1248093649566N00241672WA0052100638
B1248103649564N00241670WA0051800638
B1248113649562N00241666WA0051700639
B1248123649559N00241663WA0051600639
B1248133649556N00241660WA0052200641
B1248143649554N00241659WA0052400644
B1248153649553N00241660WA0052700647
B1248163649553N00241661WA0052700648
B1248173649553N00241664WA0052500649
B1248183649553N00241670WA0052200648
B1248193649552N00241677WA0051800646
B1248203649551N00241684WA0052100646
B1248213649551N00241689WA0052700648
B1248223649549N00241692WA0053000651
B1248233649548N00241693WA0053000652
B1248243649545N00241691WA0052500651
B1248253649543N00241689WA0052500651
B1248263649541N00241686WA0052500649
B1248273649541N00241683WA0052700649
B1248283649541N00241677WA0052700648
B1248293649543N00241670WA0052400647
B1248303649547N00241663WA0051900645
B1248313649554N00241656WA0051600644
B1248323649561N00241653WA0051600643
B1248333649570N00241654WA0051600641
B1248343649577N00241657WA0051800640
B1248353649583N00241660WA0052300641
B1248363649587N00241663WA0052500644
B1248373649591N00241667WA0052700645
B1248383649594N00241673WA0052700645
B1248393649596N00241679WA0052400645
B1248403649597N00241684WA0052700646
B1248413649596N00241688WA0052800648
B1248423649595N00241690WA0052500648
B1248433649593N00241690WA0052500647
B1248443649591N00241690WA0052300645
B1248453649589N00241688WA0052300645
B1248463649587N00241685WA0052200645
B1248473649585N00241683WA0052400645
B1248483649583N00241682WA0052600646
B1248493649581N00241680WA0052800647
B1248503649579N00241679WA0052900647
B1248513649576N00241678WA0052900648
B1248523649574N00241677WA0053000649
B1248533649572N00241676WA0053300650
B1248543649570N00241675WA0053500652
B1248553649568N00241672WA0053500653
B1248563649566N00241670WA0053300653
B1248573649563N00241669WA0053300652
B1248583649560N00241667WA0053500654
B1248593649557N00241666WA0053800656
B1249003649554N00241665WA0054200659
B1249013649553N00241665WA0054500662
B1249023649551N00241667WA0054900664
B1249033649550N00241670WA0055100666
B1249043649550N00241673WA0055200668
B1249053649551N00241678WA0055400670
B1249063649554N00241683WA0055500671
B1249073649560N00241686WA0055700672
B1249083649567N00241687WA0055700672
B1249093649574N00241685WA0055900674
B1249103649580N00241680WA0056000675
B1249113649583N00241673WA0056200676
B1249123649584N00241666WA0056400677
B1249133649582N00241660WA0056600680
B1249143649581N00241657WA0057100684
B1249153649579N00241656WA0057500688
B1249163649579N00241657WA0057700691
B1249173649578N00241658WA0057800694
B1249183649578N00241662WA0057800696
B1249193649579N00241667WA0057800696
B1249203649581N00241672WA0058000696
B1249213649586N00241676WA0058100697
B1249223649592N00241678WA0058200698
B1249233649598N00241679WA0058300699
B1249243649605N00241678WA0058500701
B1249253649611N00241675WA0058700702
B1249263649617N00241670WA0058900704
B1249273649620N00241665WA0059300706
B1249283649622N00241660WA0059500709
B1249293649622N00241655WA0059700712
B1249303649621N00241652WA0060000715
B1249313649620N00241649WA0060300717
B1249323649619N00241649WA0060400719
B1249333649618N00241650WA0060500721
B1249343649618N00241654WA0060500723
B1249353649619N00241658WA0060600722
B1249363649622N00241662WA0060700723
B1249373649625N00241666WA0060800724
B1249383649630N00241669WA0060800724
B1249393649637N00241672WA0060500724
B1249403649644N00241673WA0060300724
B1249413649652N00241671WA0060400723
B1249423649660N00241667WA0060800723
B1249433649667N00241661WA0061000723
B1249443649671N00241653WA0061300725
B1249453649672N00241646WA0061600730
B1249463649672N00241642WA0061800733
B1249473649671N00241639WA0062100736
B1249483649670N00241637WA0062300739
B1249493649669N00241636WA0062400741
B1249503649667N00241637WA0062600743
B1249513649667N00241639WA0062600745
B1249523649667N00241642WA0062700744
B1249533649669N00241646WA0062700745
B1249543649672N00241651WA0062600745
B1249553649676N00241656WA0062400745
B1249563649683N00241660WA0062300745
B1249573649691N00241662WA0062600744
B1249583649700N00241661WA0062600743
B1249593649709N00241658WA0062600743
B1250003649716N00241653WA0062700743
B1250013649722N00241647WA0062900744
B1250023649726N00241640WA0063000745
B1250033649728N00241634WA0063000747
B1250043649729N00241628WA0062900748
B1250053649729N00241624WA0062900749
B1250063649728N00241620WA0063100749
B1250073649727N00241618WA0063300750
B1250083649725N00241616WA0063300750
B1250093649723N00241615WA0063600752
B1250103649722N00241614WA0063900754
B1250113649722N00241613WA0064100756
B1250123649722N00241612WA0064100758
B1250133649722N00241612WA0064100759
B1250143649721N00241612WA0063800759
B1250153649721N00241612WA0063900759
B1250163649719N00241611WA0063700758
B1250173649718N00241610WA0063300757
B1250183649715N00241610WA0063300756
B1250193649712N00241611WA0063100754
B1250203649711N00241613WA0063300753
B1250213649709N00241614WA0063300752
B1250223649708N00241614WA0063200751
B1250233649706N00241613WA0063000750
B1250243649704N00241612WA0062900749
B1250253649702N00241610WA0063000748
B1250263649701N00241607WA0062900749
B1250273649700N00241604WA0062900748
B1250283649699N00241600WA0062800747
B1250293649697N00241596WA0062600747
B1250303649695N00241591WA0062500745
B1250313649692N00241586WA0062500744
B1250323649690N00241581WA0062500744
B1250333649689N00241575WA0062600744
B1250343649689N00241570WA0062500745
B1250353649688N00241564WA0062300743
B1250363649687N00241557WA0061900742
B1250373649685N00241550WA0061900741
B1250383649683N00241543WA0061800739
B1250393649682N00241537WA0062000739
B1250403649681N00241533WA0062200741
B1250413649681N00241529WA0062300742
B1250423649680N00241526WA0062200743
B1250433649678N00241523WA0062000743
B1250443649677N00241518WA0061800742
B1250453649675N00241512WA0061800741
B1250463649674N00241507WA0061800740
B1250473649674N00241503WA0062000741
B1250483649673N00241500WA0062100742
B1250493649672N00241498WA0062100742
B1250503649670N00241496WA0062000741
B1250513649668N00241494WA0061900740
B1250523649666N00241492WA0062000740
B1250533649665N00241490WA0062100740
B1250543649664N00241488WA0062200741
B1250553649663N00241486WA0062100741
B1250563649662N00241484WA0062000741
B1250573649660N00241480WA0062000740
B1250583649659N00241476WA0062000739
B1250593649658N00241472WA0061900739
B1251003649657N00241469WA0062000739
B1251013649656N00241466WA0062100739
B1251023649655N00241463WA0062000739
B1251033649654N00241461WA0061800738
B1251043649653N00241458WA0061800737
B1251053649651N00241457WA0061600735
B1251063649649N00241456WA0061600734
B1251073649648N00241456WA0061300733
B1251083649646N00241454WA0061000731
B1251093649644N00241452WA0060900729
B1251103649642N00241450WA0060600726
B1251113649640N00241447WA0060500725
B1251123649639N00241445WA0060400723
B1251133649638N00241443WA0060100721
B1251143649637N00241439WA0059900719
B1251153649635N00241434WA0059800717
B1251163649633N00241429WA0060100716
B1251173649632N00241426WA0060300718
B1251183649632N00241425WA0060500721
B1251193649631N00241424WA0060700723
B1251203649629N00241422WA0060800724
B1251213649626N00241418WA0060600724
B1251223649624N00241414WA0060800725
B1251233649623N00241410WA0061300728
B1251243649622N00241409WA0061600731
B1251253649622N00241410WA0061800733
B1251263649622N00241412WA0061800734
B1251273649621N00241414WA0061800734
B1251283649620N00241417WA0061800733
B1251293649619N00241421WA0061800733
B1251303649621N00241427WA0061800733
B1251313649624N00241433WA0061700732
B1251323649629N00241439WA0061600731
B1251333649635N00241443WA0061400730
B1251343649641N00241446WA0061300729
B1251353649647N00241447WA0061000728
B1251363649654N00241447WA0060600727
B1251373649661N00241446WA0060300725
B1251383649668N00241443WA0060100723
B1251393649674N00241439WA0059700720
B1251403649679N00241432WA0059400717
B1251413649683N00241424WA0059100714
B1251423649685N00241415WA0058900711
B1251433649687N00241408WA0059100712
B1251443649687N00241401WA0059700713
B1251453649687N00241397WA0060100717
B1251463649686N00241396WA0060200719
B1251473649683N00241395WA0060300720
B1251483649680N00241394WA0060300720
B1251493649678N00241394WA0060700721
B1251503649676N00241395WA0061000725
B1251513649675N00241398WA0061100727
B1251523649676N00241403WA0061300728
B1251533649679N00241408WA0061300727
B1251543649682N00241413WA0061400728
B1251553649686N00241418WA0061500730
B1251563649692N00241421WA0061700731
B1251573649699N00241423WA0061500732
B1251583649706N00241423WA0061300731
B1251593649713N00241422WA0061300731
B1252003649720N00241419WA0061200730
B1252013649727N00241413WA0061200729
B1252023649732N00241407WA0061300728
B1252033649735N00241400WA0061500729
B1252043649736N00241393WA0061800731
B1252053649738N00241388WA0061900734
B1252063649738N00241384WA0062000736
B1252073649737N00241381WA0062100737
B1252083649736N00241378WA0062100737
B1252093649734N00241374WA0062100737
B1252103649732N00241370WA0062300739
B1252113649732N00241367WA0062500741
B1252123649731N00241363WA0062600742
B1252133649730N00241361WA0062800744
B1252143649729N00241359WA0062800745
B1252153649728N00241358WA0062900745
B1252163649726N00241356WA0063100746
B1252173649725N00241353WA0063100747
B1252183649724N00241349WA0063200747
B1252193649722N00241346WA0063300748
B1252203649721N00241343WA0063300749
B1252213649720N00241340WA0063500751
B1252223649719N00241337WA0063700753
B1252233649718N00241334WA0063800754
B1252243649718N00241331WA0063800755
B1252253649717N00241326WA0063600755
B1252263649716N00241321WA0063200754
B1252273649714N00241316WA0063300753
B1252283649713N00241312WA0063900754
B1252293649713N00241309WA0064200757
B1252303649713N00241306WA0064600760
B1252313649713N00241304WA0064900763
B1252323649712N00241301WA0064900764
B1252333649710N00241299WA0064700763
B1252343649707N00241298WA0064600760
B1252353649704N00241298WA0064600760
B1252363649702N00241299WA0064700760
B1252373649699N00241298WA0064800761
B1252383649697N00241297WA0064800762
B1252393649695N00241294WA0064700762
B1252403649692N00241291WA0064700762
B1252413649690N00241289WA0064600762
B1252423649688N00241287WA0064600762
B1252433649686N00241284WA0064500761
B1252443649685N00241281WA0064200761
B1252453649683N00241276WA0063900759
B1252463649681N00241271WA0063700758
B1252473649681N00241265WA0063800757
B1252483649681N00241260WA0063800756
B1252493649682N00241254WA0063600756
B1252503649683N00241248WA0063300754
B1252513649682N00241242WA0062900753
B1252523649680N00241236WA0062800750
B1252533649677N00241231WA0062900749
B1252543649675N00241227WA0063100748
B1252553649672N00241223WA0063300749
B1252563649671N00241219WA0063600752
B1252573649669N00241216WA0063800753
B1252583649666N00241214WA0063800753
B1252593649662N00241214WA0063700752
B1253003649659N00241215WA0063600752
B1253013649658N00241217WA0063600752
B1253023649658N00241221WA0063300752
B1253033649661N00241225WA0063000751
B1253043649665N00241229WA0062900748
B1253053649671N00241232WA0062800745
B1253063649678N00241232WA0062500742
B1253073649685N00241229WA0062000739
B1253083649691N00241224WA0061800736
B1253093649697N00241217WA0061500734
B1253103649701N00241210WA0061400732
B1253113649704N00241202WA0061600731
B1253123649705N00241195WA0061700729
B1253133649706N00241190WA0061900729
B1253143649707N00241186WA0062100730
B1253153649706N00241183WA0062300731
B1253163649705N00241181WA0062200731
B1253173649702N00241181WA0062000729
B1253183649699N00241182WA0061900728
B1253193649695N00241184WA0061900727
B1253203649693N00241186WA0061900728
B1253213649691N00241188WA0062000728
B1253223649690N00241190WA0061900729
B1253233649689N00241194WA0061400729
B1253243649691N00241198WA0061100726
B1253253649694N00241203WA0060900724
B1253263649699N00241206WA0060800721
B1253273649705N00241207WA0060300718
B1253283649712N00241205WA0060000716
B1253293649718N00241200WA0059800714
B1253303649722N00241193WA0059800713
B1253313649726N00241187WA0059500712
B1253323649728N00241180WA0059400710
B1253333649729N00241173WA0059300709
B1253343649729N00241168WA0059500708
B1253353649729N00241164WA0059500707
B1253363649728N00241160WA0059500707
B1253373649728N00241156WA0059300706
B1253383649727N00241152WA0059000705
B1253393649724N00241147WA0058600702
B1253403649722N00241142WA0058400699
B1253413649719N00241136WA0058200697
B1253423649717N00241130WA0058100696
B1253433649716N00241124WA0058100697
B1253443649715N00241119WA0058000697
B1253453649714N00241113WA0057700695
B1253463649713N00241107WA0057400694
B1253473649712N00241101WA0057300692
B1253483649711N00241094WA0057200691
B1253493649710N00241088WA0057300690
B1253503649709N00241083WA0057400691
B1253513649707N00241079WA0057400691
B1253523649705N00241076WA0057300690
B1253533649703N00241073WA0057200689
B1253543649700N00241070WA0057000688
B1253553649697N00241066WA0056800686
B1253563649694N00241062WA0056600684
B1253573649691N00241058WA0056600683
B1253583649689N00241055WA0056600683
B1253593649687N00241051WA0056600683
B1254003649686N00241047WA0056500682
B1254013649684N00241042WA0056500681
B1254023649683N00241037WA0056300681
B1254033649683N00241032WA0056100680
B1254043649683N00241027WA0056000680
B1254053649683N00241021WA0056000679
B1254063649683N00241016WA0056000678
B1254073649684N00241010WA0055800677
B1254083649684N00241004WA0055500676
B1254093649685N00240998WA0055300674
B1254103649687N00240992WA0055200672
B1254113649687N00240986WA0055000670
B1254123649687N00240980WA0054800668
B1254133649688N00240975WA0054700666
B1254143649688N00240969WA0054400664
B1254153649688N00240963WA0054300661
B1254163649688N00240957WA0054000658
B1254173649689N00240951WA0053800656
B1254183649689N00240945WA0053700655
B1254193649689N00240940WA0053500653
B1254203649689N00240935WA0053200651
B1254213649688N00240929WA0052900648
B1254223649688N00240922WA0052600645
B1254233649688N00240915WA0052300642
B1254243649688N00240909WA0052200640
B1254253649687N00240903WA0052000638
B1254263649688N00240897WA0051800636
B1254273649688N00240891WA0051600634
B1254283649690N00240884WA0051200631
B1254293649692N00240876WA0050900628
B1254303649695N00240869WA0050800625
B1254313649698N00240862WA0050600623
B1254323649700N00240855WA0050300621
B1254333649702N00240848WA0050000619
B1254343649705N00240841WA0049800617
B1254353649707N00240834WA0049600615
B1254363649711N00240827WA0049400613
B1254373649715N00240820WA0049200611
B1254383649719N00240814WA0048900609
B1254393649722N00240807WA0048800606
B1254403649726N00240800WA0048700604
B1254413649729N00240793WA0048500603
B1254423649732N00240787WA0048500602
B1254433649735N00240781WA0048400601
B1254443649737N00240775WA0048400601
B1254453649740N00240769WA0048200600
B1254463649742N00240763WA0048100599
B1254473649746N00240757WA0048000598
B1254483649750N00240751WA0048000597
B1254493649754N00240745WA0047800596
B1254503649758N00240739WA0047600595
B1254513649762N00240733WA0047500594
B1254523649766N00240728WA0047500592
B1254533649771N00240723WA0047400591
B1254543649775N00240718WA0047100589
B1254553649780N00240712WA0046900588
B1254563649785N00240707WA0046800586
B1254573649790N00240701WA0046800585
B1254583649793N00240696WA0046700584
B1254593649796N00240690WA0046500582
B1255003649797N00240683WA0046300580
B1255013649798N00240677WA0046600581
B1255023649799N00240671WA0046900584
B1255033649800N00240668WA0047400588
B1255043649800N00240665WA0047500590
B1255053649799N00240663WA0047800593
B1255063649798N00240662WA0048100595
B1255073649797N00240661WA0048200597
B1255083649796N00240662WA0048300598
B1255093649795N00240665WA0048500599
B1255103649794N00240669WA0048400600
B1255113649793N00240674WA0048400600
B1255123649793N00240681WA0048500601
B1255133649795N00240689WA0048500602
B1255143649800N00240696WA0048400601
B1255153649806N00240702WA0048300600
B1255163649814N00240706WA0048200599
B1255173649823N00240707WA0048000597
B1255183649829N00240702WA0047500597
B1255193649832N00240696WA0047500595
B1255203649831N00240690WA0047800595
B1255213649831N00240686WA0048200597
B1255223649832N00240684WA0048500601
B1255233649833N00240682WA0048600603
B1255243649834N00240679WA0048500603
B1255253649833N00240675WA0048100602
B1255263649830N00240671WA0047900601
B1255273649829N00240669WA0048200600
B1255283649827N00240667WA0048900601
B1255293649828N00240666WA0049300607
B1255303649830N00240665WA0049400610
B1255313649830N00240665WA0049200610
B1255323649829N00240663WA0048600609
B1255333649826N00240661WA0048400609
B1255343649824N00240659WA0048400607
B1255353649823N00240656WA0048700608
B1255363649823N00240652WA0049000609
B1255373649823N00240648WA0049000610
B1255383649823N00240645WA0049000611
B1255393649822N00240643WA0049100612
B1255403649822N00240641WA0049100612
B1255413649821N00240639WA0049000612
B1255423649819N00240636WA0048900612
B1255433649817N00240634WA0048900612
B1255443649815N00240633WA0049100612
B1255453649813N00240631WA0049200612
B1255463649811N00240630WA0049500613
B1255473649809N00240630WA0049600615
B1255483649807N00240629WA0049700616
B1255493649805N00240629WA0049900617
B1255503649803N00240628WA0050000618
B1255513649801N00240627WA0050200620
B1255523649800N00240626WA0050600622
B1255533649799N00240626WA0050800625
B1255543649799N00240626WA0050900626
B1255553649798N00240625WA0050800627
B1255563649797N00240622WA0050700625
B1255573649795N00240619WA0050700625
B1255583649794N00240617WA0050900626
B1255593649793N00240615WA0051300627
B1256003649793N00240614WA0051400629
B1256013649793N00240612WA0051300631
B1256023649791N00240610WA0051200631
B1256033649790N00240608WA0050900631
B1256043649788N00240605WA0050900629
B1256053649786N00240603WA0050900629
B1256063649784N00240601WA0051000629
B1256073649782N00240599WA0051100630
B1256083649780N00240596WA0051200630
B1256093649778N00240594WA0051300632
B1256103649776N00240592WA0051400632
B1256113649774N00240590WA0051300632
B1256123649771N00240588WA0051400633
B1256133649769N00240586WA0051700634
B1256143649767N00240585WA0052100637
B1256153649765N00240585WA0052300640
B1256163649763N00240585WA0052300641
B1256173649761N00240584WA0052100642
B1256183649758N00240581WA0051900643
B1256193649755N00240578WA0052000643
B1256203649753N00240575WA0052200644
B1256213649750N00240573WA0052300645
B1256223649749N00240571WA0052400646
B1256233649747N00240570WA0052400646
B1256243649745N00240568WA0052200643
B1256253649742N00240565WA0051700640
B1256263649739N00240562WA0051600639
B1256273649736N00240559WA0051700637
B1256283649733N00240557WA0051700637
B1256293649731N00240555WA0051900637
B1256303649729N00240553WA0051900637
B1256313649727N00240551WA0051700636
B1256323649725N00240548WA0051600635
B1256333649721N00240546WA0051500634
B1256343649718N00240543WA0051400632
B1256353649716N00240541WA0051500632
B1256363649714N00240538WA0051600633
B1256373649712N00240535WA0051300632
B1256383649709N00240531WA0051200630
B1256393649706N00240528WA0051100629
B1256403649703N00240525WA0050900627
B1256413649701N00240523WA0050900627
B1256423649698N00240521WA0050900626
B1256433649696N00240518WA0050700625
B1256443649693N00240516WA0050500623
B1256453649691N00240513WA0050300622
B1256463649688N00240510WA0050200620
B1256473649685N00240507WA0049700618
B1256483649681N00240504WA0049600616
B1256493649677N00240501WA0049100613
B1256503649673N00240497WA0048800611
B1256513649669N00240494WA0048800609
B1256523649665N00240489WA0048900608
B1256533649662N00240484WA0048700606
B1256543649660N00240481WA0048300604
B1256553649656N00240478WA0048100602
B1256563649652N00240475WA0047800600
B1256573649648N00240473WA0047900598
B1256583649644N00240470WA0047800596
B1256593649640N00240467WA0047400594
B1257003649637N00240464WA0047000591
B1257013649632N00240463WA0046600587
B1257023649627N00240461WA0046200584
B1257033649622N00240459WA0046000581
B1257043649617N00240455WA0045800579
B1257053649613N00240452WA0045800577
B1257063649609N00240448WA0045700575
B1257073649605N00240444WA0045800573
B1257083649601N00240441WA0046000573
B1257093649597N00240438WA0046200574
B1257103649594N00240437WA0046300576
B1257113649592N00240437WA0046600577
B1257123649590N00240436WA0046700579
B1257133649589N00240435WA0046600579
B1257143649586N00240433WA0046500578
B1257153649583N00240432WA0046300577
B1257163649579N00240431WA0046400576
B1257173649577N00240431WA0046400577
B1257183649574N00240430WA0046300577
B1257193649572N00240429WA0046200577
B1257203649569N00240426WA0045900576
B1257213649565N00240424WA0045700576
B1257223649562N00240422WA0045900575
B1257233649558N00240419WA0046100575
B1257243649556N00240415WA0046200576
B1257253649554N00240412WA0046200576
B1257263649552N00240409WA0046200576
B1257273649549N00240407WA0046000575
B1257283649546N00240403WA0045900574
B1257293649543N00240398WA0045900573
B1257303649540N00240394WA0045900573
B1257313649539N00240390WA0046100574
B1257323649536N00240387WA0046100574
B1257333649533N00240384WA0045800574
B1257343649530N00240380WA0045700572
B1257353649527N00240376WA0045600570
B1257363649525N00240372WA0045600570
B1257373649523N00240368WA0045600570
B1257383649521N00240364WA0045500570
B1257393649518N00240360WA0045300568
B1257403649516N00240355WA0045000566
B1257413649513N00240350WA0045000565
B1257423649511N00240344WA0044900563
B1257433649508N00240339WA0044900563
B1257443649506N00240336WA0044800564
B1257453649504N00240333WA0044600563
B1257463649501N00240329WA0044200562
B1257473649498N00240323WA0044200561
B1257483649496N00240318WA0043800558
B1257493649493N00240313WA0043900557
B1257503649490N00240309WA0043800557
B1257513649488N00240306WA0043800556
B1257523649486N00240303WA0043600555
B1257533649484N00240298WA0043400553
B1257543649482N00240292WA0043200551
B1257553649479N00240286WA0043100549
B1257563649477N00240282WA0043100548
B1257573649475N00240277WA0043100548
B1257583649474N00240273WA0042900547
B1257593649472N00240268WA0042800546
B1258003649470N00240263WA0042400544
B1258013649467N00240259WA0042200542
B1258023649465N00240254WA0042200541
B1258033649463N00240249WA0042500540
B1258043649461N00240245WA0042500540
B1258053649459N00240241WA0042500540
B1258063649457N00240238WA0042600541
B1258073649455N00240235WA0042600541
B1258083649453N00240231WA0042500540
B1258093649450N00240227WA0042400539
B1258103649448N00240223WA0042500539
B1258113649445N00240220WA0042600540
B1258123649443N00240217WA0042500540
B1258133649441N00240214WA0042400540
B1258143649437N00240211WA0042300539
B1258153649434N00240208WA0042200538
B1258163649431N00240205WA0042200537
B1258173649428N00240202WA0042200536
B1258183649426N00240199WA0042300537
B1258193649423N00240196WA0042200536
B1258203649420N00240193WA0042200536
B1258213649417N00240191WA0042200536
B1258223649414N00240190WA0042100535
B1258233649410N00240188WA0041900534
B1258243649407N00240185WA0041900533
B1258253649404N00240182WA0041800533
B1258263649401N00240179WA0041700532
B1258273649399N00240176WA0041500531
B1258283649396N00240173WA0041200529
B1258293649392N00240169WA0040900526
B1258303649389N00240164WA0040400523
B1258313649386N00240158WA0040200520
B1258323649382N00240152WA0039900517
B1258333649377N00240148WA0039600515
B1258343649373N00240143WA0039600513
B1258353649369N00240138WA0039600513
B1258363649367N00240133WA0039800512
B1258373649366N00240130WA0039900513
B1258383649365N00240126WA0040000514
B1258393649363N00240123WA0039800513
B1258403649361N00240119WA0039700512
B1258413649358N00240115WA0039600510
B1258423649355N00240111WA0039700511
B1258433649354N00240109WA0039900513
B1258443649353N00240107WA0039900514
B1258453649351N00240105WA0039700514
B1258463649349N00240103WA0039600513
B1258473649345N00240100WA0039400510
B1258483649342N00240097WA0039400509
B1258493649339N00240095WA0039500508
B1258503649337N00240093WA0039600509
B1258513649334N00240090WA0039700510
B1258523649331N00240088WA0039600510
B1258533649327N00240086WA0039600509
B1258543649323N00240085WA0039600509
B1258553649320N00240084WA0039800511
B1258563649317N00240084WA0039800511
B1258573649314N00240082WA0039600511
B1258583649310N00240080WA0039600511
B1258593649306N00240078WA0039500510
B1259003649302N00240075WA0039600510
B1259013649299N00240073WA0039600510
B1259023649296N00240070WA0039700511
B1259033649293N00240068WA0039700512
B1259043649290N00240064WA0039800512
B1259053649288N00240060WA0039900512
B1259063649286N00240057WA0040000513
B1259073649284N00240054WA0040100514
B1259083649282N00240051WA0040000514
B1259093649280N00240047WA0039800513
B1259103649277N00240042WA0039800512
B1259113649275N00240038WA0039800512
B1259123649273N00240034WA0040000513
B1259133649272N00240030WA0040100513
B1259143649271N00240026WA0040200514
B1259153649269N00240023WA0040200515
B1259163649267N00240020WA0040200515
B1259173649265N00240016WA0040100514
B1259183649262N00240011WA0040200514
B1259193649260N00240006WA0040300515
B1259203649259N00240001WA0040400516
B1259213649258N00239997WA0040500517
B1259223649257N00239992WA0040600518
B1259233649255N00239988WA0040700519
B1259243649254N00239984WA0040900520
B1259253649251N00239982WA0040900521
B1259263649249N00239981WA0041100523
B1259273649247N00239981WA0041100524
B1259283649246N00239982WA0041200524
B1259293649244N00239985WA0041300525
B1259303649242N00239988WA0041300525
B1259313649241N00239992WA0041200525
B1259323649241N00239997WA0040900525
B1259333649243N00240002WA0040900524
B1259343649246N00240007WA0041100524
B1259353649251N00240012WA0041100523
B1259363649256N00240016WA0041000523
B1259373649262N00240019WA0040900523
B1259383649268N00240021WA0040700522
B1259393649275N00240021WA0040800522
B1259403649282N00240020WA0040700522
B1259413649288N00240017WA0040900522
B1259423649294N00240014WA0041000523
B1259433649298N00240010WA0041200524
B1259443649300N00240005WA0041400524
B1259453649302N00240000WA0041600525
B1259463649303N00239995WA0041500525
B1259473649303N00239990WA0041400524
B1259483649302N00239985WA0041400524
B1259493649300N00239982WA0041400524
B1259503649296N00239980WA0041400524
B1259513649293N00239979WA0041500525
B1259523649290N00239980WA0041600526
B1259533649287N00239982WA0041700527
B1259543649286N00239985WA0041800528
B1259553649285N00239990WA0041900529
B1259563649284N00239995WA0042000530
B1259573649284N00240001WA0041900530
B1259583649285N00240007WA0041900530
B1259593649288N00240014WA0041900530
B1300003649291N00240019WA0042100530
B1300013649296N00240023WA0042200531
B1300023649301N00240026WA0042200532
B1300033649306N00240028WA0041900532
B1300043649312N00240029WA0041700532
B1300053649318N00240030WA0041900532
B1300063649324N00240029WA0042100532
B1300073649329N00240026WA0042200532
B1300083649334N00240023WA0042200533
B1300093649338N00240020WA0042300534
B1300103649341N00240016WA0042400534
B1300113649344N00240011WA0042400535
B1300123649347N00240006WA0042600535
B1300133649349N00240003WA0042700537
B1300143649350N00239999WA0042700538
B1300153649351N00239995WA0042700539
B1300163649351N00239991WA0042500537
B1300173649350N00239986WA0042400537
B1300183649348N00239982WA0042600537
B1300193649346N00239978WA0042700537
B1300203649344N00239976WA0042800538
B1300213649341N00239975WA0042900540
B1300223649338N00239975WA0043000540
B1300233649335N00239976WA0042900541
B1300243649332N00239980WA0042900541
B1300253649329N00239985WA0042900540
B1300263649327N00239990WA0042900541
B1300273649326N00239996WA0043000541
B1300283649325N00240002WA0043200543
B1300293649326N00240008WA0043400544
B1300303649327N00240013WA0043500545
B1300313649329N00240018WA0043500546
B1300323649332N00240022WA0043400546
B1300333649335N00240027WA0043400546
B1300343649340N00240033WA0043300545
B1300353649347N00240037WA0043100544
B1300363649354N00240040WA0043100543
B1300373649360N00240039WA0043300543
B1300383649365N00240038WA0043300544
B1300393649370N00240036WA0043300545
B1300403649374N00240033WA0043100545
B1300413649378N00240028WA0042800544
B1300423649381N00240022WA0042900543
B1300433649383N00240015WA0042900542
B1300443649384N00240009WA0042900542
B1300453649383N00240004WA0043100544
B1300463649383N00240000WA0043200546
B1300473649383N00239996WA0043300546
B1300483649382N00239992WA0043400547
B1300493649381N00239989WA0043500548
B1300503649380N00239986WA0043500549
B1300513649378N00239985WA0043600550
B1300523649375N00239984WA0043800551
B1300533649372N00239983WA0043900552
B1300543649369N00239982WA0044100553
B1300553649367N00239982WA0044100554
B1300563649364N00239983WA0044200555
B1300573649362N00239985WA0044200555
B1300583649360N00239988WA0044200556
B1300593649359N00239992WA0044200556
B1301003649359N00239996WA0044200556
B1301013649360N00240002WA0044000555
B1301023649361N00240007WA0043500553
B1301033649364N00240013WA0043700552
B1301043649369N00240017WA0043700551
B1301053649374N00240022WA0043600550
B1301063649380N00240025WA0043600549
B1301073649385N00240027WA0043600549
B1301083649390N00240029WA0043800550
B1301093649394N00240029WA0043700549
B1301103649400N00240028WA0043500549
B1301113649406N00240025WA0043400548
B1301123649411N00240021WA0043500548
B1301133649415N00240018WA0043500548
B1301143649418N00240015WA0043600550
B1301153649420N00240012WA0043500550
B1301163649422N00240008WA0043200549
B1301173649423N00240003WA0043200548
B1301183649423N00239999WA0043300548
B1301193649422N00239994WA0043500548
B1301203649422N00239991WA0043500548
B1301213649420N00239987WA0043500548
B1301223649419N00239984WA0043500548
B1301233649417N00239981WA0043400548
B1301243649415N00239979WA0043300548
B1301253649412N00239976WA0043300547
B1301263649410N00239972WA0043400547
B1301273649409N00239969WA0043500547
B1301283649407N00239965WA0043500547
B1301293649405N00239961WA0043500548
B1301303649403N00239958WA0043500548
B1301313649401N00239955WA0043500548
B1301323649399N00239951WA0043400548
B1301333649397N00239947WA0043300547
B1301343649394N00239943WA0043000546
B1301353649392N00239938WA0042900546
B1301363649389N00239934WA0043300546
B1301373649387N00239931WA0043300546
B1301383649384N00239926WA0043400546
B1301393649382N00239922WA0043400546
B1301403649381N00239917WA0043500547
B1301413649380N00239913WA0043600548
B1301423649379N00239909WA0043600549
B1301433649377N00239905WA0043500549
B1301443649376N00239900WA0043200548
B1301453649374N00239896WA0043100547
B1301463649372N00239891WA0043100545
B1301473649371N00239885WA0043200545
B1301483649370N00239880WA0043200545
B1301493649369N00239875WA0043000544
B1301503649368N00239869WA0042900543
B1301513649367N00239863WA0042900542
B1301523649367N00239857WA0043000542
B1301533649366N00239851WA0043100543
B1301543649366N00239846WA0043300544
B1301553649366N00239841WA0043300545
B1301563649365N00239835WA0043200545
B1301573649365N00239829WA0042900543
B1301583649364N00239823WA0042900542
B1301593649363N00239817WA0042900541
B1302003649363N00239812WA0042800541
B1302013649362N00239807WA0042800540
B1302023649362N00239802WA0042600540
B1302033649361N00239795WA0042400538
B1302043649360N00239788WA0042200536
B1302053649359N00239781WA0042200535
B1302063649359N00239776WA0042200535
B1302073649358N00239771WA0042200536
B1302083649358N00239767WA0042000536
B1302093649357N00239761WA0041700535
B1302103649355N00239755WA0041600534
B1302113649354N00239749WA0041700532
B1302123649352N00239744WA0041800531
B1302133649351N00239741WA0041800531
B1302143649350N00239738WA0041600531
B1302153649349N00239735WA0041500530
B1302163649347N00239732WA0041300528
B1302173649344N00239728WA0041000525
B1302183649342N00239723WA0041000523
B1302193649340N00239719WA0041000523
B1302203649340N00239715WA0041000524
B1302213649340N00239712WA0040900525
B1302223649339N00239708WA0040700523
B1302233649338N00239704WA0040300519
B1302243649336N00239698WA0040000515
B1302253649335N00239692WA0039900513
B1302263649334N00239687WA0039900512
B1302273649333N00239684WA0039800512
B1302283649332N00239680WA0039500511
B1302293649330N00239676WA0039300510
B1302303649329N00239671WA0039100507
B1302313649327N00239665WA0039000505
B1302323649325N00239661WA0038800503
B1302333649324N00239657WA0038800502
B1302343649323N00239654WA0038600501
B1302353649322N00239650WA0038400500
B1302363649320N00239646WA0038200497
B1302373649318N00239641WA0038000494
B1302383649316N00239637WA0037900493
B1302393649315N00239634WA0037800492
B1302403649313N00239630WA0037700491
B1302413649312N00239626WA0037500489
B1302423649310N00239622WA0037200487
B1302433649307N00239617WA0037100484
B1302443649305N00239613WA0037100482
B1302453649302N00239610WA0037100483
B1302463649301N00239606WA0037200484
B1302473649300N00239603WA0037400484
B1302483649299N00239600WA0037400485
B1302493649297N00239597WA0037300485
B1302503649294N00239594WA0037100484
B1302513649291N00239590WA0037000483
B1302523649289N00239585WA0036900482
B1302533649289N00239580WA0036900481
B1302543649289N00239575WA0037000481
B1302553649288N00239570WA0037100481
B1302563649287N00239565WA0037100481
B1302573649286N00239560WA0037100482
B1302583649286N00239556WA0037100482
B1302593649286N00239551WA0037200483
B1303003649288N00239547WA0037300484
B1303013649289N00239542WA0037500486
B1303023649291N00239538WA0037600487
B1303033649293N00239534WA0037600487
B1303043649294N00239530WA0037500488
B1303053649294N00239525WA0037400487
B1303063649293N00239521WA0037300486
B1303073649291N00239517WA0037200485
B1303083649289N00239512WA0037300485
B1303093649288N00239508WA0037500486
B1303103649286N00239504WA0037500486
B1303113649285N00239500WA0037500486
B1303123649283N00239496WA0037400486
B1303133649282N00239494WA0037400486
B1303143649280N00239491WA0037500487
B1303153649278N00239487WA0037600487
B1303163649276N00239483WA0037700487
B1303173649276N00239479WA0037800490
B1303183649275N00239476WA0038100492
B1303193649275N00239474WA0038200494
B1303203649273N00239474WA0038300494
B1303213649270N00239474WA0038100493
B1303223649267N00239476WA0037700492
B1303233649265N00239480WA0038100492
B1303243649265N00239485WA0038200492
B1303253649266N00239491WA0038400493
B1303263649267N00239496WA0038700495
B1303273649270N00239502WA0038900497
B1303283649274N00239507WA0039000498
B1303293649279N00239511WA0039100499
B1303303649284N00239514WA0039300500
B1303313649290N00239514WA0039500502
B1303323649296N00239512WA0039600503
B1303333649302N00239508WA0039600504
B1303343649306N00239503WA0039600505
B1303353649308N00239498WA0039800506
B1303363649309N00239493WA0039900507
B1303373649309N00239488WA0040100509
B1303383649308N00239485WA0040100511
B1303393649307N00239483WA0040200511
B1303403649305N00239482WA0040200512
B1303413649303N00239482WA0040200512
B1303423649300N00239483WA0040100511
B1303433649297N00239486WA0039800511
B1303443649295N00239491WA0039800511
B1303453649295N00239497WA0040100511
B1303463649295N00239504WA0040400512
B1303473649296N00239510WA0040600514
B1303483649299N00239517WA0040800516
B1303493649303N00239522WA0041000518
B1303503649307N00239527WA0041100520
B1303513649313N00239529WA0041300521
B1303523649318N00239530WA0041400523
B1303533649324N00239529WA0041400524
B1303543649330N00239526WA0041400525
B1303553649336N00239522WA0041500525
B1303563649340N00239518WA0041600526
B1303573649343N00239514WA0041600527
B1303583649344N00239510WA0041700528
B1303593649345N00239506WA0041600528
B1304003649343N00239503WA0041300527
B1304013649341N00239502WA0041400526
B1304023649338N00239502WA0041700526
B1304033649335N00239505WA0041800527
B1304043649333N00239508WA0041900528
B1304053649332N00239513WA0042100529
B1304063649332N00239519WA0042200530
B1304073649332N00239526WA0042200530
B1304083649334N00239533WA0042200530
B1304093649337N00239539WA0042400531
B1304103649340N00239545WA0042500533
B1304113649344N00239549WA0042700534
B1304123649349N00239554WA0042800536
B1304133649355N00239557WA0042900537
B1304143649361N00239560WA0042900538
B1304153649367N00239560WA0043100539
B1304163649373N00239559WA0043100540
B1304173649378N00239556WA0043100540
B1304183649383N00239553WA0043000540
B1304193649387N00239548WA0043000539
B1304203649391N00239543WA0043100539
B1304213649393N00239538WA0043200540
B1304223649394N00239534WA0043300542
B1304233649394N00239530WA0043300542
B1304243649393N00239527WA0043200542
B1304253649391N00239523WA0042900541
B1304263649388N00239521WA0042900541
B1304273649386N00239521WA0043300542
B1304283649382N00239523WA0043300542
B1304293649379N00239527WA0043200542
B1304303649377N00239532WA0043400542
B1304313649377N00239538WA0043500543
B1304323649378N00239545WA0043600545
B1304333649380N00239551WA0043600546
B1304343649384N00239557WA0043700547
B1304353649388N00239561WA0043700547
B1304363649393N00239565WA0043500548
B1304373649398N00239567WA0043300547
B1304383649404N00239568WA0043300546
B1304393649410N00239567WA0043400545
B1304403649415N00239564WA0043300543
B1304413649420N00239561WA0043200543
B1304423649425N00239558WA0043300542
B1304433649429N00239554WA0043300542
B1304443649432N00239550WA0043100542
B1304453649434N00239546WA0042900542
B1304463649436N00239541WA0042700541
B1304473649437N00239535WA0042700540
B1304483649438N00239530WA0042700540
B1304493649438N00239525WA0042900539
B1304503649438N00239522WA0042900540
B1304513649437N00239518WA0043200541
B1304523649435N00239515WA0043300542
B1304533649432N00239512WA0043500543
B1304543649428N00239510WA0043500544
B1304553649424N00239510WA0043800545
B1304563649420N00239512WA0043900546
B1304573649417N00239516WA0044200548
B1304583649415N00239521WA0044500552
B1304593649413N00239526WA0044800555
B1305003649414N00239531WA0045000558
B1305013649416N00239537WA0045000560
B1305023649421N00239542WA0045000561
B1305033649427N00239546WA0045000560
B1305043649433N00239547WA0044900559
B1305053649440N00239546WA0045000559
B1305063649445N00239544WA0045000559
B1305073649450N00239540WA0045000559
B1305083649455N00239535WA0045300560
B1305093649459N00239528WA0045400560
B1305103649460N00239522WA0045500562
B1305113649460N00239516WA0045600563
B1305123649457N00239512WA0045700564
B1305133649453N00239509WA0045800565
B1305143649449N00239508WA0046100568
B1305153649446N00239510WA0046400571
B1305163649444N00239513WA0046700574
B1305173649444N00239518WA0046800576
B1305183649444N00239524WA0046800577
B1305193649446N00239531WA0047000577
B1305203649449N00239537WA0047100579
B1305213649454N00239541WA0047400580
B1305223649460N00239544WA0047600582
B1305233649466N00239543WA0047900584
B1305243649470N00239539WA0047900585
B1305253649474N00239533WA0047900586
B1305263649475N00239526WA0048100587
B1305273649474N00239520WA0048300590
B1305283649472N00239516WA0048700594
B1305293649470N00239513WA0048800597
B1305303649467N00239512WA0048900598
B1305313649464N00239513WA0049000599
B1305323649461N00239513WA0049000599
B1305333649458N00239514WA0049100601
B1305343649456N00239515WA0049500603
B1305353649454N00239517WA0049600605
B1305363649454N00239521WA0049700606
B1305373649454N00239527WA0049800607
B1305383649456N00239533WA0049800607
B1305393649460N00239539WA0050000607
B1305403649464N00239544WA0050100609
B1305413649469N00239546WA0050200610
B1305423649475N00239547WA0050400611
B1305433649480N00239546WA0050500613
B1305443649485N00239544WA0050800614
B1305453649490N00239541WA0050900615
B1305463649493N00239536WA0051000617
B1305473649496N00239532WA0051200619
B1305483649496N00239526WA0051300621
B1305493649496N00239521WA0051500622
B1305503649495N00239517WA0051500622
B1305513649492N00239513WA0051400623
B1305523649490N00239511WA0051500624
B1305533649488N00239511WA0051600625
B1305543649485N00239512WA0051700626
B1305553649484N00239516WA0051800627
B1305563649482N00239519WA0051900628
B1305573649482N00239524WA0051900629
B1305583649483N00239529WA0052000630
B1305593649485N00239534WA0052100629
B1306003649487N00239541WA0052000628
B1306013649491N00239547WA0052200628
B1306023649495N00239552WA0052400629
B1306033649500N00239554WA0052600631
B1306043649504N00239555WA0052900633
B1306053649510N00239554WA0053000635
B1306063649515N00239551WA0053000636
B1306073649519N00239546WA0053000637
B1306083649521N00239541WA0053300638
B1306093649523N00239535WA0053500640
B1306103649524N00239529WA0053700642
B1306113649524N00239524WA0053800644
B1306123649524N00239520WA0053900646
B1306133649523N00239517WA0054000647
B1306143649521N00239515WA0053900647
B1306153649518N00239513WA0053900647
B1306163649515N00239514WA0053800646
B1306173649512N00239515WA0053900647
B1306183649510N00239518WA0054200648
B1306193649509N00239521WA0054400650
B1306203649508N00239525WA0054400651
B1306213649508N00239530WA0054500652
B1306223649509N00239536WA0054400652
B1306233649512N00239542WA0054400651
B1306243649517N00239548WA0054600651
B1306253649521N00239552WA0054800652
B1306263649526N00239554WA0055000653
B1306273649531N00239554WA0055000655
B1306283649537N00239551WA0054900654
B1306293649543N00239547WA0054300653
B1306303649547N00239540WA0054400652
B1306313649551N00239535WA0054800652
B1306323649554N00239530WA0055100653
B1306333649556N00239526WA0055200655
B1306343649557N00239521WA0055200655
B1306353649556N00239517WA0055000655
B1306363649553N00239512WA0054700652
B1306373649549N00239508WA0054700650
B1306383649545N00239506WA0054900651
B1306393649542N00239507WA0055100655
B1306403649540N00239508WA0055100657
B1306413649538N00239510WA0055100658
B1306423649535N00239512WA0054600658
B1306433649532N00239517WA0054400658
B1306443649531N00239523WA0054700657
B1306453649532N00239530WA0054700656
B1306463649534N00239536WA0054800657
B1306473649537N00239541WA0055000658
B1306483649540N00239545WA0055200660
B1306493649545N00239548WA0055200660
B1306503649549N00239551WA0055100660
B1306513649555N00239553WA0055100660
B1306523649561N00239553WA0055200660
B1306533649566N00239553WA0055100660
B1306543649571N00239552WA0055000659
B1306553649575N00239550WA0054700658
B1306563649580N00239548WA0054400657
B1306573649585N00239545WA0054400656
B1306583649590N00239539WA0054400654
B1306593649595N00239534WA0054400652
B1307003649600N00239528WA0054300652
B1307013649605N00239524WA0054400653
B1307023649608N00239519WA0054400653
B1307033649611N00239514WA0054400654
B1307043649613N00239508WA0054400653
B1307053649616N00239503WA0054400653
B1307063649618N00239498WA0054400653
B1307073649620N00239493WA0054300653
B1307083649621N00239488WA0054100653
B1307093649623N00239482WA0054000653
B1307103649624N00239477WA0053800652
B1307113649626N00239471WA0053900652
B1307123649626N00239466WA0054000651
B1307133649626N00239462WA0054000651
B1307143649624N00239458WA0054000650
B1307153649623N00239454WA0054000649
B1307163649622N00239450WA0053900649
B1307173649621N00239447WA0053800649
B1307183649619N00239443WA0053700647
B1307193649616N00239440WA0053600646
B1307203649615N00239436WA0053500645
B1307213649613N00239432WA0053400645
B1307223649612N00239427WA0053200644
B1307233649610N00239422WA0053000643
B1307243649608N00239417WA0053000642
B1307253649605N00239413WA0053300642
B1307263649602N00239408WA0053500643
B1307273649601N00239404WA0053700645
B1307283649599N00239401WA0053800647
B1307293649598N00239398WA0053900649
B1307303649596N00239397WA0054000650
B1307313649594N00239397WA0053900648
B1307323649591N00239400WA0053600648
B1307333649589N00239403WA0053500647
B1307343649587N00239407WA0053700647
B1307353649585N00239413WA0053900647
B1307363649586N00239419WA0054000647
B1307373649587N00239425WA0054100648
B1307383649590N00239431WA0054200649
B1307393649594N00239435WA0054200649
B1307403649599N00239439WA0054000648
B1307413649605N00239441WA0053800647
B1307423649612N00239442WA0053700647
B1307433649619N00239440WA0054000647
B1307443649624N00239436WA0054300648
B1307453649629N00239432WA0054300649
B1307463649632N00239427WA0054400650
B1307473649634N00239421WA0054300650
B1307483649634N00239415WA0054300650
B1307493649634N00239409WA0054300650
B1307503649633N00239403WA0054300650
B1307513649631N00239399WA0054400650
B1307523649629N00239395WA0054500651
B1307533649627N00239391WA0054500651
B1307543649625N00239387WA0054500652
B1307553649622N00239384WA0054500652
B1307563649618N00239382WA0054600653
B1307573649615N00239381WA0054700654
B1307583649611N00239382WA0054800654
B1307593649608N00239383WA0054900655
B1308003649605N00239385WA0055000657
B1308013649603N00239388WA0055100658
B1308023649601N00239392WA0055100659
B1308033649600N00239397WA0055200659
B1308043649600N00239404WA0055000659
B1308053649601N00239411WA0054900659
B1308063649605N00239417WA0054800658
B1308073649610N00239423WA0055000658
B1308083649615N00239427WA0055200659
B1308093649620N00239429WA0055300661
B1308103649625N00239430WA0055500662
B1308113649630N00239430WA0055600663
B1308123649635N00239428WA0055400663
B1308133649639N00239424WA0055300663
B1308143649643N00239419WA0055200661
B1308153649645N00239412WA0055200660
B1308163649648N00239406WA0055300661
B1308173649649N00239400WA0055500662
B1308183649649N00239396WA0055700663
B1308193649649N00239391WA0055800665
B1308203649648N00239387WA0055800666
B1308213649646N00239384WA0055800666
B1308223649643N00239382WA0055800666
B1308233649640N00239382WA0055700665
B1308243649638N00239384WA0055600664
B1308253649635N00239387WA0055300664
B1308263649633N00239390WA0055300663
B1308273649632N00239394WA0055500663
B1308283649632N00239400WA0055700663
B1308293649633N00239406WA0055600663
B1308303649635N00239412WA0055700663
B1308313649637N00239418WA0055700664
B1308323649640N00239424WA0055500664
B1308333649644N00239429WA0055300664
B1308343649648N00239433WA0055400664
B1308353649655N00239435WA0055600664
B1308363649661N00239436WA0055700663
B1308373649667N00239435WA0055700664
B1308383649672N00239435WA0055800665
B1308393649677N00239433WA0055800666
B1308403649681N00239430WA0055700666
B1308413649686N00239426WA0055600665
B1308423649691N00239422WA0055600664
B1308433649695N00239417WA0055700665
B1308443649698N00239413WA0055800665
B1308453649701N00239410WA0055900666
B1308463649703N00239405WA0055800666
B1308473649706N00239399WA0055700665
B1308483649707N00239392WA0055600665
B1308493649707N00239386WA0055700665
B1308503649707N00239382WA0055900667
B1308513649706N00239378WA0056000668
B1308523649706N00239375WA0055900669
B1308533649705N00239371WA0055900669
B1308543649703N00239369WA0055300668
B1308553649699N00239368WA0055200667
B1308563649695N00239369WA0055300665
B1308573649691N00239372WA0055300664
B1308583649690N00239376WA0055400664
B1308593649689N00239381WA0055400664
B1309003649689N00239385WA0055400664
B1309013649690N00239391WA0055200663
B1309023649693N00239397WA0054900662
B1309033649696N00239402WA0055000662
B1309043649701N00239406WA0055100662
B1309053649706N00239407WA0055100661
B1309063649712N00239408WA0054900660
B1309073649718N00239408WA0054800660
B1309083649724N00239409WA0054800659
B1309093649730N00239410WA0054900659
B1309103649736N00239409WA0055000659
B1309113649742N00239408WA0055000659
B1309123649747N00239406WA0055200659
B1309133649753N00239404WA0055200659
B1309143649758N00239400WA0055200659
B1309153649763N00239397WA0055200659
B1309163649768N00239393WA0055200660
B1309173649772N00239389WA0055100659
B1309183649777N00239384WA0054800659
B1309193649781N00239380WA0054700659
B1309203649786N00239375WA0054500658
B1309213649791N00239370WA0054600657
B1309223649796N00239366WA0054700657
B1309233649802N00239362WA0054700657
B1309243649807N00239358WA0054800657
B1309253649812N00239353WA0054800658
B1309263649815N00239349WA0054900658
B1309273649818N00239344WA0054800658
B1309283649820N00239339WA0054700658
B1309293649821N00239332WA0054500657
B1309303649823N00239326WA0054400656
B1309313649825N00239319WA0054300654
B1309323649828N00239313WA0054200653
B1309333649831N00239308WA0054200653
B1309343649833N00239302WA0054200653
B1309353649836N00239296WA0054400653
B1309363649838N00239290WA0054400654
B1309373649840N00239285WA0054400655
B1309383649843N00239281WA0054400656
B1309393649846N00239276WA0054400656
B1309403649849N00239271WA0054300655
B1309413649853N00239265WA0053900654
B1309423649857N00239260WA0054000654
B1309433649861N00239256WA0054100654
B1309443649866N00239252WA0054400655
B1309453649870N00239249WA0054700657
B1309463649874N00239247WA0054800658
B1309473649876N00239243WA0054900660
B1309483649877N00239239WA0055000660
B1309493649876N00239234WA0054900659
B1309503649874N00239229WA0055100659
B1309513649871N00239227WA0055200660
B1309523649869N00239227WA0055300662
B1309533649867N00239228WA0055400663
B1309543649866N00239231WA0055300664
B1309553649864N00239235WA0055100663
B1309563649864N00239240WA0054800663
B1309573649865N00239247WA0055000663
B1309583649867N00239254WA0055200663
B1309593649871N00239260WA0055300663
B1310003649876N00239263WA0055400664
B1310013649880N00239266WA0055400665
B1310023649885N00239268WA0055400666
B1310033649891N00239270WA0055000665
B1310043649897N00239270WA0055000663
B1310053649904N00239268WA0054900661
B1310063649910N00239266WA0055200661
B1310073649917N00239262WA0055300661
B1310083649922N00239258WA0055600662
B1310093649926N00239254WA0055800663
B1310103649930N00239249WA0055900665
B1310113649932N00239244WA0056000667
B1310123649932N00239239WA0056200668
B1310133649931N00239235WA0056200669
B1310143649930N00239232WA0056400670
B1310153649927N00239231WA0056500671
B1310163649925N00239232WA0056700673
B1310173649923N00239234WA0057000675
B1310183649921N00239238WA0057100677
B1310193649921N00239242WA0057200679
B1310203649922N00239247WA0057300681
B1310213649924N00239253WA0057400682
B1310223649927N00239260WA0057600683
B1310233649933N00239265WA0057600684
B1310243649939N00239268WA0057600684
B1310253649946N00239268WA0057600684
B1310263649952N00239266WA0057600684
B1310273649957N00239263WA0057800686
B1310283649962N00239258WA0057900686
B1310293649965N00239252WA0057800687
B1310303649968N00239245WA0057700686
B1310313649969N00239237WA0057800686
B1310323649969N00239230WA0058100687
B1310333649967N00239226WA0058200690
B1310343649965N00239224WA0058400692
B1310353649963N00239223WA0058500694
B1310363649960N00239223WA0058700695
B1310373649957N00239225WA0058800696
B1310383649955N00239228WA0058900698
B1310393649954N00239233WA0059100699
B1310403649954N00239240WA0059100700
B1310413649957N00239247WA0059300701
B1310423649961N00239253WA0059500703
B1310433649967N00239257WA0059700706
B1310443649974N00239258WA0059800707
B1310453649980N00239258WA0059900708
B1310463649987N00239258WA0060000709
B1310473649992N00239257WA0060100710
B1310483649998N00239255WA0060200711
B1310493650004N00239250WA0060200712
B1310503650009N00239244WA0060100712
B1310513650013N00239237WA0060200711
B1310523650015N00239229WA0060300712
B1310533650017N00239222WA0060300713
B1310543650017N00239216WA0060400715
B1310553650015N00239209WA0060500715
B1310563650013N00239205WA0060600716
B1310573650010N00239201WA0060800717
B1310583650007N00239200WA0060900719
B1310593650004N00239201WA0061100721
B1311003650002N00239203WA0061400723
B1311013650000N00239207WA0061500724
B1311023650001N00239213WA0061600726
B1311033650003N00239220WA0061800727
B1311043650007N00239226WA0061900728
B1311053650012N00239230WA0062000730
B1311063650019N00239233WA0062200731
B1311073650026N00239232WA0062200731
B1311083650032N00239229WA0062100732
B1311093650037N00239222WA0062200732
B1311103650040N00239214WA0062200732
B1311113650041N00239207WA0062200733
B1311123650040N00239200WA0062400733
B1311133650038N00239195WA0062500734
B1311143650036N00239191WA0062700736
B1311153650033N00239190WA0062900739
B1311163650031N00239190WA0063100741
B1311173650029N00239191WA0063200742
B1311183650027N00239194WA0063300744
B1311193650026N00239200WA0063300744
B1311203650027N00239206WA0063400745
B1311213650030N00239213WA0063600746
B1311223650034N00239219WA0063700747
B1311233650039N00239223WA0063900749
B1311243650045N00239226WA0064100750
B1311253650052N00239228WA0064100752
B1311263650059N00239228WA0064200753
B1311273650066N00239225WA0064300753
B1311283650072N00239221WA0064400754
B1311293650077N00239217WA0064500755
B1311303650081N00239211WA0064700756
B1311313650084N00239204WA0064800757
B1311323650085N00239197WA0064900758
B1311333650085N00239191WA0064900758
B1311343650084N00239185WA0065000759
B1311353650083N00239181WA0065100761
B1311363650081N00239178WA0065200762
B1311373650078N00239176WA0065200762
B1311383650076N00239175WA0065000763
B1311393650073N00239177WA0064900763
B1311403650071N00239180WA0065200763
B1311413650070N00239184WA0065200763
B1311423650069N00239189WA0065300763
B1311433650068N00239195WA0065500764
B1311443650069N00239200WA0065600767
B1311453650071N00239204WA0065800769
B1311463650073N00239208WA0065900770
B1311473650077N00239212WA0065800769
B1311483650083N00239216WA0065100768
B1311493650091N00239217WA0065200767
B1311503650099N00239216WA0065600767
B1311513650105N00239212WA0065700768
B1311523650110N00239207WA0065800769
B1311533650113N00239200WA0065700769
B1311543650114N00239193WA0065600769
B1311553650115N00239184WA0065600768
B1311563650113N00239176WA0065600767
B1311573650112N00239172WA0065900768
B1311583650110N00239169WA0066100769
B1311593650108N00239169WA0066100769
B1312003650106N00239170WA0066100769
B1312013650104N00239173WA0066200769
B1312023650103N00239177WA0066300770
B1312033650103N00239181WA0066400771
B1312043650104N00239185WA0066500773
B1312053650106N00239188WA0066600774
B1312063650108N00239192WA0066800775
B1312073650113N00239197WA0066600774
B1312083650119N00239201WA0066400772
B1312093650126N00239203WA0066400771
B1312103650133N00239204WA0066500771
B1312113650140N00239203WA0066600771
B1312123650145N00239201WA0066700772
B1312133650151N00239199WA0066500773
B1312143650156N00239195WA0066300772
B1312153650162N00239191WA0066400771
B1312163650167N00239186WA0066600771
B1312173650172N00239182WA0066600772
B1312183650176N00239177WA0066600772
B1312193650180N00239171WA0066700773
B1312203650183N00239164WA0066500772
B1312213650185N00239158WA0066400772
B1312223650185N00239151WA0066400772
B1312233650184N00239146WA0066400772
B1312243650182N00239141WA0066400771
B1312253650181N00239137WA0066400771
B1312263650179N00239133WA0066400771
B1312273650176N00239132WA0066400772
B1312283650174N00239132WA0066400772
B1312293650172N00239134WA0066100771
B1312303650171N00239138WA0065800770
B1312313650171N00239143WA0066000769
B1312323650172N00239149WA0065800769
B1312333650175N00239155WA0065900769
B1312343650178N00239158WA0066200770
B1312353650181N00239162WA0066400772
B1312363650186N00239164WA0066400773
B1312373650192N00239167WA0066400773
B1312383650198N00239169WA0066000772
B1312393650206N00239170WA0065800771
B1312403650213N00239168WA0065900771
B1312413650219N00239166WA0065800771
B1312423650225N00239162WA0065800771
B1312433650231N00239157WA0065700770
B1312443650237N00239152WA0065700770
B1312453650242N00239147WA0065600769
B1312463650248N00239143WA0065600769
B1312473650254N00239139WA0065600769
B1312483650260N00239134WA0065300768
B1312493650266N00239129WA0065200767
B1312503650271N00239122WA0065100766
B1312513650274N00239115WA0064900764
B1312523650276N00239108WA0065000763
B1312533650277N00239103WA0065200763
B1312543650279N00239098WA0065200765
B1312553650280N00239093WA0065000765
B1312563650281N00239087WA0064800763
B1312573650282N00239081WA0064600761
B1312583650283N00239075WA0064500760
B1312593650285N00239069WA0064700761
B1313003650286N00239064WA0064900764
B1313013650286N00239060WA0065100764
B1313023650285N00239057WA0065300765
B1313033650283N00239054WA0065200765
B1313043650281N00239052WA0065200765
B1313053650278N00239052WA0065100764
B1313063650275N00239054WA0065100764
B1313073650272N00239057WA0064900763
B1313083650271N00239061WA0064900763
B1313093650270N00239066WA0064900762
B1313103650270N00239071WA0064600761
B1313113650271N00239077WA0064300759
B1313123650274N00239084WA0064100758
B1313133650278N00239089WA0063900756
B1313143650283N00239094WA0063900754
B1313153650290N00239096WA0063800751
B1313163650296N00239097WA0063400749
B1313173650302N00239096WA0063300747
B1313183650308N00239093WA0063200746
B1313193650313N00239089WA0063100744
B1313203650316N00239084WA0062900743
B1313213650319N00239079WA0062800742
B1313223650321N00239074WA0062700740
B1313233650321N00239068WA0062700739
B1313243650321N00239063WA0062700739
B1313253650321N00239058WA0062700739
B1313263650321N00239053WA0062600739
B1313273650321N00239047WA0062500738
B1313283650321N00239042WA0062300737
B1313293650320N00239035WA0062300735
B1313303650320N00239029WA0062100735
B1313313650320N00239023WA0062200735
B1313323650319N00239018WA0062200735
B1313333650319N00239014WA0062100735
B1313343650318N00239009WA0062000734
B1313353650317N00239003WA0061800732
B1313363650317N00238997WA0061600730
B1313373650318N00238990WA0061600729
B1313383650318N00238985WA0061800730
B1313393650318N00238980WA0062000731
B1313403650318N00238975WA0062400732
B1313413650317N00238971WA0062600735
B1313423650315N00238969WA0062600736
B1313433650312N00238969WA0062600735
B1313443650310N00238971WA0062600735
B1313453650307N00238975WA0062600735
B1313463650305N00238980WA0062600736
B1313473650303N00238986WA0062600736
B1313483650302N00238992WA0062800736
B1313493650304N00238999WA0062900737
B1313503650306N00239005WA0063000738
B1313513650311N00239010WA0063000738
B1313523650317N00239012WA0062900738
B1313533650323N00239012WA0062600738
B1313543650329N00239010WA0062300736
B1313553650334N00239005WA0062300736
B1313563650338N00238999WA0062500735
B1313573650342N00238993WA0062600736
B1313583650344N00238988WA0062700736
B1313593650345N00238982WA0062800736
B1314003650344N00238977WA0063000737
B1314013650344N00238974WA0063100738
B1314023650342N00238972WA0063200739
B1314033650341N00238971WA0063300740
B1314043650338N00238971WA0063300741
B1314053650335N00238972WA0063400741
B1314063650332N00238975WA0063300742
B1314073650330N00238981WA0063300742
B1314083650330N00238987WA0063000741
B1314093650331N00238994WA0063000740
B1314103650333N00239001WA0063000741
B1314113650336N00239007WA0062800740
B1314123650339N00239013WA0062900740
B1314133650343N00239017WA0063100740
B1314143650348N00239020WA0063200740
B1314153650353N00239021WA0062800739
B1314163650359N00239021WA0062700738
B1314173650364N00239019WA0062600736
B1314183650369N00239015WA0062800735
B1314193650373N00239010WA0063000735
B1314203650376N00239005WA0063000735
B1314213650378N00239000WA0062900736
B1314223650379N00238994WA0062700735
B1314233650379N00238988WA0062400735
B1314243650379N00238982WA0062300733
B1314253650378N00238978WA0062500734
B1314263650377N00238975WA0062600734
B1314273650376N00238972WA0062600735
B1314283650374N00238969WA0062700735
B1314293650373N00238966WA0062700736
B1314303650371N00238963WA0062600735
B1314313650369N00238959WA0062600735
B1314323650368N00238956WA0062400735
B1314333650366N00238952WA0062100733
B1314343650363N00238949WA0061900733
B1314353650361N00238945WA0061900732
B1314363650359N00238940WA0062000731
B1314373650357N00238934WA0062100733
B1314383650355N00238930WA0062500736
B1314393650353N00238928WA0062700738
B1314403650351N00238928WA0063000740
B1314413650349N00238929WA0063100742
B1314423650346N00238932WA0063200743
B1314433650344N00238936WA0063300744
B1314443650343N00238942WA0063500745
B1314453650344N00238949WA0063600746
B1314463650347N00238955WA0063900748
B1314473650351N00238960WA0064000750
B1314483650356N00238962WA0064100751
B1314493650363N00238961WA0064000751
B1314503650368N00238956WA0063900750
B1314513650371N00238950WA0064100750
B1314523650372N00238944WA0064200751
B1314533650370N00238939WA0064600754
B1314543650368N00238938WA0064800757
B1314553650365N00238939WA0064900759
B1314563650363N00238942WA0065000760
B1314573650361N00238946WA0065100762
B1314583650359N00238951WA0065200763
B1314593650358N00238957WA0065200763
B1315003650359N00238964WA0065200763
B1315013650361N00238970WA0064900763
B1315023650366N00238975WA0064600763
B1315033650374N00238977WA0064700762
B1315043650381N00238976WA0064500758
B1315053650387N00238972WA0064400756
B1315063650392N00238967WA0064600756
B1315073650395N00238963WA0064700756
B1315083650398N00238958WA0064900756
B1315093650400N00238952WA0064900757
B1315103650401N00238947WA0065000759
B1315113650401N00238943WA0065100760
B1315123650400N00238940WA0065300762
B1315133650399N00238937WA0065400763
B1315143650397N00238935WA0065500764
B1315153650395N00238933WA0065500764
B1315163650392N00238932WA0065500765
B1315173650388N00238933WA0065300765
B1315183650384N00238935WA0065200765
B1315193650381N00238937WA0065500767
B1315203650378N00238940WA0065800768
B1315213650375N00238944WA0066000769
B1315223650374N00238948WA0066100770
B1315233650373N00238953WA0066100771
B1315243650374N00238958WA0065800769
B1315253650377N00238965WA0065000767
B1315263650381N00238970WA0064700765
B1315273650388N00238973WA0064500762
B1315283650396N00238972WA0064100758
B1315293650403N00238969WA0063900755
B1315303650408N00238965WA0064000755
B1315313650411N00238960WA0064200756
B1315323650413N00238955WA0064200756
B1315333650415N00238950WA0064200756
B1315343650416N00238944WA0064100755
B1315353650417N00238938WA0063700755
B1315363650417N00238932WA0064100754
B1315373650417N00238927WA0064600757
B1315383650418N00238923WA0064800761
B1315393650419N00238919WA0064900762
B1315403650419N00238914WA0064800762
B1315413650417N00238908WA0064700759
B1315423650414N00238903WA0064500758
B1315433650411N00238898WA0064800759
B1315443650409N00238895WA0064900761
B1315453650408N00238893WA0064900762
B1315463650406N00238890WA0064900762
B1315473650404N00238885WA0064300761
B1315483650401N00238880WA0064100760
B1315493650400N00238875WA0064100759
B1315503650399N00238871WA0063900757
B1315513650398N00238867WA0063700755
B1315523650396N00238863WA0063100751
B1315533650394N00238857WA0062400747
B1315543650392N00238851WA0062300742
B1315553650391N00238844WA0062100740
B1315563650391N00238839WA0062000738
B1315573650391N00238833WA0061600735
B1315583650390N00238827WA0061000732
B1315593650388N00238820WA0060700728
B1316003650388N00238812WA0060900726
B1316013650388N00238806WA0061400729
B1316023650390N00238802WA0061700732
B1316033650392N00238798WA0061600732
B1316043650394N00238792WA0061100731
B1316053650395N00238784WA0060400729
B1316063650397N00238777WA0060300725
B1316073650398N00238772WA0060700724
B1316083650398N00238768WA0061000725
B1316093650398N00238766WA0061000725
B1316103650397N00238764WA0061000725
B1316113650396N00238762WA0061000724
B1316123650393N00238760WA0060700722
B1316133650390N00238757WA0060400721
B1316143650387N00238754WA0060300718
B1316153650385N00238749WA0060200717
B1316163650384N00238744WA0060200716
B1316173650382N00238739WA0060100716
B1316183650380N00238734WA0060100715
B1316193650377N00238730WA0060200715
B1316203650375N00238727WA0060300715
B1316213650373N00238723WA0060300716
B1316223650372N00238719WA0060100715
B1316233650372N00238714WA0059900714
B1316243650371N00238708WA0059500712
B1316253650370N00238702WA0059500711
B1316263650369N00238696WA0059500710
B1316273650368N00238691WA0059400709
B1316283650368N00238685WA0059500709
B1316293650368N00238680WA0059400709
B1316303650367N00238674WA0059500708
B1316313650367N00238667WA0059300707
B1316323650367N00238661WA0059200706
B1316333650367N00238655WA0059100705
B1316343650367N00238649WA0059000704
B1316353650368N00238643WA0058800703
B1316363650368N00238636WA0058700701
B1316373650368N00238629WA0058300700
B1316383650369N00238621WA0058100698
B1316393650369N00238612WA0057900695
B1316403650368N00238604WA0057800693
B1316413650368N00238596WA0057600691
B1316423650367N00238588WA0057500690
B1316433650368N00238580WA0057500690
B1316443650368N00238573WA0057200688
B1316453650369N00238565WA0056900686
B1316463650368N00238557WA0057000685
B1316473650367N00238549WA0056800683
B1316483650367N00238541WA0056600681
B1316493650366N00238533WA0056600680
B1316503650366N00238526WA0056500679
B1316513650366N00238518WA0056200677
B1316523650366N00238510WA0055900675
B1316533650366N00238502WA0055400673
B1316543650366N00238493WA0055100670
B1316553650365N00238485WA0055000667
B1316563650365N00238477WA0054900665
B1316573650364N00238469WA0054600663
B1316583650364N00238461WA0054400661
B1316593650364N00238453WA0054300658
B1317003650364N00238445WA0054100656
B1317013650364N00238437WA0053800654
B1317023650364N00238429WA0053700652
B1317033650364N00238420WA0053600651
B1317043650364N00238412WA0053600650
B1317053650364N00238405WA0053600650
B1317063650364N00238398WA0053500649
B1317073650364N00238391WA0053300648
B1317083650364N00238383WA0053100646
B1317093650363N00238375WA0053000644
B1317103650362N00238368WA0052500643
B1317113650362N00238361WA0052400641
B1317123650362N00238354WA0052300640
B1317133650362N00238347WA0052100638
B1317143650361N00238340WA0052000636
B1317153650360N00238333WA0051600633
B1317163650359N00238325WA0051400630
B1317173650358N00238317WA0051100627
B1317183650358N00238309WA0051100624
B1317193650359N00238301WA0051000623
B1317203650360N00238294WA0050900621
B1317213650361N00238285WA0050600619
B1317223650362N00238277WA0050200617
B1317233650364N00238268WA0050000614
B1317243650366N00238259WA0049800612
B1317253650368N00238250WA0049800611
B1317263650370N00238242WA0049700610
B1317273650371N00238235WA0049600609
B1317283650373N00238227WA0049100607
B1317293650374N00238220WA0048800604
B1317303650376N00238211WA0048400601
B1317313650377N00238203WA0048600599
B1317323650378N00238194WA0048600598
B1317333650379N00238187WA0048500597
B1317343650381N00238180WA0048400597
B1317353650382N00238173WA0048300596
B1317363650383N00238166WA0048100594
B1317373650384N00238159WA0047800592
B1317383650385N00238152WA0047500590
B1317393650386N00238144WA0047500588
B1317403650388N00238136WA0047500587
B1317413650391N00238129WA0047400586
B1317423650394N00238122WA0047300585
B1317433650396N00238115WA0047300584
B1317443650400N00238107WA0047200583
B1317453650402N00238100WA0047100582
B1317463650404N00238092WA0047000581
B1317473650406N00238084WA0047000581
B1317483650407N00238076WA0046900580
B1317493650409N00238068WA0046800580
B1317503650411N00238059WA0046500579
B1317513650413N00238051WA0046500578
B1317523650414N00238044WA0046500577
B1317533650416N00238037WA0046600577
B1317543650416N00238031WA0046600577
B1317553650417N00238025WA0046500576
B1317563650419N00238018WA0046400575
B1317573650421N00238011WA0046300573
B1317583650423N00238005WA0046200573
B1317593650424N00237999WA0046300573
B1318003650425N00237993WA0046300573
B1318013650426N00237986WA0046200573
B1318023650427N00237979WA0046200573
B1318033650428N00237972WA0046200572
B1318043650430N00237965WA0046200572
B1318053650431N00237958WA0046200573
B1318063650432N00237951WA0046400573
B1318073650433N00237945WA0046500575
B1318083650433N00237939WA0046700576
B1318093650433N00237933WA0046800578
B1318103650433N00237928WA0046900579
B1318113650433N00237923WA0047000580
B1318123650432N00237918WA0047300581
B1318133650431N00237912WA0047500583
B1318143650430N00237908WA0047700585
B1318153650429N00237904WA0048000588
B1318163650428N00237900WA0048100589
B1318173650427N00237896WA0048100590
B1318183650426N00237892WA0048200590
B1318193650423N00237887WA0047800591
B1318203650421N00237883WA0048000592
B1318213650420N00237879WA0048300594
B1318223650419N00237874WA0048600596
B1318233650418N00237870WA0048800597
B1318243650417N00237866WA0048900599
B1318253650414N00237862WA0049000600
B1318263650411N00237861WA0049200601
B1318273650408N00237861WA0049500602
B1318283650407N00237862WA0049700605
B1318293650406N00237864WA0050000608
B1318303650405N00237866WA0050100610
B1318313650405N00237870WA0050100611
B1318323650406N00237875WA0049700611
B1318333650407N00237881WA0049700610
B1318343650410N00237885WA0049900610
B1318353650413N00237889WA0050100611
B1318363650417N00237893WA0050100611
B1318373650421N00237897WA0050200612
B1318383650425N00237901WA0050200611
B1318393650428N00237905WA0050300612
B1318403650430N00237910WA0050400612
B1318413650431N00237915WA0050500613
B1318423650431N00237921WA0050600613
B1318433650430N00237926WA0050900615
B1318443650427N00237929WA0050800616
B1318453650424N00237931WA0050700617
B1318463650421N00237931WA0050600616
B1318473650417N00237929WA0050500616
B1318483650414N00237925WA0050200615
B1318493650412N00237920WA0050200615
B1318503650411N00237915WA0050100614
B1318513650410N00237910WA0050000614
B1318523650409N00237906WA0049900613
B1318533650408N00237901WA0049800612
B1318543650408N00237896WA0049600610
B1318553650409N00237889WA0049600608
B1318563650410N00237881WA0049700608
B1318573650410N00237875WA0049900610
B1318583650410N00237870WA0050200611
B1318593650410N00237864WA0050200613
B1319003650410N00237858WA0050200613
B1319013650409N00237853WA0050300614
B1319023650407N00237847WA0050500615
B1319033650406N00237843WA0050800617
B1319043650404N00237840WA0051000620
B1319053650403N00237837WA0051100622
B1319063650400N00237835WA0051300623
B1319073650397N00237834WA0051400623
B1319083650394N00237832WA0051400624
B1319093650391N00237833WA0051500625
B1319103650388N00237834WA0051600626
B1319113650386N00237837WA0051600627
B1319123650385N00237841WA0051700627
B1319133650385N00237845WA0051600627
B1319143650386N00237850WA0051400626
B1319153650388N00237856WA0051400626
B1319163650392N00237860WA0051400626
B1319173650395N00237864WA0051400625
B1319183650399N00237867WA0051400625
B1319193650404N00237871WA0051300624
B1319203650408N00237875WA0051000623
B1319213650412N00237879WA0050900622
B1319223650417N00237882WA0050900620
B1319233650422N00237885WA0050800619
B1319243650427N00237888WA0050800618
B1319253650430N00237893WA0050600617
B1319263650433N00237898WA0050400615
B1319273650435N00237903WA0050300614
B1319283650436N00237908WA0050300613
B1319293650436N00237913WA0050300613
B1319303650434N00237917WA0050300612
B1319313650431N00237919WA0050100612
B1319323650427N00237919WA0050200611
B1319333650424N00237917WA0050200611
B1319343650422N00237913WA0050200611
B1319353650420N00237908WA0050000610
B1319363650419N00237902WA0049900609
B1319373650418N00237896WA0049900609
B1319383650417N00237891WA0049700608
B1319393650417N00237885WA0049700608
B1319403650417N00237879WA0049600607
B1319413650416N00237872WA0049600606
B1319423650416N00237866WA0049600605
B1319433650414N00237860WA0049600604
B1319443650413N00237854WA0049600604
B1319453650411N00237849WA0049600604
B1319463650410N00237843WA0049600603
B1319473650408N00237837WA0049600603
B1319483650406N00237831WA0049700605
B1319493650404N00237826WA0049900607
B1319503650403N00237822WA0050000607
B1319513650401N00237818WA0049900608
B1319523650398N00237814WA0049800608
B1319533650395N00237808WA0049800608
B1319543650392N00237803WA0050200610
B1319553650390N00237799WA0050700614
B1319563650388N00237797WA0051000618
B1319573650385N00237797WA0051100621
B1319583650383N00237799WA0051100622
B1319593650382N00237801WA0050900622
B1320003650382N00237805WA0050800621
B1320013650383N00237809WA0050400619
B1320023650386N00237814WA0050200616
B1320033650389N00237817WA0050200615
B1320043650392N00237820WA0050200614
B1320053650395N00237824WA0050100613
B1320063650397N00237828WA0049800611
B1320073650400N00237832WA0049700609
B1320083650404N00237837WA0049700608
B1320093650407N00237841WA0049900608
B1320103650410N00237844WA0049900609
B1320113650412N00237848WA0049900609
B1320123650414N00237852WA0049800608
B1320133650415N00237857WA0049600608
B1320143650417N00237862WA0049700607
B1320153650419N00237866WA0049700607
B1320163650422N00237870WA0049700607
B1320173650425N00237875WA0049700606
B1320183650428N00237879WA0049800606
B1320193650430N00237884WA0049800605
B1320203650430N00237889WA0049700605
B1320213650429N00237894WA0049700605
B1320223650427N00237898WA0050200607
B1320233650425N00237900WA0050300609
B1320243650423N00237902WA0050600611
B1320253650421N00237903WA0050600612
B1320263650418N00237904WA0050500613
B1320273650414N00237904WA0050500613
B1320283650411N00237904WA0050400613
B1320293650408N00237902WA0050400613
B1320303650406N00237899WA0050500614
B1320313650403N00237895WA0050300614
B1320323650401N00237890WA0049900613
B1320333650400N00237884WA0049700612
B1320343650399N00237876WA0049600609
B1320353650399N00237870WA0049600608
B1320363650398N00237864WA0049600608
B1320373650397N00237859WA0049600607
B1320383650396N00237852WA0049500607
B1320393650396N00237845WA0049400606
B1320403650397N00237837WA0049500605
B1320413650398N00237829WA0049500605
B1320423650398N00237822WA0049700607
B1320433650398N00237816WA0049800608
B1320443650398N00237811WA0049900609
B1320453650396N00237805WA0049900609
B1320463650394N00237800WA0049800609
B1320473650392N00237794WA0049700609
B1320483650389N00237788WA0049800609
B1320493650387N00237783WA0049900610
B1320503650384N00237779WA0050000610
B1320513650381N00237776WA0050000610
B1320523650378N00237772WA0050000610
B1320533650374N00237769WA0049900610
B1320543650370N00237767WA0050000611
B1320553650366N00237765WA0050200612
B1320563650363N00237762WA0050600614
B1320573650360N00237760WA0050800616
B1320583650356N00237758WA0051000619
B1320593650353N00237757WA0051200621
B1321003650350N00237758WA0051300622
B1321013650347N00237759WA0051400623
B1321023650345N00237762WA0051600625
B1321033650344N00237765WA0051700625
B1321043650344N00237769WA0051600626
B1321053650347N00237773WA0051500626
B1321063650351N00237777WA0051100624
B1321073650355N00237780WA0051100624
B1321083650359N00237782WA0051100623
B1321093650363N00237783WA0051000622
B1321103650367N00237785WA0050900621
B1321113650372N00237788WA0050500619
B1321123650377N00237791WA0050400618
B1321133650382N00237794WA0050300617
B1321143650387N00237797WA0050500616
B1321153650392N00237799WA0050700617
B1321163650395N00237802WA0050900617
B1321173650397N00237805WA0050900617
B1321183650399N00237810WA0051000617
B1321193650399N00237814WA0051100618
B1321203650398N00237817WA0051100618
B1321213650396N00237820WA0051000619
B1321223650393N00237822WA0051100619
B1321233650390N00237823WA0051100620
B1321243650386N00237822WA0051200620
B1321253650382N00237820WA0051100621
B1321263650379N00237817WA0051000621
B1321273650376N00237813WA0051200622
B1321283650374N00237809WA0051400624
B1321293650371N00237805WA0051500625
B1321303650369N00237801WA0051600626
B1321313650366N00237796WA0051600627
B1321323650363N00237792WA0051700628
B1321333650360N00237789WA0051600629
B1321343650356N00237787WA0051600629
B1321353650352N00237785WA0051600629
B1321363650349N00237783WA0051400629
B1321373650344N00237782WA0051200628
B1321383650340N00237781WA0051200627
B1321393650335N00237780WA0050900624
B1321403650330N00237778WA0051000623
B1321413650326N00237776WA0051100624
B1321423650323N00237774WA0051200624
B1321433650319N00237772WA0051300624
B1321443650315N00237771WA0051300625
B1321453650312N00237771WA0051200625
B1321463650308N00237772WA0051000625
B1321473650304N00237772WA0051100624
B1321483650300N00237772WA0051200624
B1321493650296N00237772WA0051200624
B1321503650293N00237771WA0051200624
B1321513650290N00237770WA0050900624
B1321523650286N00237768WA0050800623
B1321533650283N00237766WA0050700623
B1321543650279N00237763WA0050500622
B1321553650276N00237761WA0050300620
B1321563650273N00237759WA0050200618
B1321573650269N00237758WA0050200616
B1321583650266N00237757WA0050100614
B1321593650262N00237758WA0050000613
B1322003650260N00237760WA0050000612
B1322013650258N00237763WA0049500610
B1322023650259N00237768WA0049300609
B1322033650261N00237773WA0049200607
B1322043650265N00237777WA0049200606
B1322053650269N00237780WA0049100605
B1322063650272N00237781WA0049100604
B1322073650276N00237783WA0048900602
B1322083650281N00237784WA0048500599
B1322093650287N00237786WA0048200595
B1322103650293N00237786WA0048100592
B1322113650299N00237785WA0048200591
B1322123650304N00237784WA0048500593
B1322133650309N00237782WA0048600594
B1322143650314N00237783WA0048600595
B1322153650318N00237783WA0048500595
B1322163650323N00237784WA0048200595
B1322173650330N00237784WA0048000593
B1322183650336N00237784WA0048100592
B1322193650341N00237784WA0048200592
B1322203650345N00237784WA0048400593
B1322213650349N00237783WA0048400593
B1322223650353N00237784WA0048300593
B1322233650357N00237785WA0048100591
B1322243650361N00237789WA0047700589
B1322253650365N00237793WA0047600587
B1322263650368N00237798WA0047600586
B1322273650371N00237803WA0047700586
B1322283650375N00237807WA0047900586
B1322293650378N00237811WA0048000587
B1322303650382N00237815WA0048200588
B1322313650384N00237818WA0048400589
B1322323650386N00237822WA0048700590
B1322333650387N00237827WA0048600591
B1322343650386N00237831WA0048600591
B1322353650383N00237834WA0048300591
B1322363650379N00237835WA0048300591
B1322373650375N00237832WA0048300591
B1322383650371N00237828WA0048400591
B1322393650367N00237824WA0048800592
B1322403650365N00237821WA0049100594
B1322413650362N00237819WA0049200596
B1322423650358N00237819WA0049200596
B1322433650355N00237820WA0049200595
B1322443650351N00237821WA0049000595
B1322453650347N00237822WA0048900594
B1322463650343N00237824WA0048800593
B1322473650338N00237824WA0048700592
B1322483650334N00237822WA0048500591
B1322493650329N00237818WA0048100590
B1322503650326N00237814WA0048000588
B1322513650323N00237810WA0048100587
B1322523650319N00237806WA0048100587
B1322533650316N00237802WA0047800586
B1322543650313N00237798WA0047500585
B1322553650310N00237792WA0047600584
B1322563650308N00237786WA0047700584
B1322573650307N00237780WA0047600583
B1322583650306N00237775WA0047600583
B1322593650304N00237771WA0047500582
B1323003650300N00237767WA0047400581
B1323013650296N00237764WA0047200580
B1323023650292N00237761WA0047200580
B1323033650289N00237758WA0047200580
B1323043650285N00237756WA0047200579
B1323053650281N00237755WA0047100578
B1323063650276N00237754WA0047000577
B1323073650272N00237755WA0047000577
B1323083650268N00237756WA0046900576
B1323093650265N00237757WA0046800576
B1323103650262N00237760WA0046700575
B1323113650258N00237763WA0046400573
B1323123650254N00237767WA0046300572
B1323133650250N00237770WA0046200571
B1323143650246N00237773WA0046200571
B1323153650242N00237774WA0046200571
B1323163650238N00237776WA0046100571
B1323173650234N00237778WA0046100570
B1323183650230N00237780WA0046200570
B1323193650227N00237783WA0046300571
B1323203650224N00237785WA0046600573
B1323213650222N00237787WA0046800574
B1323223650221N00237790WA0046900575
B1323233650220N00237793WA0047100577
B1323243650221N00237795WA0047100577
B1323253650222N00237799WA0046900576
B1323263650223N00237804WA0046800574
B1323273650223N00237810WA0046400573
B1323283650222N00237815WA0046300572
B1323293650220N00237819WA0046400572
B1323303650219N00237821WA0046700572
B1323313650217N00237822WA0046800572
B1323323650214N00237823WA0046800572
B1323333650211N00237825WA0046800573
B1323343650209N00237826WA0046900573
B1323353650206N00237828WA0047100574
B1323363650204N00237830WA0047400575
B1323373650202N00237833WA0047500577
B1323383650201N00237837WA0047500578
B1323393650202N00237841WA0047600579
B1323403650203N00237845WA0047800580
B1323413650204N00237849WA0047900581
B1323423650205N00237853WA0048100583
B1323433650207N00237856WA0048200584
B1323443650211N00237859WA0048200585
B1323453650217N00237861WA0048200586
B1323463650222N00237862WA0048400587
B1323473650228N00237861WA0048500588
B1323483650232N00237859WA0048700590
B1323493650236N00237856WA0048800591
B1323503650239N00237851WA0048900592
B1323513650242N00237844WA0048800592
B1323523650243N00237837WA0048700592
B1323533650242N00237830WA0048700592
B1323543650240N00237824WA0048800591
B1323553650237N00237819WA0048900592
B1323563650234N00237815WA0049000594
B1323573650231N00237813WA0049200596
B1323583650228N00237812WA0049300597
B1323593650225N00237812WA0049400598
B1324003650223N00237813WA0049600599
B1324013650220N00237816WA0049600600
B1324023650218N00237819WA0049700601
B1324033650217N00237822WA0049900603
B1324043650216N00237826WA0050100604
B1324053650216N00237829WA0050200605
B1324063650217N00237833WA0050300607
B1324073650219N00237837WA0050400607
B1324083650224N00237841WA0050500608
B1324093650229N00237844WA0050700609
B1324103650235N00237844WA0051000610
B1324113650241N00237841WA0051300613
B1324123650244N00237837WA0051500614
B1324133650247N00237831WA0051600616
B1324143650249N00237825WA0051600617
B1324153650249N00237819WA0051600618
B1324163650248N00237814WA0051600619
B1324173650245N00237809WA0051600618
B1324183650242N00237805WA0051800619
B1324193650238N00237802WA0051900620
B1324203650234N00237801WA0052200622
B1324213650230N00237801WA0052400624
B1324223650227N00237803WA0052500626
B1324233650225N00237806WA0052700628
B1324243650223N00237811WA0052800629
B1324253650224N00237818WA0052900630
B1324263650225N00237824WA0053000631
B1324273650228N00237828WA0053300634
B1324283650231N00237832WA0053500637
B1324293650235N00237834WA0053700639
B1324303650240N00237835WA0053800641
B1324313650246N00237834WA0054100643
B1324323650251N00237831WA0054300645
B1324333650255N00237825WA0054500647
B1324343650257N00237819WA0054600649
B1324353650258N00237813WA0054700650
B1324363650256N00237806WA0054800651
B1324373650253N00237801WA0055200652
B1324383650249N00237798WA0055300654
B1324393650245N00237797WA0055700657
B1324403650243N00237798WA0055900661
B1324413650242N00237801WA0056000663
B1324423650241N00237804WA0056100664
B1324433650240N00237809WA0056100664
B1324443650240N00237814WA0056200665
B1324453650241N00237820WA0056300666
B1324463650243N00237826WA0056400667
B1324473650247N00237830WA0056600668
B1324483650252N00237833WA0056600669
B1324493650257N00237835WA0056900671
B1324503650261N00237836WA0057000673
B1324513650266N00237835WA0057000674
B1324523650271N00237832WA0056700674
B1324533650276N00237827WA0056400672
B1324543650280N00237821WA0056400670
B1324553650283N00237813WA0056500669
B1324563650284N00237805WA0056600668
B1324573650283N00237798WA0056700669
B1324583650282N00237792WA0056900672
B1324593650280N00237788WA0057000675
B1325003650277N00237785WA0057100675
B1325013650273N00237783WA0057200676
B1325023650268N00237781WA0057200676
B1325033650264N00237780WA0057400677
B1325043650260N00237779WA0057800680
B1325053650257N00237778WA0058100683
B1325063650255N00237779WA0058300686
B1325073650253N00237783WA0058400687
B1325083650252N00237788WA0058400686
B1325093650253N00237794WA0058500687
B1325103650255N00237800WA0058600688
B1325113650258N00237804WA0058800689
B1325123650262N00237807WA0059000692
B1325133650267N00237808WA0059000694
B1325143650272N00237806WA0059100694
B1325153650278N00237803WA0059000694
B1325163650283N00237798WA0059000694
B1325173650287N00237792WA0059200694
B1325183650290N00237785WA0059300695
B1325193650290N00237778WA0059400695
B1325203650290N00237772WA0059500696
B1325213650288N00237766WA0059600698
B1325223650286N00237762WA0059800700
B1325233650283N00237758WA0060000702
B1325243650280N00237756WA0060200704
B1325253650277N00237755WA0060300706
B1325263650274N00237757WA0060400708
B1325273650270N00237760WA0060400708
B1325283650268N00237764WA0060600709
B1325293650267N00237769WA0060800710
B1325303650267N00237774WA0061000712
B1325313650267N00237779WA0061100714
B1325323650269N00237784WA0061300716
B1325333650272N00237788WA0061500717
B1325343650276N00237791WA0061500718
B1325353650281N00237793WA0061500719
B1325363650287N00237793WA0061600720
B1325373650292N00237791WA0061700721
B1325383650298N00237788WA0061800722
B1325393650303N00237784WA0061800722
B1325403650306N00237778WA0061800722
B1325413650309N00237771WA0061700722
B1325423650309N00237764WA0061700722
B1325433650309N00237757WA0061800722
B1325443650307N00237751WA0061900723
B1325453650304N00237745WA0062000724
B1325463650301N00237740WA0062200725
B1325473650297N00237735WA0062400728
B1325483650294N00237732WA0062600730
B1325493650291N00237731WA0062700732
B1325503650288N00237732WA0063000734
B1325513650285N00237734WA0063100735
B1325523650283N00237737WA0063200736
B1325533650282N00237741WA0063300737
B1325543650281N00237746WA0063300738
B1325553650282N00237751WA0063400739
B1325563650283N00237756WA0063400740
B1325573650286N00237760WA0063400740
B1325583650290N00237764WA0063100740
B1325593650295N00237767WA0063000739
B1326003650301N00237769WA0063400739
B1326013650307N00237768WA0063500740
B1326023650312N00237766WA0063900741
B1326033650317N00237762WA0064100743
B1326043650320N00237757WA0064200745
B1326053650323N00237752WA0064100746
B1326063650324N00237746WA0064100746
B1326073650324N00237738WA0063600746
B1326083650322N00237731WA0063300745
B1326093650318N00237725WA0063600744
B1326103650314N00237720WA0063900745
B1326113650310N00237718WA0064100747
B1326123650307N00237718WA0064400750
B1326133650305N00237719WA0064500752
B1326143650303N00237720WA0064300752
B1326153650301N00237722WA0064100751
B1326163650300N00237726WA0063900749
B1326173650298N00237730WA0063900748
B1326183650297N00237735WA0063800746
B1326193650297N00237740WA0063700746
B1326203650296N00237745WA0063700745
B1326213650297N00237750WA0063500745
B1326223650298N00237755WA0063300744
B1326233650302N00237759WA0063300742
B1326243650307N00237763WA0063000740
B1326253650312N00237767WA0062800738
B1326263650317N00237769WA0063200738
B1326273650322N00237770WA0063400740
B1326283650327N00237771WA0063500741
B1326293650332N00237772WA0063600741
B1326303650337N00237771WA0063700742
B1326313650342N00237770WA0063900744
B1326323650347N00237769WA0064000744
B1326333650351N00237766WA0064100746
B1326343650355N00237762WA0064100747
B1326353650359N00237758WA0064100747
B1326363650364N00237753WA0064100748
B1326373650369N00237747WA0064400748
B1326383650373N00237740WA0064700750
B1326393650376N00237734WA0064900752
B1326403650377N00237727WA0065000754
B1326413650377N00237721WA0065200755
B1326423650376N00237715WA0065200756
B1326433650373N00237711WA0065300756
B1326443650370N00237709WA0065500757
B1326453650366N00237708WA0065700759
B1326463650363N00237708WA0066000762
B1326473650361N00237711WA0066300765
B1326483650360N00237714WA0066500768
B1326493650361N00237719WA0066600770
B1326503650363N00237724WA0066800772
B1326513650367N00237728WA0066900772
B1326523650372N00237732WA0067100774
B1326533650378N00237733WA0067200775
B1326543650384N00237732WA0067600777
B1326553650390N00237730WA0067900780
B1326563650395N00237726WA0068000782
B1326573650399N00237721WA0068200784
B1326583650403N00237714WA0068200786
B1326593650405N00237707WA0068300786
B1327003650406N00237700WA0068200786
B1327013650406N00237692WA0068300787
B1327023650405N00237685WA0068500788
B1327033650404N00237679WA0068700790
B1327043650401N00237674WA0068800791
B1327053650398N00237670WA0069100793
B1327063650395N00237667WA0069300795
B1327073650392N00237665WA0069500797
B1327083650389N00237665WA0069700800
B1327093650387N00237667WA0069900802
B1327103650385N00237669WA0070200804
B1327113650385N00237673WA0070500807
B1327123650386N00237677WA0070900810
B1327133650389N00237681WA0071200813
B1327143650392N00237684WA0071300816
B1327153650397N00237686WA0071400817
B1327163650404N00237687WA0071600818
B1327173650410N00237686WA0071900820
B1327183650416N00237683WA0072100823
B1327193650421N00237679WA0072500825
B1327203650425N00237673WA0072700828
B1327213650428N00237666WA0072800829
B1327223650429N00237658WA0072800829
B1327233650429N00237650WA0072700829
B1327243650428N00237643WA0072800830
B1327253650425N00237638WA0072900832
B1327263650422N00237633WA0073100834
B1327273650419N00237630WA0073300835
B1327283650416N00237629WA0073400837
B1327293650413N00237629WA0073500839
B1327303650410N00237630WA0073700840
B1327313650408N00237632WA0073800841
B1327323650407N00237635WA0074100843
B1327333650406N00237638WA0074300845
B1327343650405N00237642WA0074400847
B1327353650406N00237646WA0074600849
B1327363650408N00237650WA0074800852
B1327373650412N00237654WA0075200854
B1327383650416N00237656WA0075400858
B1327393650422N00237657WA0075600860
B1327403650427N00237657WA0075800863
B1327413650433N00237655WA0076100865
B1327423650438N00237652WA0076300867
B1327433650443N00237646WA0076300869
B1327443650447N00237639WA0076600871
B1327453650450N00237632WA0076900873
B1327463650452N00237624WA0077200875
B1327473650453N00237616WA0077300877
B1327483650451N00237609WA0077400879
B1327493650448N00237604WA0077500881
B1327503650443N00237600WA0077800882
B1327513650439N00237598WA0077900883
B1327523650436N00237598WA0078100886
B1327533650433N00237600WA0078400889
B1327543650432N00237602WA0078600891
B1327553650431N00237606WA0078900894
B1327563650432N00237609WA0079200897
B1327573650434N00237613WA0079400900
B1327583650437N00237616WA0079700902
B1327593650443N00237617WA0079800904
B1328003650449N00237616WA0080000905
B1328013650455N00237613WA0080200907
B1328023650460N00237607WA0080400910
B1328033650464N00237601WA0080600911
B1328043650468N00237594WA0080700913
B1328053650470N00237586WA0080800915
B1328063650472N00237577WA0081100917
B1328073650472N00237569WA0081400919
B1328083650471N00237562WA0081600923
B1328093650469N00237556WA0081800925
B1328103650466N00237552WA0081900927
B1328113650462N00237549WA0082000928
B1328123650458N00237548WA0082200930
B1328133650455N00237548WA0082400931
B1328143650453N00237549WA0082500933
B1328153650453N00237552WA0082700935
B1328163650454N00237554WA0082900937
B1328173650456N00237557WA0083000938
B1328183650459N00237560WA0083100939
B1328193650464N00237563WA0083200939
B1328203650469N00237564WA0083300941
B1328213650475N00237564WA0083500942
B1328223650482N00237562WA0083700944
B1328233650488N00237557WA0083900945
B1328243650492N00237549WA0083900947
B1328253650495N00237539WA0084000947
B1328263650496N00237530WA0084300949
B1328273650495N00237522WA0084500952
B1328283650493N00237515WA0084800956
B1328293650491N00237511WA0085000959
B1328303650488N00237507WA0085200961
B1328313650485N00237505WA0085300962
B1328323650482N00237504WA0085300963
B1328333650480N00237505WA0085500964
B1328343650479N00237507WA0085700965
B1328353650480N00237509WA0085700967
B1328363650482N00237511WA0085800968
B1328373650484N00237514WA0086000968
B1328383650488N00237516WA0086100969
B1328393650492N00237519WA0086200970
B1328403650497N00237520WA0086200972
B1328413650502N00237520WA0086500973
B1328423650508N00237519WA0086500974
B1328433650513N00237515WA0086600976
B1328443650518N00237511WA0086800977
B1328453650523N00237506WA0086900978
B1328463650526N00237499WA0086900978
B1328473650530N00237491WA0086900978
B1328483650534N00237483WA0087000977
B1328493650537N00237473WA0087000978
B1328503650539N00237464WA0087200978
B1328513650539N00237454WA0087200980
B1328523650538N00237446WA0087300982
B1328533650537N00237439WA0087400983
B1328543650535N00237433WA0087400983
B1328553650532N00237428WA0087300982
B1328563650528N00237424WA0087200982
B1328573650524N00237421WA0087100981
B1328583650521N00237420WA0087100981
B1328593650517N00237420WA0087200981
B1329003650514N00237420WA0087200981
B1329013650512N00237421WA0087200981
B1329023650511N00237422WA0087200981
B1329033650511N00237425WA0087200981
B1329043650512N00237428WA0087300981
B1329053650514N00237430WA0087200981
B1329063650518N00237431WA0087200982
B1329073650522N00237431WA0087400982
B1329083650528N00237430WA0087600983
B1329093650533N00237427WA0087700984
B1329103650539N00237422WA0087700984
B1329113650544N00237416WA0087700985
B1329123650550N00237409WA0087800985
B1329133650554N00237401WA0088100986
B1329143650558N00237394WA0088100987
B1329153650561N00237386WA0088200989
B1329163650565N00237377WA0088100989
B1329173650567N00237368WA0088100987
B1329183650568N00237359WA0088000986
B1329193650569N00237351WA0088000986
B1329203650569N00237343WA0088000987
B1329213650569N00237336WA0088000987
B1329223650569N00237329WA0087900987
B1329233650569N00237321WA0087500986
B1329243650568N00237313WA0087300985
B1329253650567N00237305WA0087100984
B1329263650566N00237296WA0087200983
B1329273650565N00237288WA0087200982
B1329283650563N00237281WA0087200982
B1329293650562N00237275WA0087200982
B1329303650560N00237269WA0087000981
B1329313650559N00237262WA0086800980
B1329323650557N00237255WA0086400978
B1329333650554N00237247WA0086200977
B1329343650552N00237241WA0086000974
B1329353650550N00237234WA0085700972
B1329363650548N00237226WA0085500969
B1329373650546N00237218WA0085200967
B1329383650544N00237210WA0084700965
B1329393650542N00237202WA0084500962
B1329403650539N00237193WA0084500960
B1329413650537N00237186WA0084300958
B1329423650534N00237179WA0084200956
B1329433650530N00237171WA0083900953
B1329443650527N00237164WA0083600951
B1329453650523N00237157WA0083500948
B1329463650520N00237149WA0083400947
B1329473650516N00237142WA0083400946
B1329483650514N00237135WA0083200946
B1329493650511N00237128WA0083100944
B1329503650508N00237120WA0082700943
B1329513650505N00237112WA0082400940
B1329523650502N00237103WA0082200938
B1329533650498N00237095WA0082100936
B1329543650495N00237088WA0082000934
B1329553650492N00237082WA0081900934
B1329563650489N00237075WA0081700932
B1329573650487N00237067WA0081600931
B1329583650484N00237059WA0081300928
B1329593650482N00237051WA0081200926
B1330003650479N00237043WA0081000924
B1330013650477N00237035WA0081000923
B1330023650474N00237027WA0080800922
B1330033650472N00237018WA0080700920
B1330043650470N00237010WA0080700919
B1330053650468N00237001WA0080600918
B1330063650466N00236993WA0080500917
B1330073650464N00236985WA0080300917
B1330083650462N00236977WA0080200916
B1330093650459N00236970WA0080300915
B1330103650457N00236963WA0080200914
B1330113650454N00236955WA0080000913
B1330123650452N00236947WA0079900912
B1330133650450N00236939WA0079900911
B1330143650448N00236930WA0079800909
B1330153650447N00236921WA0079800908
B1330163650445N00236913WA0079700907
B1330173650444N00236904WA0079600907
B1330183650444N00236895WA0079500906
B1330193650443N00236886WA0079400905
B1330203650443N00236876WA0079200903
B1330213650443N00236867WA0079100902
B1330223650442N00236858WA0079000901
B1330233650441N00236849WA0078900900
B1330243650440N00236840WA0078900899
B1330253650439N00236832WA0078800898
B1330263650437N00236823WA0078600897
B1330273650436N00236814WA0078500896
B1330283650435N00236805WA0078400894
B1330293650434N00236796WA0078300893
B1330303650432N00236787WA0078200892
B1330313650431N00236779WA0078100891
B1330323650429N00236770WA0078000891
B1330333650428N00236762WA0078000890
B1330343650426N00236753WA0077900889
B1330353650425N00236745WA0077800888
B1330363650423N00236736WA0077700887
B1330373650422N00236728WA0077500885
B1330383650420N00236720WA0077400884
B1330393650418N00236711WA0077300883
B1330403650417N00236702WA0077200882
B1330413650416N00236693WA0077200881
B1330423650415N00236684WA0077100880
B1330433650414N00236675WA0077000879
B1330443650413N00236666WA0076900878
B1330453650412N00236657WA0076800876
B1330463650412N00236647WA0076700875
B1330473650411N00236638WA0076600874
B1330483650411N00236628WA0076400873
B1330493650411N00236618WA0076300872
B1330503650410N00236609WA0076300871
B1330513650410N00236599WA0076100870
B1330523650409N00236590WA0076000868
B1330533650409N00236581WA0075900867
B1330543650409N00236571WA0075700866
B1330553650408N00236561WA0075600865
B1330563650408N00236552WA0075500864
B1330573650407N00236542WA0075500862
B1330583650407N00236533WA0075400861
B1330593650406N00236524WA0075300860
B1331003650405N00236515WA0075100859
B1331013650404N00236505WA0075000858
B1331023650403N00236496WA0074800857
B1331033650402N00236487WA0074700856
B1331043650401N00236478WA0074600855
B1331053650400N00236469WA0074600853
B1331063650399N00236460WA0074400852
B1331073650398N00236451WA0074300851
B1331083650397N00236442WA0074200850
B1331093650396N00236432WA0074100848
B1331103650395N00236423WA0073900847
B1331113650394N00236414WA0073700846
B1331123650393N00236405WA0073700845
B1331133650391N00236396WA0073600844
B1331143650390N00236387WA0073400843
B1331153650388N00236379WA0073300841
B1331163650387N00236370WA0073200840
B1331173650385N00236361WA0073000839
B1331183650384N00236352WA0072900838
B1331193650382N00236344WA0072900837
B1331203650381N00236335WA0072800836
B1331213650379N00236327WA0072700835
B1331223650378N00236318WA0072600834
B1331233650376N00236309WA0072500833
B1331243650374N00236300WA0072300831
B1331253650372N00236292WA0072200830
B1331263650371N00236283WA0072100829
B1331273650369N00236275WA0072100828
B1331283650367N00236266WA0072000828
B1331293650365N00236258WA0071900827
B1331303650364N00236249WA0071800826
B1331313650362N00236241WA0071600825
B1331323650360N00236232WA0071500823
B1331333650358N00236223WA0071300822
B1331343650356N00236215WA0071300820
B1331353650354N00236206WA0071100819
B1331363650352N00236197WA0071000818
B1331373650350N00236189WA0070900817
B1331383650348N00236181WA0070700815
B1331393650346N00236173WA0070500814
B1331403650343N00236164WA0070400812
B1331413650341N00236156WA0070200810
B1331423650338N00236148WA0070000808
B1331433650336N00236139WA0069800807
B1331443650333N00236131WA0069700806
B1331453650331N00236123WA0069600804
B1331463650328N00236115WA0069500803
B1331473650326N00236107WA0069400802
B1331483650323N00236099WA0069200800
B1331493650320N00236091WA0069000799
B1331503650318N00236083WA0068900797
B1331513650316N00236074WA0068800796
B1331523650314N00236066WA0068600794
B1331533650311N00236058WA0068500793
B1331543650309N00236049WA0068300791
B1331553650307N00236041WA0068100790
B1331563650305N00236032WA0067900788
B1331573650303N00236024WA0067600786
B1331583650301N00236016WA0067700784
B1331593650298N00236008WA0067500783
B1332003650295N00236001WA0067300782
B1332013650293N00235993WA0067200781
B1332023650291N00235985WA0067100779
B1332033650289N00235977WA0066900778
B1332043650287N00235969WA0066800776
B1332053650284N00235960WA0066600774
B1332063650282N00235952WA0066400773
B1332073650280N00235944WA0066400772
B1332083650277N00235936WA0066300771
B1332093650275N00235928WA0066100770
B1332103650273N00235920WA0066000768
B1332113650271N00235912WA0065900767
B1332123650269N00235904WA0065700766
B1332133650267N00235895WA0065600764
B1332143650265N00235887WA0065600763
B1332153650264N00235878WA0065500762
B1332163650262N00235870WA0065400761
B1332173650260N00235862WA0065200760
B1332183650257N00235855WA0065100758
B1332193650253N00235848WA0064900757
B1332203650250N00235840WA0064900756
B1332213650247N00235833WA0064800755
B1332223650244N00235826WA0064700754
B1332233650241N00235819WA0064600754
B1332243650238N00235812WA0064500753
B1332253650234N00235806WA0064400752
B1332263650231N00235799WA0064200750
B1332273650227N00235792WA0064100749
B1332283650224N00235786WA0064000748
B1332293650220N00235779WA0063900747
B1332303650217N00235773WA0063700746
B1332313650213N00235766WA0063600744
B1332323650210N00235760WA0063400743
B1332333650206N00235753WA0063300742
B1332343650203N00235747WA0063200740
B1332353650199N00235740WA0063000739
B1332363650196N00235733WA0062900737
B1332373650193N00235726WA0062800736
B1332383650190N00235719WA0062700735
B1332393650187N00235713WA0062600734
B1332403650184N00235705WA0062500732
B1332413650181N00235698WA0062400731
B1332423650178N00235691WA0062200729
B1332433650175N00235683WA0062100728
B1332443650172N00235676WA0062000727
B1332453650169N00235668WA0061900726
B1332463650167N00235661WA0061800725
B1332473650165N00235653WA0061700724
B1332483650162N00235645WA0061600723
B1332493650160N00235637WA0061400721
B1332503650158N00235629WA0061300720
B1332513650156N00235621WA0061200719
B1332523650154N00235613WA0061000718
B1332533650151N00235605WA0060900717
B1332543650149N00235598WA0060700715
B1332553650146N00235590WA0060600714
B1332563650144N00235582WA0060500713
B1332573650142N00235575WA0060400711
B1332583650139N00235567WA0060300710
B1332593650137N00235560WA0060100709
B1333003650134N00235553WA0060000707
B1333013650132N00235545WA0059800705
B1333023650129N00235537WA0059700704
B1333033650127N00235529WA0059500702
B1333043650126N00235521WA0059500701
B1333053650124N00235513WA0059300699
B1333063650122N00235505WA0059200698
B1333073650121N00235497WA0059000697
B1333083650119N00235489WA0058900695
B1333093650118N00235480WA0058800694
B1333103650116N00235472WA0058700692
B1333113650113N00235465WA0058500691
B1333123650111N00235457WA0058300690
B1333133650109N00235450WA0058200689
B1333143650106N00235442WA0058100687
B1333153650104N00235434WA0058000686
B1333163650102N00235427WA0057800685
B1333173650099N00235420WA0057600683
B1333183650096N00235413WA0057500682
B1333193650094N00235406WA0057300680
B1333203650091N00235398WA0057300679
B1333213650088N00235391WA0057200678
B1333223650086N00235384WA0057000677
B1333233650083N00235377WA0056800675
B1333243650080N00235371WA0056600674
B1333253650077N00235364WA0056600672
B1333263650073N00235357WA0056500671
B1333273650070N00235350WA0056300669
B1333283650067N00235343WA0056200668
B1333293650064N00235337WA0056000667
B1333303650061N00235331WA0055900666
B1333313650058N00235324WA0055900664
B1333323650055N00235317WA0055700663
B1333333650052N00235310WA0055600662
B1333343650049N00235303WA0055400661
B1333353650046N00235296WA0055300659
B1333363650044N00235289WA0055200658
B1333373650041N00235282WA0055100657
B1333383650038N00235275WA0054900655
B1333393650035N00235269WA0054700654
B1333403650032N00235262WA0054600653
B1333413650029N00235255WA0054500651
B1333423650026N00235249WA0054400650
B1333433650023N00235243WA0054300649
B1333443650020N00235236WA0054100648
B1333453650017N00235230WA0054000647
B1333463650014N00235224WA0053900645
B1333473650011N00235218WA0053800644
B1333483650008N00235211WA0053700642
B1333493650005N00235205WA0053600641
B1333503650002N00235199WA0053400640
B1333513649999N00235193WA0053300639
B1333523649996N00235187WA0053100637
B1333533649993N00235180WA0053000636
B1333543649989N00235174WA0052900634
B1333553649986N00235168WA0052800633
B1333563649983N00235161WA0052600632
B1333573649981N00235155WA0052500631
B1333583649978N00235148WA0052300630
B1333593649974N00235142WA0052200628
B1334003649971N00235136WA0052100627
B1334013649968N00235129WA0051900625
B1334023649965N00235123WA0051900624
B1334033649962N00235117WA0051800623
B1334043649959N00235110WA0051600622
B1334053649956N00235104WA0051600621
B1334063649953N00235097WA0051400620
B1334073649950N00235091WA0051300619
B1334083649947N00235084WA0051200617
B1334093649944N00235078WA0051100616
B1334103649940N00235072WA0050900615
B1334113649937N00235066WA0050800614
B1334123649933N00235061WA0050700613
B1334133649929N00235055WA0050600612
B1334143649926N00235049WA0050500611
B1334153649922N00235043WA0050400610
B1334163649918N00235038WA0050400609
B1334173649914N00235033WA0050200608
B1334183649911N00235028WA0050100606
B1334193649907N00235023WA0050000605
B1334203649903N00235017WA0049900604
B1334213649899N00235012WA0049700603
B1334223649895N00235007WA0049600602
B1334233649891N00235001WA0049600601
B1334243649886N00234996WA0049500600
B1334253649882N00234991WA0049400599
B1334263649878N00234986WA0049200598
B1334273649874N00234981WA0049100597
B1334283649870N00234976WA0049100596
B1334293649866N00234970WA0048900595
B1334303649862N00234965WA0048900594
B1334313649859N00234959WA0048800592
B1334323649855N00234953WA0048700591
B1334333649851N00234947WA0048600590
B1334343649848N00234941WA0048500589
B1334353649844N00234935WA0048400588
B1334363649840N00234930WA0048200587
B1334373649837N00234924WA0048100586
B1334383649833N00234918WA0048000584
B1334393649829N00234912WA0047800583
B1334403649826N00234905WA0047700582
B1334413649822N00234899WA0047600581
B1334423649818N00234893WA0047500580
B1334433649814N00234887WA0047300578
B1334443649811N00234881WA0047200577
B1334453649807N00234874WA0047000576
B1334463649803N00234868WA0046900574
B1334473649799N00234862WA0046800573
B1334483649796N00234856WA0046700572
B1334493649792N00234849WA0046600571
B1334503649789N00234843WA0046500570
B1334513649785N00234836WA0046300568
B1334523649782N00234829WA0046200567
B1334533649779N00234822WA0046200566
B1334543649776N00234815WA0046000565
B1334553649773N00234808WA0045600564
B1334563649770N00234801WA0045500562
B1334573649767N00234794WA0045500561
B1334583649763N00234788WA0045500560
B1334593649760N00234781WA0045400559
B1335003649756N00234775WA0045300557
B1335013649752N00234769WA0045100556
B1335023649749N00234763WA0045000555
B1335033649745N00234756WA0044800554
B1335043649741N00234750WA0044800552
B1335053649738N00234744WA0044600551
B1335063649734N00234738WA0044500549
B1335073649730N00234732WA0044300548
B1335083649726N00234726WA0044200546
B1335093649722N00234720WA0044100545
B1335103649718N00234714WA0044000544
B1335113649714N00234708WA0043800543
B1335123649710N00234702WA0043700541
B1335133649706N00234696WA0043500540
B1335143649702N00234689WA0043400538
B1335153649698N00234683WA0043300537
B1335163649694N00234677WA0043200536
B1335173649690N00234671WA0043000535
B1335183649687N00234665WA0042900533
B1335193649683N00234659WA0042800532
B1335203649679N00234653WA0042600530
B1335213649675N00234646WA0042400529
B1335223649672N00234640WA0042300528
B1335233649668N00234634WA0042200526
B1335243649665N00234627WA0042200525
B1335253649661N00234621WA0042000524
B1335263649658N00234614WA0041900523
B1335273649655N00234608WA0041700521
B1335283649651N00234601WA0041600520
B1335293649648N00234594WA0041500519
B1335303649645N00234588WA0041400518
B1335313649641N00234582WA0041300517
B1335323649638N00234576WA0041100516
B1335333649635N00234570WA0041000514
B1335343649631N00234563WA0040900513
B1335353649628N00234558WA0040700512
B1335363649624N00234552WA0040500510
B1335373649620N00234546WA0040400508
B1335383649616N00234541WA0040300507
B1335393649612N00234536WA0040200506
B1335403649608N00234531WA0040000505
B1335413649604N00234525WA0039900503
B1335423649600N00234520WA0039700502
B1335433649596N00234514WA0039600501
B1335443649592N00234509WA0039500499
B1335453649588N00234503WA0039400498
B1335463649584N00234498WA0039200497
B1335473649581N00234492WA0039100496
B1335483649577N00234487WA0039000494
B1335493649573N00234481WA0038900493
B1335503649570N00234475WA0038700492
B1335513649566N00234469WA0038600490
B1335523649563N00234463WA0038500489
B1335533649559N00234457WA0038400488
B1335543649556N00234451WA0038300487
B1335553649552N00234444WA0038200485
B1335563649549N00234438WA0038100484
B1335573649546N00234432WA0037900483
B1335583649543N00234425WA0037800482
B1335593649539N00234419WA0037700480
B1336003649536N00234412WA0037600479
B1336013649533N00234406WA0037500478
B1336023649530N00234399WA0037400477
B1336033649526N00234393WA0037300476
B1336043649523N00234386WA0037100475
B1336053649519N00234380WA0037100474
B1336063649516N00234374WA0037000473
B1336073649512N00234367WA0036800471
B1336083649509N00234361WA0036700470
B1336093649505N00234354WA0036600469
B1336103649502N00234348WA0036500468
B1336113649498N00234341WA0036500467
B1336123649495N00234334WA0036300466
B1336133649492N00234327WA0036200465
B1336143649489N00234320WA0036000464
B1336153649486N00234313WA0035900462
B1336163649483N00234306WA0035900461
B1336173649479N00234300WA0035700460
B1336183649476N00234293WA0035600459
B1336193649472N00234287WA0035400458
B1336203649468N00234280WA0035300457
B1336213649464N00234274WA0035200455
B1336223649460N00234268WA0035200454
B1336233649456N00234262WA0035100453
B1336243649453N00234255WA0034900452
B1336253649449N00234249WA0034800451
B1336263649445N00234242WA0034600450
B1336273649441N00234236WA0034600448
B1336283649438N00234229WA0034500447
B1336293649434N00234223WA0034300446
B1336303649430N00234216WA0034200445
B1336313649427N00234210WA0034100444
B1336323649423N00234203WA0034000443
B1336333649419N00234197WA0033900442
B1336343649416N00234190WA0033800441
B1336353649412N00234184WA0033700439
B1336363649409N00234177WA0033600438
B1336373649405N00234171WA0033400437
B1336383649401N00234164WA0033400436
B1336393649397N00234158WA0033200435
B1336403649394N00234151WA0033200434
B1336413649390N00234144WA0033000432
B1336423649387N00234137WA0032800431
B1336433649384N00234130WA0032800430
B1336443649380N00234123WA0032700429
B1336453649377N00234116WA0032600428
B1336463649374N00234109WA0032400427
B1336473649372N00234101WA0032300426
B1336483649369N00234094WA0032200425
B1336493649367N00234086WA0032200424
B1336503649364N00234079WA0032100423
B1336513649362N00234072WA0032000422
B1336523649359N00234065WA0031900421
B1336533649357N00234057WA0031800420
B1336543649354N00234050WA0031600419
B1336553649351N00234043WA0031600418
B1336563649347N00234037WA0031500416
B1336573649343N00234031WA0031300415
B1336583649339N00234025WA0031300415
B1336593649336N00234018WA0031200414
B1337003649333N00234012WA0031100413
B1337013649330N00234006WA0031000412
B1337023649326N00233999WA0030900411
B1337033649322N00233993WA0030800410
B1337043649318N00233987WA0030700409
B1337053649315N00233980WA0030600408
B1337063649312N00233974WA0030400407
B1337073649309N00233967WA0030200406
B1337083649305N00233961WA0030100405
B1337093649302N00233955WA0030100404
B1337103649299N00233948WA0030000403
B1337113649295N00233942WA0029900402
B1337123649292N00233936WA0029800401
B1337133649288N00233930WA0029800400
B1337143649285N00233924WA0029600399
B1337153649281N00233918WA0029500398
B1337163649277N00233913WA0029400397
B1337173649274N00233907WA0029300396
B1337183649271N00233901WA0029200395
B1337193649267N00233894WA0029200394
B1337203649264N00233888WA0029000393
B1337213649261N00233882WA0028900392
B1337223649257N00233876WA0028800390
B1337233649254N00233870WA0028700389
B1337243649251N00233864WA0028600388
B1337253649247N00233858WA0028600387
B1337263649244N00233852WA0028500386
B1337273649240N00233847WA0028300385
B1337283649236N00233842WA0028200384
B1337293649232N00233836WA0028100383
B1337303649228N00233831WA0028000382
B1337313649225N00233825WA0027900381
B1337323649221N00233820WA0027800380
B1337333649217N00233815WA0027600378
B1337343649213N00233810WA0027500377
B1337353649209N00233805WA0027400376
B1337363649205N00233800WA0027400375
B1337373649202N00233795WA0027400374
B1337383649200N00233790WA0027500375
B1337393649198N00233784WA0027400375
B1337403649196N00233779WA0027000374
B1337413649193N00233773WA0026800373
B1337423649191N00233767WA0026900372
B1337433649188N00233762WA0026800371
B1337443649186N00233756WA0026800370
B1337453649184N00233751WA0026800370
B1337463649182N00233745WA0026700369
B1337473649179N00233739WA0026500368
B1337483649177N00233733WA0026300366
B1337493649175N00233727WA0026100365
B1337503649172N00233721WA0026100364
B1337513649170N00233716WA0026100363
B1337523649168N00233711WA0026000362
B1337533649166N00233705WA0026000360
B1337543649163N00233699WA0025700359
B1337553649161N00233693WA0025700357
B1337563649158N00233687WA0025600356
B1337573649156N00233682WA0025500355
B1337583649154N00233676WA0025400354
B1337593649152N00233670WA0025300353
B1338003649150N00233664WA0025100352
B1338013649148N00233658WA0025100350
B1338023649146N00233652WA0024900349
B1338033649144N00233646WA0024900348
B1338043649143N00233640WA0024900347
B1338053649141N00233634WA0024700346
B1338063649139N00233628WA0024500345
B1338073649136N00233622WA0024500344
B1338083649133N00233617WA0024300343
B1338093649131N00233612WA0024300343
B1338103649129N00233606WA0024200342
B1338113649127N00233601WA0024000341
B1338123649125N00233594WA0023900340
B1338133649124N00233588WA0023900339
B1338143649123N00233581WA0023700338
B1338153649122N00233575WA0023700337
B1338163649121N00233568WA0023500336
B1338173649120N00233561WA0023400335
B1338183649120N00233555WA0023400334
B1338193649119N00233548WA0023300333
B1338203649118N00233541WA0023200332
B1338213649117N00233535WA0023100330
B1338223649116N00233528WA0022900329
B1338233649115N00233521WA0022800328
B1338243649113N00233515WA0022800327
B1338253649112N00233508WA0022700326
B1338263649111N00233502WA0022500325
B1338273649109N00233496WA0022400324
B1338283649107N00233490WA0022300322
B1338293649106N00233484WA0022200321
B1338303649104N00233478WA0022000320
B1338313649102N00233472WA0021900318
B1338323649100N00233465WA0021700317
B1338333649099N00233459WA0021600316
B1338343649097N00233453WA0021400315
B1338353649095N00233447WA0021300313
B1338363649093N00233441WA0021300312
B1338373649091N00233435WA0021100311
B1338383649089N00233428WA0021100310
B1338393649088N00233421WA0021000309
B1338403649087N00233414WA0020900308
B1338413649087N00233407WA0020800307
B1338423649086N00233400WA0020700306
B1338433649086N00233394WA0020500305
B1338443649085N00233387WA0020500304
B1338453649084N00233380WA0020400302
B1338463649083N00233373WA0020100301
B1338473649083N00233366WA0020000300
B1338483649083N00233360WA0020000299
B1338493649082N00233353WA0019800297
B1338503649080N00233347WA0019600296
B1338513649078N00233340WA0019400294
B1338523649076N00233334WA0019300292
B1338533649075N00233328WA0019000291
B1338543649073N00233321WA0018900290
B1338553649072N00233315WA0018900289
B1338563649070N00233309WA0018700288
B1338573649069N00233303WA0018700287
B1338583649068N00233296WA0018600285
B1338593649067N00233289WA0018400284
B1339003649067N00233282WA0018300283
B1339013649066N00233276WA0018300282
B1339023649065N00233269WA0018200281
B1339033649064N00233263WA0018000279
B1339043649064N00233256WA0017800278
B1339053649064N00233248WA0017700276
B1339063649064N00233241WA0017700275
B1339073649064N00233234WA0017600274
B1339083649065N00233227WA0017500274
B1339093649065N00233221WA0017400273
B1339103649065N00233214WA0017200272
B1339113649065N00233207WA0017200270
B1339123649065N00233200WA0017000269
B1339133649066N00233192WA0016900267
B1339143649067N00233185WA0016800266
B1339153649067N00233179WA0016700266
B1339163649066N00233173WA0016600265
B1339173649065N00233166WA0016400263
B1339183649064N00233159WA0016300261
B1339193649063N00233151WA0016100259
B1339203649062N00233144WA0016100258
B1339213649062N00233138WA0016100257
B1339223649061N00233131WA0016100256
B1339233649060N00233125WA0015900255
B1339243649059N00233118WA0015700253
B1339253649059N00233111WA0015500252
B1339263649058N00233103WA0015400250
B1339273649058N00233097WA0015400250
B1339283649057N00233090WA0015400250
B1339293649056N00233085WA0015300249
B1339303649053N00233080WA0015100248
B1339313649048N00233078WA0014900246
B1339323649043N00233076WA0014600243
B1339333649037N00233077WA0014500242
B1339343649033N00233078WA0014500241
B1339353649029N00233079WA0014500240
B1339363649025N00233081WA0014400239
B1339373649023N00233084WA0014300238
B1339383649020N00233088WA0013900236
B1339393649017N00233094WA0013500232
B1339403649015N00233100WA0013400231
B1339413649012N00233104WA0013600230
B1339423649010N00233108WA0013600231
B1339433649007N00233112WA0013400230
B1339443649003N00233116WA0012900229
B1339453649000N00233122WA0012700225
B1339463648997N00233130WA0012500222
B1339473648995N00233137WA0012400220
B1339483648993N00233144WA0012400219
B1339493648991N00233149WA0012500220
B1339503648989N00233154WA0012300220
B1339513648987N00233160WA0012200218
B1339523648985N00233166WA0011800216
B1339533648983N00233173WA0011700214
B1339543648980N00233180WA0011600212
B1339553648978N00233186WA0011600210
B1339563648976N00233191WA0011700210
B1339573648974N00233197WA0011300209
B1339583648973N00233202WA0011200208
B1339593648971N00233209WA0011000206
B1340003648969N00233215WA0010800204
B1340013648967N00233221WA0010700203
B1340023648965N00233227WA0010700202
B1340033648963N00233233WA0010500201
B1340043648960N00233238WA0010400200
B1340053648958N00233244WA0010300199
B1340063648954N00233249WA0010200198
B1340073648951N00233254WA0010100196
B1340083648947N00233259WA0009900195
B1340093648943N00233263WA0009800194
B1340103648938N00233267WA0009700193
B1340113648934N00233270WA0009500192
B1340123648929N00233273WA0009400191
B1340133648924N00233275WA0009200190
B1340143648919N00233277WA0009200189
B1340153648913N00233279WA0009000188
B1340163648908N00233281WA0008900186
B1340173648903N00233282WA0008800185
B1340183648897N00233284WA0008600184
B1340193648892N00233285WA0008500182
B1340203648886N00233285WA0008300181
B1340213648881N00233286WA0008200180
B1340223648875N00233286WA0008100179
B1340233648870N00233287WA0008100178
B1340243648865N00233289WA0008100177
B1340253648862N00233291WA0008100178
B1340263648859N00233293WA0007900177
B1340273648856N00233297WA0007500175
B1340283648853N00233302WA0007200173
B1340293648850N00233307WA0007100172
B1340303648846N00233311WA0007200170
B1340313648843N00233315WA0007300169
B1340323648840N00233318WA0007200168
B1340333648836N00233321WA0007100167
B1340343648833N00233325WA0007000166
B1340353648830N00233330WA0006800164
B1340363648828N00233336WA0006700163
B1340373648828N00233341WA0006600163
B1340383648828N00233347WA0006500161
B1340393648828N00233352WA0006300161
B1340403648828N00233358WA0006200159
B1340413648827N00233364WA0006100158
B1340423648826N00233370WA0006100157
B1340433648826N00233375WA0006000156
B1340443648825N00233381WA0005900155
B1340453648825N00233386WA0005600154
B1340463648824N00233392WA0005400153
B1340473648824N00233397WA0005400152
B1340483648823N00233403WA0005400151
B1340493648822N00233409WA0005200150
B1340503648821N00233414WA0005200149
B1340513648821N00233420WA0005100148
B1340523648820N00233425WA0005000147
B1340533648819N00233431WA0004900146
B1340543648819N00233436WA0004700144
B1340553648818N00233442WA0004600143
B1340563648817N00233447WA0004500142
B1340573648815N00233453WA0004400141
B1340583648814N00233458WA0004200140
B1340593648812N00233463WA0004200139
B1341003648810N00233468WA0004000138
B1341013648808N00233472WA0004000137
B1341023648806N00233477WA0003800136
B1341033648803N00233482WA0003900135
B1341043648801N00233486WA0003700134
B1341053648800N00233491WA0003600133
B1341063648800N00233496WA0003500133
B1341073648801N00233502WA0003400131
B1341083648803N00233508WA0003000129
B1341093648805N00233513WA0003000128
B1341103648807N00233518WA0003000128
B1341113648808N00233523WA0002800127
B1341123648809N00233529WA0002500126
B1341133648811N00233536WA0002200124
B1341143648813N00233543WA0002000121
B1341153648816N00233550WA0002000119
B1341163648820N00233557WA0002000119
B1341173648822N00233562WA0001900119
B1341183648825N00233567WA0001800118
B1341193648828N00233573WA0001700116
B1341203648832N00233579WA0001500115
B1341213648836N00233585WA0001200112
B1341223648840N00233591WA0001100111
B1341233648844N00233596WA0001100109
B1341243648849N00233600WA0001000108
B1341253648853N00233605WA0000900107
B1341263648857N00233609WA0000800106
B1341273648861N00233614WA0000600104
B1341283648866N00233619WA0000400103
B1341293648871N00233624WA0000400101
B1341303648875N00233628WA0000400101
B1341313648878N00233632WA0000300101
B1341323648882N00233636WA0000200100
B1341333648886N00233640WA0000000099
B1341343648890N00233645WA0000000096
B1341353648894N00233650WA-000100094
B1341363648898N00233655WA-000100093
B1341373648902N00233659WA-000100094
B1341383648906N00233662WA-000300093
B1341393648910N00233665WA-000400092
B1341403648915N00233669WA-000600090
B1341413648919N00233674WA-000700088
B1341423648922N00233679WA-000800087
B1341433648925N00233684WA-000900086
B1341443648927N00233689WA-001000085
B1341453648930N00233694WA-001100085
B1341463648932N00233699WA-001400084
B1341473648935N00233704WA-001500082
B1341483648938N00233710WA-001600081
B1341493648941N00233715WA-001600083
B1341503648943N00233720WA-001600083
B1341513648945N00233724WA-001700083
B1341523648948N00233729WA-001900082
B1341533648950N00233735WA-002000081
B1341543648953N00233741WA-002000079
B1341553648956N00233747WA-002000078
B1341563648958N00233752WA-002000078
B1341573648959N00233757WA-002000078
B1341583648960N00233763WA-002000077
B1341593648961N00233769WA-002200076
B1342003648961N00233775WA-002300075
B1342013648961N00233781WA-002300075
B1342023648960N00233786WA-002200076
B1342033648958N00233790WA-002400075
B1342043648956N00233794WA-002400075
B1342053648953N00233799WA-002600073
B1342063648951N00233804WA-002800072
B1342073648948N00233809WA-002900071
B1342083648945N00233813WA-003000070
B1342093648942N00233816WA-003000069
B1342103648938N00233816WA-003200068
B1342113648935N00233815WA-003300066
B1342123648932N00233811WA-003500064
B1342133648930N00233805WA-003700062
B1342143648931N00233798WA-003900061
B1342153648933N00233792WA-004200058
B1342163648936N00233787WA-004100057
B1342173648938N00233782WA-004000057
B1342183648938N00233777WA-004200056
B1342193648939N00233771WA-004300054
B1342203648939N00233765WA-004400052
B1342213648941N00233759WA-004500051
B1342223648942N00233753WA-004300052
B1342233648941N00233748WA-004300052
B1342243648940N00233745WA-004400052
B1342253648938N00233741WA-004500052
B1342263648934N00233740WA-004700051
B1342273648930N00233740WA-004800050
B1342283648927N00233743WA-004900048
B1342293648924N00233748WA-005300047
B1342303648924N00233754WA-005600045
B1342313648927N00233761WA-005700043
B1342323648930N00233766WA-005700042
B1342333648934N00233771WA-005500041
B1342343648935N00233775WA-005300041
B1342353648937N00233779WA-005500040
B1342363648938N00233785WA-005700042
B1342373648939N00233791WA-006000041
B1342383648940N00233798WA-006100040
B1342393648941N00233803WA-006000039
B1342403648941N00233809WA-006000039
B1342413648941N00233814WA-006100038
B1342423648940N00233819WA-006200037
B1342433648939N00233824WA-006300036
B1342443648936N00233827WA-006400035
B1342453648932N00233828WA-006500034
B1342463648928N00233826WA-006800033
B1342473648926N00233823WA-007200036
B1342483648926N00233817WA-007600036
B1342493648927N00233811WA-007300036
B1342503648927N00233806WA-007200035
B1342513648926N00233802WA-007200034
B1342523648923N00233799WA-007300033
B1342533648919N00233798WA-007700030
B1342543648915N00233800WA-008100028
B1342553648912N00233805WA-008300027
B1342563648910N00233810WA-008300025
B1342573648908N00233814WA-008300024
B1342583648906N00233817WA-008400022
B1342593648902N00233816WA-008700020
B1343003648898N00233813WA-009100017
B1343013648895N00233809WA-009300014
B1343023648892N00233805WA-009200013
B1343033648890N00233803WA-009100012
B1343043648888N00233801WA-009100012
B1343053648886N00233799WA-009200011
B1343063648884N00233798WA-009200013
B1343073648884N00233798WA-009100013
B1343083648883N00233797WA-009100012
B1343093648883N00233797WA-009100012
B1343103648884N00233797WA-009100012
B1343113648884N00233796WA-009100011
B1343123648883N00233796WA-009100011
B1343133648883N00233796WA-009100010
B1343143648883N00233795WA-009100010
B1343153648883N00233795WA-009100011
B1343163648882N00233794WA-009100010
B1343173648882N00233793WA-009100010
B1343183648882N00233793WA-009100010
B1343193648882N00233792WA-009100010
B1343203648882N00233792WA-009100010
B1343213648882N00233792WA-009100010
B1343223648882N00233792WA-009100010
B1343233648882N00233793WA-009100010
B1343243648882N00233793WA-009100009
B1343253648882N00233792WA-009100009
B1343263648882N00233793WA-009100009
B1343273648882N00233792WA-009100008
B1343283648882N00233792WA-009100008
B1343293648882N00233792WA-009100008
B1343303648882N00233792WA-009100008
B1343313648881N00233791WA-009100008
B1343323648881N00233791WA-009100008
B1343333648881N00233790WA-009100008
B1343343648880N00233790WA-009100008
B1343353648880N00233789WA-009100008
B1343363648880N00233789WA-009100008
B1343373648880N00233790WA-009100008
B1343383648881N00233790WA-009100008
B1343393648881N00233790WA-009100008
B1343403648881N00233791WA-009100008
B1343413648881N00233791WA-009100008
B1343423648881N00233791WA-009100008
B1343433648881N00233791WA-009100008
B1343443648881N00233791WA-009100009
B1343453648881N00233792WA-009100008
B1343463648881N00233792WA-009100008
B1343473648881N00233792WA-009100008
B1343483648881N00233792WA-009100008
B1343493648881N00233792WA-009100008
B1343503648881N00233792WA-009100008
B1343513648882N00233793WA-009100007
B1343523648881N00233792WA-009100007
B1343533648881N00233792WA-009100007
B1343543648881N00233792WA-009100007
B1343553648881N00233792WA-009100007
B1343563648881N00233792WA-009100007
B1343573648881N00233792WA-009100006
B1343583648881N00233792WA-009100006
B1343593648881N00233792WA-009100006
B1344003648881N00233792WA-009100006
B1344013648882N00233793WA-009100006
B1344023648881N00233791WA-009100006
B1344033648880N00233791WA-009100006
B1344043648880N00233790WA-009100006
B1344053648880N00233790WA-009100006
B1344063648880N00233789WA-009100006
B1344073648880N00233791WA-009100006
B1344083648880N00233791WA-009100006
B1344093648881N00233792WA-009100006
B1344103648881N00233792WA-009100006
B1344113648881N00233792WA-009100006
B1344123648882N00233792WA-009100006
B1344133648882N00233793WA-009100006
B1344143648882N00233793WA-009100006
B1344153648883N00233795WA-009100006
B1344163648883N00233796WA-009100005
B1344173648883N00233795WA-009100005
B1344183648883N00233796WA-009100005
B1344193648883N00233796WA-009100005
B1344203648884N00233796WA-009100005
B1344213648884N00233796WA-009100005
B1344223648884N00233796WA-009100005
B1344233648884N00233796WA-009100005
B1344243648884N00233796WA-009100005
B1344253648884N00233796WA-009100005
B1344263648884N00233796WA-009100005
B1344273648883N00233796WA-009100005
B1344283648883N00233796WA-009100005
B1344293648883N00233796WA-009100005
B1344303648884N00233796WA-009100005
B1344313648884N00233796WA-009100005
B1344323648885N00233796WA-009100005
B1344333648884N00233796WA-009100004
B1344343648884N00233796WA-009100005
B1344353648885N00233796WA-009100005
B1344363648885N00233796WA-009100005
B1344373648885N00233796WA-009100005
B1344383648886N00233796WA-009100005
B1344393648886N00233796WA-009100006
B1344403648886N00233796WA-009100006
B1344413648886N00233797WA-009100006
B1344423648886N00233796WA-009100007
B1344433648886N00233797WA-009100007
B1344443648886N00233797WA-009100007
B1344453648886N00233797WA-009100008
B1344463648885N00233797WA-009100007
B1344473648885N00233797WA-009100007
B1344483648883N00233797WA-009100006
B1344493648882N00233797WA-009100005
B1344503648882N00233796WA-009100004
B1344513648882N00233797WA-009100004
B1344523648882N00233796WA-009200004
B1344533648882N00233796WA-009100004
B1344543648881N00233796WA-009200004
B1344553648881N00233796WA-009200004
B1344563648881N00233796WA-009200004
B1344573648881N00233796WA-009200004
B1344583648881N00233796WA-009100003
B1344593648881N00233796WA-009200003
B1345003648881N00233796WA-009200003
B1345013648881N00233796WA-009200003
B1345023648881N00233796WA-009200003
B1345033648881N00233796WA-009100003
B1345043648880N00233796WA-009200003
B1345053648880N00233796WA-009200003
B1345063648880N00233796WA-009200002
B1345073648880N00233796WA-009100002
B1345083648880N00233796WA-009200002
B1345093648880N00233796WA-009100002
B1345103648880N00233796WA-009200002
B1345113648880N00233795WA-009100001
B1345123648880N00233795WA-009100001
B1345133648880N00233795WA-009200001
B1345143648880N00233795WA-009100001
B1345153648880N00233795WA-009200001
B1345163648880N00233795WA-009200001
B1345173648880N00233795WA-009200001
B1345183648880N00233795WA-009100001
B1345193648880N00233795WA-009100001
B1345203648880N00233795WA-009200001
B1345213648880N00233795WA-009200001
B1345223648880N00233795WA-009200001
B1345233648880N00233795WA-009200001
B1345243648881N00233795WA-009200001
B1345253648881N00233795WA-009100001
B1345263648881N00233795WA-009100001
B1345273648881N00233795WA-009100001
B1345283648881N00233795WA-009200001
B1345293648881N00233796WA-009200001
B1345303648881N00233796WA-009100001
B1345313648881N00233796WA-009200001
B1345323648881N00233796WA-009200001
B1345333648881N00233796WA-009100001
B1345343648881N00233796WA-009100001
B1345353648881N00233796WA-009100001
B1345363648881N00233796WA-009100001
B1345373648881N00233796WA-009100001
B1345383648881N00233796WA-009100001
B1345393648881N00233796WA-009200001
B1345403648881N00233796WA-009100001
B1345413648880N00233796WA-009100001
B1345423648880N00233796WA-009100001
B1345433648880N00233796WA-009100001
B1345443648880N00233796WA-009100001
B1345453648880N00233796WA-009100001
B1345463648880N00233796WA-009100001
B1345473648880N00233796WA-009100001
B1345483648880N00233796WA-009100001
B1345493648880N00233796WA-009100001
B1345503648880N00233796WA-009100001
B1345513648880N00233796WA-009100001
B1345523648880N00233796WA-009100001
B1345533648880N00233796WA-009100001
B1345543648880N00233796WA-009100001
B1345553648880N00233796WA-009100001
B1345563648880N00233796WA-009200001
B1345573648880N00233796WA-009100001
B1345583648880N00233796WA-009100001
B1345593648880N00233796WA-009100001
B1346003648880N00233796WA-009100001
B1346013648880N00233796WA-009100001
B1346023648880N00233796WA-009100001
B1346033648880N00233796WA-009100001
B1346043648881N00233796WA-009100002
B1346053648881N00233796WA-009100002
B1346063648881N00233796WA-009100002
B1346073648881N00233796WA-009100002
B1346083648881N00233796WA-009100002
B1346093648881N00233796WA-009100002
B1346103648880N00233796WA-009100002
B1346113648880N00233796WA-009100002
B1346123648880N00233796WA-009100002
B1346133648880N00233796WA-009100002
B1346143648880N00233796WA-009100002
B1346153648881N00233796WA-009100002
B1346163648881N00233796WA-009100002
B1346173648881N00233796WA-009100002
B1346183648880N00233796WA-009100002
B1346193648880N00233796WA-009100002
B1346203648880N00233796WA-009100002
B1346213648880N00233796WA-009100002
B1346223648881N00233796WA-009100002
B1346233648881N00233795WA-009100003
B1346243648881N00233795WA-009100003
B1346253648881N00233795WA-009100003
B1346263648881N00233795WA-009100003
B1346273648881N00233795WA-009100003
B1346283648881N00233795WA-009100003
B1346293648881N00233795WA-009100003
B1346303648881N00233795WA-009100003
B1346313648881N00233795WA-009100003
B1346323648881N00233795WA-009100003
B1346333648881N00233795WA-009100003
B1346343648881N00233795WA-009100004
B1346353648881N00233795WA-009100003
B1346363648881N00233795WA-009100003
B1346373648881N00233795WA-009100003
B1346383648881N00233795WA-009100003
B1346393648881N00233795WA-009100003
B1346403648881N00233795WA-009100003
B1346413648881N00233795WA-009100003
B1346423648881N00233795WA-009100003
B1346433648881N00233795WA-009100003
B1346443648881N00233795WA-009100003
B1346453648881N00233795WA-009100003
B1346463648881N00233795WA-009100003
B1346473648881N00233795WA-009100003
B1346483648881N00233795WA-009100003
B1346493648881N00233795WA-009100003
B1346503648881N00233795WA-009100003
B1346513648881N00233795WA-009100004
B1346523648881N00233795WA-009100004
B1346533648881N00233796WA-009100004
B1346543648881N00233796WA-009100004
B1346553648881N00233796WA-009100004
B1346563648881N00233796WA-009100004
B1346573648881N00233796WA-009100004
B1346583648881N00233796WA-009100004
B1346593648881N00233796WA-009100004
B1347003648881N00233796WA-009100003
B1347013648881N00233796WA-009100003
B1347023648881N00233796WA-009100003
B1347033648881N00233796WA-009100003
B1347043648881N00233796WA-009100003
B1347053648881N00233796WA-009100003
B1347063648881N00233796WA-009100003
B1347073648881N00233796WA-009100003
B1347083648881N00233796WA-009100003
B1347093648881N00233796WA-009100003
B1347103648881N00233796WA-009100003
B1347113648881N00233796WA-009100003
B1347123648881N00233796WA-009100003
B1347133648881N00233795WA-009100002
B1347143648881N00233795WA-009100003
B1347153648881N00233795WA-009100003
B1347163648881N00233795WA-009100003
B1347173648881N00233795WA-009100003
B1347183648881N00233795WA-009100003
B1347193648881N00233795WA-009100003
B1347203648881N00233795WA-009100003
B1347213648881N00233795WA-009100003
B1347223648881N00233795WA-009100003
B1347233648881N00233795WA-009100003
B1347243648881N00233795WA-009100003
B1347253648881N00233795WA-009100003
B1347263648881N00233795WA-009100003
B1347273648881N00233795WA-009100003
B1347283648881N00233795WA-009100003
B1347293648881N00233795WA-009100003
B1347303648881N00233795WA-009100003
B1347313648881N00233795WA-009100003
B1347323648881N00233796WA-009100003
B1347333648881N00233796WA-009100003
B1347343648881N00233796WA-009100003
B1347353648881N00233796WA-009100003
B1347363648880N00233796WA-009100003
B1347373648880N00233796WA-009100003
B1347383648880N00233796WA-009100003
B1347393648880N00233796WA-009100003
B1347403648880N00233796WA-009100003
B1347413648880N00233796WA-009100003
B1347423648880N00233796WA-009100003
B1347433648880N00233796WA-009100003
B1347443648880N00233796WA-009100002
B1347453648880N00233796WA-009100002
B1347463648880N00233796WA-009100002
B1347473648880N00233796WA-009100002
B1347483648880N00233796WA-009100002
B1347493648880N00233796WA-009100002
B1347503648880N00233796WA-009100002
B1347513648880N00233796WA-009100002
B1347523648880N00233796WA-009100002
B1347533648880N00233796WA-009100002
B1347543648880N00233796WA-009100002
B1347553648880N00233796WA-009100002
B1347563648880N00233796WA-009100002
B1347573648880N00233796WA-009100002
B1347583648880N00233796WA-009100002
B1347593648880N00233796WA-009100002
B1348003648880N00233796WA-009100002
B1348013648880N00233796WA-009100002
B1348023648880N00233796WA-009100002
B1348033648880N00233796WA-009100002
B1348043648880N00233796WA-009100003
B1348053648880N00233795WA-009100003
B1348063648880N00233795WA-009100003
B1348073648880N00233795WA-009100003
B1348083648880N00233795WA-009100003
B1348093648880N00233795WA-009100003
B1348103648880N00233795WA-009100003
B1348113648880N00233795WA-009100003
B1348123648880N00233795WA-009100003
B1348133648880N00233795WA-009100003
B1348143648880N00233795WA-009100003
B1348153648880N00233795WA-009100003
B1348163648880N00233795WA-009100003
B1348173648880N00233795WA-009100003
B1348183648880N00233795WA-009100003
B1348193648880N00233795WA-009100003
B1348203648880N00233795WA-009100003
B1348213648880N00233795WA-009100003
B1348223648880N00233796WA-009100003
B1348233648880N00233796WA-009100003
B1348243648880N00233796WA-009100003
B1348253648880N00233796WA-009100003
B1348263648880N00233796WA-009100003
B1348273648880N00233796WA-009100003
B1348283648880N00233796WA-009100003
B1348293648880N00233796WA-009100003
B1348303648880N00233796WA-009100003
B1348313648880N00233796WA-009100003
B1348323648880N00233796WA-009100002
B1348333648880N00233796WA-009100002
B1348343648880N00233796WA-009100002
B1348353648880N00233796WA-009100002
B1348363648880N00233796WA-009100002
B1348373648880N00233796WA-009100002
B1348383648880N00233796WA-009100002
B1348393648880N00233796WA-009100002
B1348403648880N00233796WA-009100002
B1348413648880N00233796WA-009100002
B1348423648880N00233796WA-009100002
B1348433648881N00233796WA-009100002
B1348443648881N00233796WA-009100002
B1348453648881N00233796WA-009100002
B1348463648881N00233796WA-009100002
B1348473648881N00233796WA-009100002
B1348483648881N00233796WA-009100002
B1348493648881N00233796WA-009100002
B1348503648881N00233796WA-009100002
B1348513648881N00233796WA-009100002
B1348523648881N00233796WA-009100002
B1348533648881N00233796WA-009100002
B1348543648881N00233796WA-009100002
B1348553648881N00233796WA-009100002
B1348563648881N00233796WA-009100002
B1348573648881N00233795WA-009100002
B1348583648881N00233796WA-009100002
B1348593648881N00233796WA-009100002
B1349003648881N00233796WA-009100002
B1349013648881N00233796WA-009100002
B1349023648881N00233796WA-009100002
B1349033648881N00233796WA-009100002
B1349043648881N00233796WA-009100002
B1349053648881N00233796WA-009100002
B1349063648881N00233796WA-009100002
B1349073648881N00233796WA-009100001
B1349083648881N00233796WA-009100001
B1349093648881N00233796WA-009100001
B1349103648880N00233796WA-009100001
B1349113648880N00233796WA-009100001
B1349123648880N00233796WA-009100001
B1349133648880N00233796WA-009100001
B1349143648880N00233796WA-009100001
B1349153648880N00233796WA-009100001
B1349163648880N00233796WA-009100001
B1349173648880N00233796WA-009100001
B1349183648880N00233796WA-009100001
B1349193648880N00233796WA-009100001
B1349203648880N00233796WA-009100001
B1349213648880N00233796WA-009100001
B1349223648880N00233796WA-009100001
B1349233648880N00233796WA-009100001
B1349243648880N00233796WA-009100001
B1349253648880N00233796WA-009100001
B1349263648880N00233796WA-009100001
B1349273648880N00233796WA-009100001
B1349283648880N00233796WA-009100001
B1349293648880N00233796WA-009100001
B1349303648880N00233796WA-009100001
B1349313648880N00233796WA-009100001
B1349323648880N00233796WA-009100001
B1349333648880N00233796WA-009100001
B1349343648880N00233796WA-009100001
B1349353648880N00233796WA-009100001
B1349363648880N00233796WA-009100001
B1349373648880N00233796WA-009100001
B1349383648880N00233796WA-009100001
B1349393648880N00233796WA-009100001
B1349403648880N00233796WA-009100001
B1349413648880N00233796WA-009100001
B1349423648880N00233796WA-009100001
B1349433648880N00233796WA-009100001
B1349443648880N00233796WA-009100001
B1349453648880N00233796WA-009100001
B1349463648880N00233796WA-009100001
B1349473648880N00233796WA-009100001
B1349483648880N00233796WA-009100001
B1349493648880N00233796WA-009100001
B1349503648880N00233796WA-009100001
B1349513648880N00233796WA-009100001
B1349523648880N00233796WA-009100001
B1349533648880N00233796WA-009100001
B1349543648880N00233796WA-009100001
B1349553648880N00233796WA-009100001
B1349563648880N00233796WA-009100001
B1349573648880N00233796WA-009100001
B1349583648880N00233796WA-009100001
B1349593648880N00233796WA-009100001
B1350003648880N00233796WA-009100001
B1350013648880N00233796WA-009100001
B1350023648880N00233796WA-009100001
B1350033648880N00233795WA-009100002
B1350043648880N00233795WA-009100002
B1350053648881N00233796WA-009100002
B1350063648881N00233796WA-009100002
B1350073648881N00233796WA-009100002
B1350083648881N00233796WA-009100002
B1350093648881N00233796WA-009100002
B1350103648880N00233796WA-009100002
B1350113648880N00233796WA-009100002
B1350123648880N00233796WA-009100002
B1350133648880N00233796WA-009100002
B1350143648880N00233796WA-009100002
B1350153648880N00233796WA-009100002
B1350163648880N00233796WA-009100002
B1350173648880N00233796WA-009100002
B1350183648880N00233796WA-009100002
B1350193648880N00233796WA-009100002
B1350203648880N00233796WA-009100002
B1350213648880N00233796WA-009100002
B1350223648880N00233796WA-009100002
B1350233648881N00233796WA-009100002
B1350243648881N00233796WA-009100002
B1350253648881N00233796WA-009100002
B1350263648881N00233796WA-009100002
B1350273648881N00233796WA-009100002
B1350283648881N00233796WA-009100002
B1350293648881N00233796WA-009100002
B1350303648881N00233796WA-009100002
B1350313648881N00233796WA-009100002
B1350323648881N00233795WA-009100002
B1350333648881N00233795WA-009100002
B1350343648881N00233795WA-009100002
B1350353648881N00233795WA-009100002
B1350363648881N00233795WA-009100002
B1350373648881N00233795WA-009100002
B1350383648881N00233795WA-009100002
B1350393648881N00233795WA-009100002
B1350403648881N00233795WA-009100002
B1350413648881N00233795WA-009100002
B1350423648881N00233795WA-009100002
B1350433648881N00233795WA-009100002
B1350443648881N00233795WA-009100002
B1350453648881N00233795WA-009100002
B1350463648881N00233795WA-009100002
B1350473648880N00233795WA-009100002
B1350483648880N00233795WA-009100002
B1350493648880N00233795WA-009100002
B1350503648880N00233795WA-009100002
B1350513648880N00233795WA-009100002
B1350523648880N00233795WA-009100002
B1350533648880N00233795WA-009100002
B1350543648880N00233795WA-009100002
B1350553648880N00233795WA-009100002
B1350563648880N00233795WA-009100002
B1350573648880N00233795WA-009100002
B1350583648880N00233795WA-009100002
B1350593648880N00233796WA-009100002
B1351003648880N00233796WA-009100001
B1351013648880N00233796WA-009100001
B1351023648880N00233796WA-009100001
B1351033648880N00233796WA-009100001
B1351043648880N00233796WA-009100001
B1351053648880N00233796WA-009100001
B1351063648880N00233796WA-009100001
B1351073648880N00233796WA-009100001
B1351083648880N00233796WA-009100001
B1351093648880N00233796WA-009100001
B1351103648880N00233796WA-009100001
B1351113648880N00233796WA-009100001
B1351123648880N00233796WA-009100001
B1351133648880N00233796WA-009100001
B1351143648880N00233796WA-009100001
B1351153648880N00233796WA-009100001
B1351163648880N00233796WA-009100001
B1351173648880N00233796WA-009100001
B1351183648880N00233796WA-009100001
B1351193648880N00233796WA-009100001
B1351203648880N00233796WA-009100001
B1351213648880N00233796WA-009100001
B1351223648880N00233796WA-009100001
B1351233648880N00233796WA-009100001
B1351243648880N00233796WA-009100001
B1351253648880N00233796WA-009100001
B1351263648880N00233796WA-009100001
B1351273648880N00233796WA-009100001
B1351283648880N00233796WA-009100001
B1351293648880N00233796WA-009100001
B1351303648880N00233796WA-009100001
B1351313648880N00233796WA-009100000
B1351323648880N00233796WA-009100000
B1351333648880N00233796WA-009100000
B1351343648880N00233796WA-009100000
B1351353648880N00233796WA-009100000
B1351363648880N00233796WA-009100000
B1351373648880N00233796WA-009100000
B1351383648880N00233796WA-009100000
B1351393648880N00233796WA-009100000
B1351403648880N00233796WA-009100000
B1351413648880N00233796WA-009100000
B1351423648880N00233796WA-009100000
B1351433648880N00233796WA-009100000
B1351443648880N00233796WA-009100000
B1351453648880N00233796WA-009100000
B1351463648880N00233796WA-009100001
B1351473648880N00233796WA-009100001
B1351483648880N00233796WA-009100001
B1351493648880N00233796WA-009100001
B1351503648880N00233795WA-009100001
B1351513648880N00233795WA-009100001
B1351523648880N00233796WA-009100001
B1351533648880N00233796WA-009100001
B1351543648880N00233796WA-009100001
B1351553648880N00233796WA-009100001
B1351563648880N00233796WA-009100001
B1351573648880N00233796WA-009100001
B1351583648880N00233796WA-009100001
B1351593648880N00233796WA-009100000
B1352003648880N00233796WA-009100000
B1352013648880N00233796WA-009100000
B1352023648880N00233796WA-009100000
B1352033648880N00233796WA-009100000
B1352043648880N00233795WA-009100000
B1352053648880N00233795WA-009100000
B1352063648880N00233795WA-009100000
B1352073648880N00233795WA-009100000
B1352083648880N00233795WA-009100000
B1352093648880N00233795WA-009100000
B1352103648880N00233795WA-009100000
B1352113648880N00233796WA-009100000
B1352123648880N00233796WA-009100000
B1352133648880N00233796WA-009100000
B1352143648880N00233796WA-009100000
B1352153648880N00233796WA-009000000
B1352163648880N00233796WA-009000000
B1352173648880N00233796WA-009100000
B1352183648880N00233796WA-009100000
B1352193648880N00233796WA-009100000
B1352203648880N00233796WA-009100000
B1352213648880N00233796WA-009100000
B1352223648880N00233796WA-009100000
B1352233648880N00233796WA-009100000
B1352243648880N00233796WA-009100000
B1352253648880N00233796WA-009100000
B1352263648880N00233796WA-009100000
B1352273648880N00233796WA-009100000
B1352283648880N00233796WA-009100000
B1352293648880N00233796WA-009100000
B1352303648880N00233796WA-009100000
B1352313648880N00233796WA-009100000
B1352323648880N00233796WA-009000000
B1352333648880N00233796WA-009100000
B1352343648880N00233796WA-009100000
B1352353648880N00233796WA-009000000
B1352363648880N00233796WA-009100000
B1352373648880N00233796WA-009000000
B1352383648880N00233796WA-009000000
B1352393648880N00233796WA-009000001
B1352403648880N00233796WA-009100001
B1352413648880N00233796WA-009000001
B1352423648880N00233796WA-009000001
B1352433648880N00233796WA-009000001
B1352443648880N00233796WA-009000001
B1352453648880N00233796WA-009000001
B1352463648880N00233796WA-009000001
B1352473648880N00233796WA-009000001
B1352483648880N00233796WA-009000001
B1352493648880N00233796WA-009000001
B1352503648880N00233796WA-009100001
B1352513648880N00233795WA-009000001
B1352523648880N00233795WA-009000001
B1352533648880N00233795WA-009100001
B1352543648880N00233795WA-009000001
B1352553648880N00233795WA-009000001
B1352563648880N00233795WA-009000001
B1352573648880N00233795WA-009000001
B1352583648880N00233795WA-009100001
B1352593648880N00233795WA-009000001
B1353003648880N00233795WA-009000001
B1353013648880N00233795WA-009000001
B1353023648880N00233795WA-009000001
B1353033648880N00233795WA-009000001
B1353043648880N00233795WA-009000001
B1353053648880N00233795WA-009000001
B1353063648880N00233795WA-009000001
B1353073648880N00233795WA-009000001
B1353083648880N00233795WA-009000001
B1353093648880N00233795WA-009000001
B1353103648880N00233795WA-009000001
B1353113648880N00233796WA-009000002
B1353123648880N00233796WA-009000002
B1353133648880N00233796WA-009000002
B1353143648880N00233796WA-009000002
B1353153648880N00233796WA-009000002
B1353163648880N00233796WA-009000002
B1353173648880N00233796WA-009000002
B1353183648880N00233796WA-009000002
B1353193648880N00233796WA-009000002
B1353203648880N00233796WA-009000002
B1353213648880N00233796WA-009000001
B1353223648880N00233796WA-009000001
B1353233648880N00233796WA-009000001
B1353243648880N00233796WA-009000001
B1353253648880N00233796WA-009000001
B1353263648880N00233796WA-009000001
B1353273648880N00233796WA-009000001
B1353283648880N00233796WA-009000001
B1353293648880N00233796WA-009000001
B1353303648880N00233796WA-009000001
B1353313648880N00233796WA-009000001
B1353323648880N00233796WA-009000001
B1353333648880N00233796WA-009000001
B1353343648880N00233796WA-009000001
B1353353648880N00233796WA-009000001
B1353363648880N00233796WA-009000001
B1353373648880N00233796WA-009000001
B1353383648880N00233796WA-009000001
B1353393648880N00233796WA-009000001
B1353403648880N00233796WA-009000001
B1353413648880N00233796WA-009000001
B1353423648880N00233796WA-009000001
B1353433648880N00233796WA-009000001
B1353443648880N00233796WA-009000001
B1353453648880N00233796WA-009000001
B1353463648880N00233796WA-009000001
B1353473648880N00233796WA-009000001
B1353483648880N00233796WA-009000001
B1353493648880N00233795WA-009000001
B1353503648880N00233795WA-009000001
B1353513648880N00233795WA-009000001
B1353523648880N00233795WA-009000001
B1353533648880N00233795WA-009000001
B1353543648880N00233795WA-009000001
B1353553648880N00233795WA-009000001
B1353563648880N00233795WA-009000001
B1353573648880N00233795WA-009000001
B1353583648880N00233795WA-009000001
B1353593648880N00233795WA-009000001
B1354003648880N00233795WA-009000001
B1354013648880N00233795WA-009000001
B1354023648880N00233795WA-009000001
B1354033648880N00233795WA-009000001
B1354043648880N00233795WA-009000001
B1354053648880N00233795WA-009000001
B1354063648880N00233795WA-009000000
B1354073648880N00233796WA-009000000
B1354083648880N00233796WA-009000000
B1354093648880N00233796WA-009000000
B1354103648880N00233796WA-009000000
B1354113648880N00233796WA-009000000
B1354123648880N00233796WA-009000000
B1354133648880N00233796WA-009000000
B1354143648880N00233796WA-009000000
B1354153648880N00233796WA-009000000
B1354163648880N00233796WA-009000000
B1354173648880N00233796WA-009000000
B1354183648880N00233796WA-009000000
B1354193648880N00233796WA-009000000
B1354203648880N00233796WA-009000000
B1354213648880N00233796WA-009000000
B1354223648880N00233796WA-009000000
B1354233648880N00233796WA-009000000
B1354243648880N00233796WA-009000000
B1354253648880N00233796WA-009000000
B1354263648880N00233796WA-009000000
B1354273648881N00233796WA-009000000
B1354283648881N00233796WA-009000000
B1354293648881N00233796WA-009000000
B1354303648881N00233796WA-009000000
B1354313648881N00233796WA-009000001
B1354323648881N00233796WA-009000000
B1354333648881N00233796WA-009000000
B1354343648881N00233796WA-009000000
B1354353648881N00233796WA-009000000
B1354363648881N00233796WA-009000000
B1354373648881N00233796WA-009000000
B1354383648881N00233796WA-009000000
B1354393648881N00233796WA-009000000
B1354403648881N00233796WA-009000000
B1354413648881N00233796WA-009000000
B1354423648881N00233796WA-009000000
B1354433648881N00233796WA-009000000
B1354443648881N00233796WA-009000000
B1354453648881N00233796WA-009000000
B1354463648881N00233796WA-009000000
B1354473648881N00233796WA-009000000
B1354483648881N00233796WA-009000000
B1354493648881N00233796WA-009000000
B1354503648881N00233796WA-009000000
B1354513648880N00233796WA-009000000
B1354523648880N00233796WA-009000000
B1354533648880N00233796WA-009000000
B1354543648880N00233796WA-009000001
B1354553648880N00233796WA-009000001
B1354563648880N00233796WA-009000001
B1354573648880N00233796WA-009000001
B1354583648880N00233796WA-009000001
B1354593648880N00233796WA-009000001
B1355003648880N00233796WA-009000001
B1355013648880N00233796WA-009000001
B1355023648880N00233796WA-009000001
B1355033648880N00233796WA-009000001
B1355043648880N00233796WA-009000001
B1355053648880N00233796WA-009000001
B1355063648880N00233796WA-009000001
B1355073648880N00233796WA-009000001
B1355083648880N00233796WA-009000000
B1355093648880N00233796WA-009000000
B1355103648880N00233796WA-009000000
B1355113648880N00233796WA-009000000
B1355123648880N00233796WA-009000000
B1355133648880N00233796WA-009000000
B1355143648880N00233796WA-009000000
B1355153648880N00233796WA-009000000
B1355163648880N00233796WA-009000000
B1355173648880N00233796WA-009000000
B1355183648880N00233796WA-009000000
B1355193648880N00233796WA-009000000
B1355203648880N00233796WA-009000000
B1355213648880N00233796WA-009000000
B1355223648880N00233796WA-009000000
B1355233648880N00233796WA-009000000
B1355243648880N00233796WA-009000000
B1355253648880N00233796WA-009000000
B1355263648880N00233796WA-009000000
B1355273648880N00233796WA-009000000
B1355283648880N00233796WA-009000000
B1355293648880N00233796WA-009000000
B1355303648880N00233796WA-009000000
B1355313648880N00233796WA-009000000
B1355323648880N00233796WA-009000000
B1355333648880N00233796WA-009000000
B1355343648880N00233796WA-009000000
B1355353648880N00233796WA-009000000
B1355363648880N00233796WA-009000000
B1355373648880N00233796WA-009000000
B1355383648880N00233796WA-009000000
B1355393648880N00233796WA-009000000
B1355403648880N00233796WA-009000000
B1355413648880N00233796WA-009000000
B1355423648880N00233796WA-009000000
B1355433648880N00233796WA-009000000
B1355443648880N00233796WA-009000000
B1355453648880N00233796WA-009000000
B1355463648880N00233796WA-009000000
B1355473648880N00233796WA-009000000
B1355483648880N00233796WA-009000000
B1355493648880N00233796WA-009000000
B1355503648880N00233796WA-009000000
B1355513648880N00233796WA-009000000
B1355523648880N00233796WA-009000000
B1355533648880N00233796WA-009000000
B1355543648880N00233796WA-009000000
B1355553648880N00233796WA-009000000
B1355563648880N00233796WA-009000000
B1355573648880N00233796WA-009000000
B1355583648880N00233796WA-009000000
B1355593648880N00233796WA-009000000
B1356003648880N00233796WA-009000000
B1356013648880N00233796WA-009000000
B1356023648880N00233796WA-009000000
B1356033648880N00233796WA-009000000
B1356043648880N00233796WA-009000000
B1356053648880N00233796WA-009000000
B1356063648880N00233796WA-009000000
B1356073648880N00233796WA-009000000
B1356083648880N00233796WA-009000000
B1356093648880N00233796WA-009000000
B1356103648881N00233796WA-009000000
B1356113648881N00233796WA-009000000
B1356123648881N00233796WA-009000000
B1356133648881N00233796WA-009000000
B1356143648881N00233796WA-009000000
B1356153648881N00233796WA-009000000
B1356163648881N00233796WA-008900000
B1356173648881N00233796WA-009000000
B1356183648881N00233796WA-009000000
B1356193648881N00233796WA-009000000
B1356203648881N00233796WA-009000000
B1356213648881N00233796WA-008900001
B1356223648881N00233796WA-009000001
B1356233648881N00233795WA-009000001
B1356243648881N00233795WA-009000001
B1356253648881N00233795WA-009000001
B1356263648881N00233795WA-009000001
B1356273648881N00233795WA-009000001
B1356283648881N00233795WA-009000001
B1356293648881N00233796WA-009000001
B1356303648881N00233796WA-009000001
B1356313648881N00233796WA-008900001
B1356323648881N00233796WA-009000001
B1356333648881N00233796WA-009000001
B1356343648881N00233796WA-008900001
B1356353648881N00233796WA-009000001
B1356363648880N00233796WA-008900001
B1356373648880N00233796WA-008900001
B1356383648880N00233796WA-008900000
B1356393648880N00233796WA-008900000
B1356403648880N00233796WA-009000000
B1356413648880N00233796WA-009000000
B1356423648880N00233796WA-008900000
B1356433648880N00233796WA-009000000
B1356443648880N00233796WA-008900000
B1356453648880N00233796WA-008900000
B1356463648880N00233796WA-008900000
B1356473648880N00233796WA-009000000
B1356483648880N00233796WA-008900000
B1356493648880N00233796WA-009000000
B1356503648880N00233796WA-009000000
B1356513648880N00233796WA-009000000
B1356523648880N00233796WA-009000000
B1356533648880N00233796WA-009000000
B1356543648880N00233796WA-008900000
B1356553648880N00233796WA-008900000
B1356563648880N00233796WA-009000000
B1356573648880N00233796WA-008900000
B1356583648880N00233796WA-008900000
B1356593648880N00233796WA-008900000
B1357003648880N00233796WA-009000000
B1357013648880N00233796WA-008900000
B1357023648880N00233796WA-008900000
B1357033648880N00233796WA-008900000
B1357043648880N00233796WA-009000000
B1357053648880N00233796WA-008900000
B1357063648881N00233796WA-008900000
B1357073648881N00233796WA-008900000
B1357083648881N00233796WA-009000000
B1357093648881N00233796WA-009000000
B1357103648881N00233796WA-008900000
B1357113648881N00233796WA-008900000
B1357123648881N00233796WA-008900000
B1357133648881N00233796WA-008900000
B1357143648881N00233796WA-008900000
B1357153648881N00233796WA-008900000
B1357163648881N00233796WA-008900000
B1357173648881N00233796WA-008900000
B1357183648881N00233796WA-008900000
B1357193648881N00233796WA-009000000
B1357203648881N00233796WA-008900000
B1357213648881N00233796WA-008900000
B1357223648881N00233796WA-008900000
B1357233648881N00233796WA-008900000
B1357243648881N00233796WA-008900000
B1357253648881N00233796WA-008900000
B1357263648881N00233796WA-008900000
B1357273648880N00233796WA-008900000
B1357283648880N00233796WA-008900000
B1357293648880N00233796WA-008900000
B1357303648880N00233796WA-008900000
B1357313648880N00233796WA-008900000
B1357323648880N00233796WA-008900000
B1357333648880N00233796WA-008900000
B1357343648880N00233796WA-008900000
B1357353648880N00233796WA-008900000
B1357363648880N00233796WA-008900000
B1357373648880N00233796WA-008900000
B1357383648880N00233796WA-008900000
B1357393648880N00233796WA-008900000
B1357403648880N00233796WA-008900000
B1357413648880N00233796WA-008900000
B1357423648880N00233796WA-008900000
B1357433648880N00233796WA-008900000
B1357443648880N00233796WA-008900000
B1357453648880N00233796WA-008900000
B1357463648880N00233796WA-008900000
B1357473648880N00233796WA-008900000
B1357483648880N00233796WA-008900000
B1357493648880N00233796WA-008900000
B1357503648880N00233796WA-008900000
B1357513648880N00233796WA-008900000
B1357523648880N00233796WA-008900000
B1357533648880N00233796WA-008900000
B1357543648880N00233796WA-008900000
B1357553648880N00233796WA-008900000
B1357563648880N00233796WA-008900000
B1357573648880N00233796WA-008900000
B1357583648880N00233796WA-008900000
B1357593648880N00233796WA-008900000
B1358003648880N00233796WA-008900000
B1358013648880N00233795WA-008900000
B1358023648880N00233795WA-008900000
B1358033648880N00233795WA-008900000
B1358043648880N00233795WA-008900000
B1358053648880N00233795WA-008900000
B1358063648880N00233795WA-008900000
B1358073648880N00233795WA-008900000
B1358083648880N00233795WA-008900000
B1358093648881N00233795WA-008900000
B1358103648881N00233795WA-008900000
B1358113648881N00233795WA-008900000
B1358123648880N00233795WA-008900000
B1358133648880N00233796WA-008900000
B1358143648880N00233796WA-008900000
B1358153648880N00233796WA-008900000
B1358163648880N00233796WA-008900000
B1358173648880N00233796WA-008900000
B1358183648880N00233796WA-008900000
B1358193648880N00233796WA-008900000
B1358203648880N00233796WA-008900000
B1358213648880N00233796WA-008900000
B1358223648880N00233796WA-008900000
B1358233648880N00233796WA-008900000
B1358243648880N00233796WA-008900000
B1358253648880N00233796WA-008900000
B1358263648880N00233796WA-008900000
B1358273648880N00233796WA-008900000
B1358283648880N00233796WA-008900000
B1358293648880N00233796WA-008900000
B1358303648880N00233796WA-008900000
B1358313648880N00233796WA-008900000
B1358323648880N00233796WA-008900000
B1358333648880N00233795WA-009000000
B1358343648880N00233795WA-008900000
B1358353648880N00233795WA-009000000
B1358363648880N00233795WA-008900000
B1358373648880N00233795WA-008900000
LXGD GpsDump version 4.66
LXGD Downloaded 2013-02-14  21:38:59
G5F2515AC8B393D06
